Time,TemperatureF,DewpointF,PressureIn,WindDirection,WindDirectionDegrees,WindSpeedMPH,WindSpeedGustMPH,Humidity,HourlyPrecipIn,Conditions,Clouds,dailyrainin,SoftwareType,DateUTC
2013-04-09 00:00:00,74.2,64.6,30.22,South,183,3.1,4.7,72,0.00,,---,0.00,VWS V14.01,2013-04-09 04:00:00,
2013-04-09 00:01:00,74.3,62.9,30.21,South,188,3.9,10.9,68,0.00,,---,0.00,VWS V14.01,2013-04-09 04:01:00,
2013-04-09 00:02:00,74.2,62.9,30.21,SSW,207,7.4,10.9,68,0.00,,---,0.00,VWS V14.01,2013-04-09 04:02:00,
2013-04-09 00:03:00,74.3,63.0,30.21,South,183,5.8,10.9,68,0.00,,---,0.00,VWS V14.01,2013-04-09 04:03:00,
2013-04-09 00:04:00,74.3,62.9,30.20,South,183,6.8,10.9,68,0.00,,---,0.00,VWS V14.01,2013-04-09 04:04:00,
2013-04-09 00:05:00,74.0,64.8,30.21,South,186,2.7,3.9,73,0.00,,---,0.00,VWS V14.01,2013-04-09 04:05:00,
2013-04-09 00:06:00,74.1,62.8,30.20,South,188,9.1,10.9,68,0.00,,---,0.00,VWS V14.01,2013-04-09 04:06:00,
2013-04-09 00:07:00,74.2,63.0,30.20,SSW,201,7.7,11.2,68,0.00,,---,0.00,VWS V14.01,2013-04-09 04:07:00,
2013-04-09 00:08:00,74.3,63.2,30.20,South,181,7.5,11.2,68,0.00,,---,0.00,VWS V14.01,2013-04-09 04:08:00,
2013-04-09 00:09:00,74.2,63.0,30.20,SE,129,5.5,11.2,68,0.00,,---,0.00,VWS V14.01,2013-04-09 04:09:00,
2013-04-09 00:10:00,74.0,64.6,30.22,SSE,167,3.9,6.1,72,0.00,,---,0.00,VWS V14.01,2013-04-09 04:10:00,
2013-04-09 00:11:00,74.2,63.2,30.20,SE,134,3.9,11.2,68,0.00,,---,0.00,VWS V14.01,2013-04-09 04:11:00,
2013-04-09 00:12:00,74.3,63.4,30.20,South,188,4.0,11.2,69,0.00,,---,0.00,VWS V14.01,2013-04-09 04:12:00,
2013-04-09 00:13:00,74.3,63.5,30.20,SSW,202,9.2,11.2,69,0.00,,---,0.00,VWS V14.01,2013-04-09 04:13:00,
2013-04-09 00:14:00,74.1,63.3,30.20,South,188,7.0,11.2,69,0.00,,---,0.00,VWS V14.01,2013-04-09 04:14:00,
2013-04-09 00:15:00,74.1,64.2,30.21,SSW,202,5.6,8.1,71,0.00,,---,0.00,VWS V14.01,2013-04-09 04:15:00,
2013-04-09 00:16:00,74.0,63.3,30.20,SSW,200,6.0,11.2,69,0.00,,---,0.00,VWS V14.01,2013-04-09 04:16:00,
2013-04-09 00:17:00,74.0,63.2,30.20,South,172,4.7,11.2,69,0.00,,---,0.00,VWS V14.01,2013-04-09 04:17:00,
2013-04-09 00:18:00,74.0,63.2,30.20,SSW,205,6.6,11.2,69,0.00,,---,0.00,VWS V14.01,2013-04-09 04:18:00,
2013-04-09 00:19:00,74.0,63.4,30.20,SE,146,5.5,11.2,69,0.00,,---,0.00,VWS V14.01,2013-04-09 04:19:00,
2013-04-09 00:20:00,73.9,63.6,30.21,SSW,198,8.5,10.4,70,0.00,,---,0.00,VWS V14.01,2013-04-09 04:20:00,
2013-04-09 00:21:00,74.0,63.6,30.21,South,184,6.5,7.5,70,0.00,,---,0.00,VWS V14.01,2013-04-09 04:21:00,
2013-04-09 00:22:00,73.9,63.3,30.20,South,186,2.8,11.2,70,0.00,,---,0.00,VWS V14.01,2013-04-09 04:22:00,
2013-04-09 00:23:00,73.9,63.3,30.20,SSE,155,6.0,11.2,70,0.00,,---,0.00,VWS V14.01,2013-04-09 04:23:00,
2013-04-09 00:24:00,73.8,63.2,30.20,SE,124,4.3,11.2,70,0.00,,---,0.00,VWS V14.01,2013-04-09 04:24:00,
2013-04-09 00:25:00,74.0,63.2,30.21,South,183,4.6,7.7,69,0.00,,---,0.00,VWS V14.01,2013-04-09 04:25:00,
2013-04-09 00:26:00,74.1,63.3,30.21,South,190,7.6,8.3,69,0.00,,---,0.00,VWS V14.01,2013-04-09 04:26:00,
2013-04-09 00:27:00,73.7,63.2,30.20,South,181,5.2,11.2,70,0.00,,---,0.00,VWS V14.01,2013-04-09 04:27:00,
2013-04-09 00:28:00,73.8,63.3,30.20,South,186,4.9,11.2,70,0.00,,---,0.00,VWS V14.01,2013-04-09 04:28:00,
2013-04-09 00:29:00,73.7,63.3,30.20,South,173,1.7,11.2,70,0.00,,---,0.00,VWS V14.01,2013-04-09 04:29:00,
2013-04-09 00:30:00,74.1,62.8,30.21,SSW,193,5.0,10.3,68,0.00,,---,0.00,VWS V14.01,2013-04-09 04:30:00,
2013-04-09 00:31:00,74.1,62.7,30.21,South,187,5.3,10.3,68,0.00,,---,0.00,VWS V14.01,2013-04-09 04:31:00,
2013-04-09 00:32:00,73.6,63.4,30.20,South,179,5.3,11.2,70,0.00,,---,0.00,VWS V14.01,2013-04-09 04:32:00,
2013-04-09 00:33:00,73.6,63.5,30.20,SE,143,4.2,11.2,71,0.00,,---,0.00,VWS V14.01,2013-04-09 04:33:00,
2013-04-09 00:34:00,73.6,63.5,30.20,South,176,3.1,11.2,71,0.00,,---,0.00,VWS V14.01,2013-04-09 04:34:00,
2013-04-09 00:35:00,73.6,63.6,30.20,South,186,8.6,11.2,71,0.00,,---,0.00,VWS V14.01,2013-04-09 04:35:00,
2013-04-09 00:36:00,74.2,62.9,30.21,SSW,200,7.9,11.0,68,0.00,,---,0.00,VWS V14.01,2013-04-09 04:36:00,
2013-04-09 00:37:00,74.2,62.9,30.21,South,169,10.2,12.2,68,0.00,,---,0.00,VWS V14.01,2013-04-09 04:37:00,
2013-04-09 00:38:00,73.7,63.6,30.20,South,179,7.3,11.2,71,0.00,,---,0.00,VWS V14.01,2013-04-09 04:38:00,
2013-04-09 00:39:00,73.6,63.7,30.20,SSE,165,6.7,11.2,71,0.00,,---,0.00,VWS V14.01,2013-04-09 04:39:00,
2013-04-09 00:40:00,73.8,64.0,30.20,ESE,111,3.9,11.2,72,0.00,,---,0.00,VWS V14.01,2013-04-09 04:40:00,
2013-04-09 00:41:00,74.3,62.9,30.20,South,170,7.6,8.8,68,0.00,,---,0.00,VWS V14.01,2013-04-09 04:41:00,
2013-04-09 00:42:00,74.4,63.0,30.21,South,183,8.9,9.8,68,0.00,,---,0.00,VWS V14.01,2013-04-09 04:42:00,
2013-04-09 00:43:00,73.8,64.1,30.20,SE,145,6.0,11.2,72,0.00,,---,0.00,VWS V14.01,2013-04-09 04:43:00,
2013-04-09 00:44:00,73.7,63.9,30.19,South,183,5.5,11.2,72,0.00,,---,0.00,VWS V14.01,2013-04-09 04:44:00,
2013-04-09 00:45:00,73.9,64.2,30.19,South,186,4.7,11.2,72,0.00,,---,0.00,VWS V14.01,2013-04-09 04:45:00,
2013-04-09 00:46:00,73.6,63.9,30.19,South,191,5.2,11.2,72,0.00,,---,0.00,VWS V14.01,2013-04-09 04:46:00,
2013-04-09 00:47:00,73.7,64.0,30.19,SSW,207,7.1,11.2,72,0.00,,---,0.00,VWS V14.01,2013-04-09 04:47:00,
2013-04-09 00:48:00,73.6,63.9,30.19,SSE,162,5.0,11.2,72,0.00,,---,0.00,VWS V14.01,2013-04-09 04:48:00,
2013-04-09 00:49:00,73.7,63.8,30.19,South,176,6.3,11.2,71,0.00,,---,0.00,VWS V14.01,2013-04-09 04:49:00,
2013-04-09 00:50:00,73.5,63.6,30.19,SSE,150,6.4,11.2,71,0.00,,---,0.00,VWS V14.01,2013-04-09 04:50:00,
2013-04-09 00:51:00,73.5,63.5,30.19,SE,146,7.5,11.2,71,0.00,,---,0.00,VWS V14.01,2013-04-09 04:51:00,
2013-04-09 00:52:00,73.4,63.3,30.19,SSW,201,8.4,11.9,71,0.00,,---,0.00,VWS V14.01,2013-04-09 04:52:00,
2013-04-09 00:53:00,73.5,63.4,30.19,SSW,195,6.5,11.9,71,0.00,,---,0.00,VWS V14.01,2013-04-09 04:53:00,
2013-04-09 00:54:00,73.5,63.4,30.19,South,179,5.2,11.9,71,0.00,,---,0.00,VWS V14.01,2013-04-09 04:54:00,
2013-04-09 00:55:00,73.4,63.4,30.19,South,176,5.4,11.9,71,0.00,,---,0.00,VWS V14.01,2013-04-09 04:55:00,
2013-04-09 00:56:00,73.4,63.4,30.19,SSW,195,8.6,11.9,71,0.00,,---,0.00,VWS V14.01,2013-04-09 04:56:00,
2013-04-09 00:57:00,73.3,63.3,30.19,South,181,5.9,11.9,71,0.00,,---,0.00,VWS V14.01,2013-04-09 04:57:00,
2013-04-09 00:58:00,73.3,63.3,30.19,SSW,195,3.8,11.9,71,0.00,,---,0.00,VWS V14.01,2013-04-09 04:58:00,
2013-04-09 00:59:00,73.4,63.4,30.19,South,191,8.2,11.9,71,0.00,,---,0.00,VWS V14.01,2013-04-09 04:59:00,
2013-04-09 01:00:00,73.4,63.4,30.19,South,183,5.5,11.9,71,0.00,,---,0.00,VWS V14.01,2013-04-09 05:00:00,
2013-04-09 01:01:00,73.5,63.5,30.18,South,188,6.8,11.9,71,0.00,,---,0.00,VWS V14.01,2013-04-09 05:01:00,
2013-04-09 01:02:00,73.4,63.4,30.18,SSW,198,4.9,11.9,71,0.00,,---,0.00,VWS V14.01,2013-04-09 05:02:00,
2013-04-09 01:03:00,73.5,63.6,30.18,SSW,193,6.6,11.9,71,0.00,,---,0.00,VWS V14.01,2013-04-09 05:03:00,
2013-04-09 01:04:00,73.7,63.8,30.18,SE,131,4.2,11.9,71,0.00,,---,0.00,VWS V14.01,2013-04-09 05:04:00,
2013-04-09 01:05:00,73.5,63.8,30.18,SE,145,5.7,11.9,72,0.00,,---,0.00,VWS V14.01,2013-04-09 05:05:00,
2013-04-09 01:06:00,73.5,64.0,30.18,South,173,5.9,11.9,72,0.00,,---,0.00,VWS V14.01,2013-04-09 05:06:00,
2013-04-09 01:07:00,73.5,63.9,30.18,South,181,4.8,11.9,72,0.00,,---,0.00,VWS V14.01,2013-04-09 05:07:00,
2013-04-09 01:08:00,73.5,63.9,30.18,NE,51,2.9,11.9,72,0.00,,---,0.00,VWS V14.01,2013-04-09 05:08:00,
2013-04-09 01:09:00,73.7,64.2,30.18,South,172,5.2,11.9,72,0.00,,---,0.00,VWS V14.01,2013-04-09 05:09:00,
2013-04-09 01:10:00,73.5,64.0,30.18,South,176,3.2,11.9,72,0.00,,---,0.00,VWS V14.01,2013-04-09 05:10:00,
2013-04-09 01:11:00,73.5,63.9,30.18,ESE,110,2.9,11.9,72,0.00,,---,0.00,VWS V14.01,2013-04-09 05:11:00,
2013-04-09 01:12:00,73.5,63.9,30.18,South,183,4.0,11.9,72,0.00,,---,0.00,VWS V14.01,2013-04-09 05:12:00,
2013-04-09 01:13:00,73.4,63.7,30.18,SSW,195,6.1,11.9,72,0.00,,---,0.00,VWS V14.01,2013-04-09 05:13:00,
2013-04-09 01:14:00,73.3,63.6,30.18,SSE,162,3.1,11.9,72,0.00,,---,0.00,VWS V14.01,2013-04-09 05:14:00,
2013-04-09 01:15:00,73.3,63.6,30.18,South,188,5.6,11.9,72,0.00,,---,0.00,VWS V14.01,2013-04-09 05:15:00,
2013-04-09 01:16:00,73.4,63.7,30.18,South,181,5.7,11.9,72,0.00,,---,0.00,VWS V14.01,2013-04-09 05:16:00,
2013-04-09 01:17:00,73.3,63.6,30.18,SSW,212,8.2,11.9,72,0.00,,---,0.00,VWS V14.01,2013-04-09 05:17:00,
2013-04-09 01:18:00,73.4,63.6,30.18,SSW,198,8.9,11.9,72,0.00,,---,0.00,VWS V14.01,2013-04-09 05:18:00,
2013-04-09 01:19:00,73.3,63.5,30.18,South,169,5.5,11.9,72,0.00,,---,0.00,VWS V14.01,2013-04-09 05:19:00,
2013-04-09 01:20:00,73.4,63.6,30.18,SSW,195,5.9,11.9,72,0.00,,---,0.00,VWS V14.01,2013-04-09 05:20:00,
2013-04-09 01:21:00,73.5,63.8,30.17,SW,222,6.4,11.9,72,0.00,,---,0.00,VWS V14.01,2013-04-09 05:21:00,
2013-04-09 01:22:00,73.6,63.9,30.17,South,172,3.2,11.9,72,0.00,,---,0.00,VWS V14.01,2013-04-09 05:22:00,
2013-04-09 01:23:00,73.4,63.8,30.17,South,176,3.2,11.9,72,0.00,,---,0.00,VWS V14.01,2013-04-09 05:23:00,
2013-04-09 01:24:00,73.5,63.9,30.17,South,174,4.0,11.9,72,0.00,,---,0.00,VWS V14.01,2013-04-09 05:24:00,
2013-04-09 01:25:00,73.5,63.9,30.18,South,191,3.9,11.9,72,0.00,,---,0.00,VWS V14.01,2013-04-09 05:25:00,
2013-04-09 01:26:00,73.3,63.8,30.18,South,174,5.7,11.9,72,0.00,,---,0.00,VWS V14.01,2013-04-09 05:26:00,
2013-04-09 01:27:00,73.5,63.9,30.18,SSE,158,4.4,11.9,72,0.00,,---,0.00,VWS V14.01,2013-04-09 05:27:00,
2013-04-09 01:28:00,73.6,64.0,30.18,SE,132,4.5,11.9,72,0.00,,---,0.00,VWS V14.01,2013-04-09 05:28:00,
2013-04-09 01:29:00,73.5,63.8,30.18,South,170,5.2,11.9,72,0.00,,---,0.00,VWS V14.01,2013-04-09 05:29:00,
2013-04-09 01:30:00,73.4,63.5,30.18,South,180,7.1,11.9,71,0.00,,---,0.00,VWS V14.01,2013-04-09 05:30:00,
2013-04-09 01:31:00,73.5,63.6,30.18,South,172,4.3,11.9,71,0.00,,---,0.00,VWS V14.01,2013-04-09 05:31:00,
2013-04-09 01:32:00,73.4,63.5,30.18,SSE,149,2.4,11.9,71,0.00,,---,0.00,VWS V14.01,2013-04-09 05:32:00,
2013-04-09 01:33:00,73.5,63.7,30.18,SSE,158,1.9,11.9,71,0.00,,---,0.00,VWS V14.01,2013-04-09 05:33:00,
2013-04-09 01:34:00,73.5,63.7,30.18,South,173,7.2,11.9,71,0.00,,---,0.00,VWS V14.01,2013-04-09 05:34:00,
2013-04-09 01:35:00,73.4,63.6,30.18,SSE,167,6.3,11.9,72,0.00,,---,0.00,VWS V14.01,2013-04-09 05:35:00,
2013-04-09 01:36:00,73.2,63.4,30.18,SSE,159,2.7,11.9,72,0.00,,---,0.00,VWS V14.01,2013-04-09 05:36:00,
2013-04-09 01:37:00,73.4,63.8,30.18,SSE,167,3.3,11.9,72,0.00,,---,0.00,VWS V14.01,2013-04-09 05:37:00,
2013-04-09 01:38:00,73.3,63.9,30.17,South,186,6.6,11.9,72,0.00,,---,0.00,VWS V14.01,2013-04-09 05:38:00,
2013-04-09 01:39:00,73.3,63.9,30.18,South,190,8.6,11.9,72,0.00,,---,0.00,VWS V14.01,2013-04-09 05:39:00,
2013-04-09 01:40:00,73.5,64.2,30.18,South,184,5.5,11.9,73,0.00,,---,0.00,VWS V14.01,2013-04-09 05:40:00,
2013-04-09 01:41:00,73.3,63.9,30.18,South,188,5.2,11.9,72,0.00,,---,0.00,VWS V14.01,2013-04-09 05:41:00,
2013-04-09 01:42:00,73.4,64.0,30.18,South,177,6.9,11.9,72,0.00,,---,0.00,VWS V14.01,2013-04-09 05:42:00,
2013-04-09 01:43:00,73.4,64.0,30.18,SSW,193,5.8,11.9,72,0.00,,---,0.00,VWS V14.01,2013-04-09 05:43:00,
2013-04-09 01:44:00,73.3,64.0,30.18,SSW,198,4.2,11.9,73,0.00,,---,0.00,VWS V14.01,2013-04-09 05:44:00,
2013-04-09 01:45:00,73.5,64.1,30.18,ESE,120,2.4,11.9,72,0.00,,---,0.00,VWS V14.01,2013-04-09 05:45:00,
2013-04-09 01:46:00,73.4,64.0,30.18,South,191,3.4,11.9,72,0.00,,---,0.00,VWS V14.01,2013-04-09 05:46:00,
2013-04-09 01:47:00,73.4,64.0,30.18,South,177,3.4,11.9,72,0.00,,---,0.00,VWS V14.01,2013-04-09 05:47:00,
2013-04-09 01:48:00,73.4,64.2,30.18,SSW,197,3.9,11.9,73,0.00,,---,0.00,VWS V14.01,2013-04-09 05:48:00,
2013-04-09 01:49:00,73.6,64.3,30.18,South,172,6.6,11.9,73,0.00,,---,0.00,VWS V14.01,2013-04-09 05:49:00,
2013-04-09 01:50:00,73.6,64.4,30.17,SSE,158,2.1,11.9,73,0.00,,---,0.00,VWS V14.01,2013-04-09 05:50:00,
2013-04-09 01:51:00,73.4,64.3,30.18,SSE,163,2.2,11.9,73,0.00,,---,0.00,VWS V14.01,2013-04-09 05:51:00,
2013-04-09 01:52:00,73.4,64.5,30.17,SE,135,4.8,11.9,74,0.00,,---,0.00,VWS V14.01,2013-04-09 05:52:00,
2013-04-09 01:53:00,73.6,64.7,30.17,South,181,7.4,11.9,74,0.00,,---,0.00,VWS V14.01,2013-04-09 05:53:00,
2013-04-09 01:54:00,73.5,64.8,30.17,South,170,5.8,11.9,74,0.00,,---,0.00,VWS V14.01,2013-04-09 05:54:00,
2013-04-09 01:55:00,73.4,64.8,30.17,South,186,4.6,11.9,74,0.00,,---,0.00,VWS V14.01,2013-04-09 05:55:00,
2013-04-09 01:56:00,73.5,64.8,30.17,South,169,3.9,11.9,74,0.00,,---,0.00,VWS V14.01,2013-04-09 05:56:00,
2013-04-09 01:57:00,73.5,64.8,30.17,SSE,166,4.5,11.9,74,0.00,,---,0.00,VWS V14.01,2013-04-09 05:57:00,
2013-04-09 01:58:00,73.7,65.2,30.17,SSE,156,6.7,11.9,75,0.00,,---,0.00,VWS V14.01,2013-04-09 05:58:00,
2013-04-09 01:59:00,73.6,65.0,30.17,SSW,193,5.1,11.9,75,0.00,,---,0.00,VWS V14.01,2013-04-09 05:59:00,
2013-04-09 02:00:00,73.6,65.0,30.17,South,184,5.8,11.9,74,0.00,,---,0.00,VWS V14.01,2013-04-09 06:00:00,
2013-04-09 02:01:00,73.5,64.9,30.17,South,174,6.5,11.9,74,0.00,,---,0.00,VWS V14.01,2013-04-09 06:01:00,
2013-04-09 02:02:00,73.7,65.0,30.17,South,180,3.3,11.9,74,0.00,,---,0.00,VWS V14.01,2013-04-09 06:02:00,
2013-04-09 02:03:00,73.6,65.0,30.17,South,183,5.4,11.9,74,0.00,,---,0.00,VWS V14.01,2013-04-09 06:03:00,
2013-04-09 02:04:00,73.5,65.1,30.17,South,173,3.8,11.9,75,0.00,,---,0.00,VWS V14.01,2013-04-09 06:04:00,
2013-04-09 02:05:00,73.5,65.0,30.17,SSW,201,4.4,11.9,75,0.00,,---,0.00,VWS V14.01,2013-04-09 06:05:00,
2013-04-09 02:06:00,73.6,65.0,30.17,SSW,193,3.0,11.9,75,0.00,,---,0.00,VWS V14.01,2013-04-09 06:06:00,
2013-04-09 02:07:00,73.6,65.0,30.17,SSE,158,6.0,11.9,75,0.00,,---,0.00,VWS V14.01,2013-04-09 06:07:00,
2013-04-09 02:08:00,73.6,65.3,30.17,South,184,5.0,11.9,75,0.00,,---,0.00,VWS V14.01,2013-04-09 06:08:00,
2013-04-09 02:09:00,73.7,65.4,30.16,South,170,6.6,11.9,75,0.00,,---,0.00,VWS V14.01,2013-04-09 06:09:00,
2013-04-09 02:10:00,73.8,65.4,30.16,South,181,5.3,11.9,75,0.00,,---,0.00,VWS V14.01,2013-04-09 06:10:00,
2013-04-09 02:11:00,73.7,65.4,30.16,South,179,4.5,11.9,75,0.00,,---,0.00,VWS V14.01,2013-04-09 06:11:00,
2013-04-09 02:12:00,73.6,65.3,30.16,South,187,5.8,11.9,75,0.00,,---,0.00,VWS V14.01,2013-04-09 06:12:00,
2013-04-09 02:13:00,73.6,65.3,30.16,South,179,3.7,11.9,75,0.00,,---,0.00,VWS V14.01,2013-04-09 06:13:00,
2013-04-09 02:14:00,73.6,65.2,30.16,South,176,3.8,11.9,75,0.00,,---,0.00,VWS V14.01,2013-04-09 06:14:00,
2013-04-09 02:15:00,73.6,65.2,30.16,SSE,155,3.9,11.9,75,0.00,,---,0.00,VWS V14.01,2013-04-09 06:15:00,
2013-04-09 02:16:00,73.6,65.2,30.16,South,179,5.0,11.9,75,0.00,,---,0.00,VWS V14.01,2013-04-09 06:16:00,
2013-04-09 02:17:00,73.5,65.0,30.16,SSE,162,4.5,11.9,75,0.00,,---,0.00,VWS V14.01,2013-04-09 06:17:00,
2013-04-09 02:18:00,73.6,65.1,30.16,South,183,8.3,11.9,75,0.00,,---,0.00,VWS V14.01,2013-04-09 06:18:00,
2013-04-09 02:19:00,73.3,64.8,30.16,South,188,7.8,11.9,75,0.00,,---,0.00,VWS V14.01,2013-04-09 06:19:00,
2013-04-09 02:20:00,73.4,64.8,30.16,South,181,3.2,11.9,74,0.00,,---,0.00,VWS V14.01,2013-04-09 06:20:00,
2013-04-09 02:21:00,73.3,64.7,30.16,SE,127,2.1,11.9,74,0.00,,---,0.00,VWS V14.01,2013-04-09 06:21:00,
2013-04-09 02:22:00,73.3,64.6,30.16,SSW,194,3.0,11.9,74,0.00,,---,0.00,VWS V14.01,2013-04-09 06:22:00,
2013-04-09 02:23:00,73.3,64.6,30.16,South,184,3.7,11.9,74,0.00,,---,0.00,VWS V14.01,2013-04-09 06:23:00,
2013-04-09 02:24:00,73.2,64.5,30.16,South,176,4.9,11.9,74,0.00,,---,0.00,VWS V14.01,2013-04-09 06:24:00,
2013-04-09 02:25:00,73.1,64.3,30.16,South,174,5.5,11.9,74,0.00,,---,0.00,VWS V14.01,2013-04-09 06:25:00,
2013-04-09 02:26:00,73.2,64.4,30.16,South,173,1.8,11.9,74,0.00,,---,0.00,VWS V14.01,2013-04-09 06:26:00,
2013-04-09 02:27:00,73.3,64.5,30.16,SSW,194,3.3,11.9,74,0.00,,---,0.00,VWS V14.01,2013-04-09 06:27:00,
2013-04-09 02:28:00,73.2,64.4,30.16,SSW,197,5.3,11.9,74,0.00,,---,0.00,VWS V14.01,2013-04-09 06:28:00,
2013-04-09 02:29:00,73.2,64.4,30.16,SSE,166,2.5,11.9,74,0.00,,---,0.00,VWS V14.01,2013-04-09 06:29:00,
2013-04-09 02:30:00,73.2,64.3,30.16,South,169,4.3,11.9,74,0.00,,---,0.00,VWS V14.01,2013-04-09 06:30:00,
2013-04-09 02:31:00,73.1,64.2,30.16,SE,135,4.7,11.9,74,0.00,,---,0.00,VWS V14.01,2013-04-09 06:31:00,
2013-04-09 02:32:00,73.2,64.3,30.16,SSE,165,3.5,11.9,74,0.00,,---,0.00,VWS V14.01,2013-04-09 06:32:00,
2013-04-09 02:33:00,73.2,64.3,30.16,South,172,2.7,11.9,74,0.00,,---,0.00,VWS V14.01,2013-04-09 06:33:00,
2013-04-09 02:34:00,73.2,64.3,30.16,SSE,156,1.9,11.9,74,0.00,,---,0.00,VWS V14.01,2013-04-09 06:34:00,
2013-04-09 02:35:00,73.1,64.3,30.16,SSE,152,3.4,11.9,74,0.00,,---,0.00,VWS V14.01,2013-04-09 06:35:00,
2013-04-09 02:36:00,73.2,64.3,30.16,SSW,195,2.4,11.9,74,0.00,,---,0.00,VWS V14.01,2013-04-09 06:36:00,
2013-04-09 02:37:00,73.3,64.4,30.16,South,188,6.0,11.9,74,0.00,,---,0.00,VWS V14.01,2013-04-09 06:37:00,
2013-04-09 02:38:00,73.2,64.3,30.16,SSW,200,7.3,11.9,74,0.00,,---,0.00,VWS V14.01,2013-04-09 06:38:00,
2013-04-09 02:39:00,73.2,64.3,30.16,South,187,2.3,11.9,74,0.00,,---,0.00,VWS V14.01,2013-04-09 06:39:00,
2013-04-09 02:40:00,73.0,64.1,30.16,SSW,197,4.7,11.9,74,0.00,,---,0.00,VWS V14.01,2013-04-09 06:40:00,
2013-04-09 02:41:00,73.0,64.2,30.16,SSW,198,5.3,11.9,74,0.00,,---,0.00,VWS V14.01,2013-04-09 06:41:00,
2013-04-09 02:42:00,73.2,64.4,30.16,South,169,4.1,11.9,74,0.00,,---,0.00,VWS V14.01,2013-04-09 06:42:00,
2013-04-09 02:43:00,73.2,64.3,30.15,South,177,4.7,11.9,74,0.00,,---,0.00,VWS V14.01,2013-04-09 06:43:00,
2013-04-09 02:44:00,73.2,64.4,30.15,SSE,163,4.0,11.9,74,0.00,,---,0.00,VWS V14.01,2013-04-09 06:44:00,
2013-04-09 02:45:00,73.2,64.3,30.15,SSE,162,6.0,11.9,74,0.00,,---,0.00,VWS V14.01,2013-04-09 06:45:00,
2013-04-09 02:46:00,73.3,64.5,30.15,South,188,6.0,11.9,74,0.00,,---,0.00,VWS V14.01,2013-04-09 06:46:00,
2013-04-09 02:47:00,73.3,64.6,30.15,SSW,197,4.7,11.9,74,0.00,,---,0.00,VWS V14.01,2013-04-09 06:47:00,
2013-04-09 02:48:00,73.3,64.6,30.15,SSW,194,3.3,11.9,74,0.00,,---,0.00,VWS V14.01,2013-04-09 06:48:00,
2013-04-09 02:49:00,73.3,64.7,30.15,South,183,5.4,11.9,74,0.00,,---,0.00,VWS V14.01,2013-04-09 06:49:00,
2013-04-09 02:50:00,73.4,64.7,30.15,South,184,2.9,11.9,74,0.00,,---,0.00,VWS V14.01,2013-04-09 06:50:00,
2013-04-09 02:51:00,73.4,64.7,30.15,SSE,156,0.8,11.9,74,0.00,,---,0.00,VWS V14.01,2013-04-09 06:51:00,
2013-04-09 02:52:00,73.2,64.6,30.15,South,186,2.6,11.9,74,0.00,,---,0.00,VWS V14.01,2013-04-09 06:52:00,
2013-04-09 02:53:00,73.2,64.5,30.15,South,180,3.4,11.9,74,0.00,,---,0.00,VWS V14.01,2013-04-09 06:53:00,
2013-04-09 02:54:00,73.4,64.7,30.15,South,186,5.2,11.9,74,0.00,,---,0.00,VWS V14.01,2013-04-09 06:54:00,
2013-04-09 02:55:00,73.3,64.4,30.15,SW,214,5.5,11.9,74,0.00,,---,0.00,VWS V14.01,2013-04-09 06:55:00,
2013-04-09 02:56:00,73.2,64.3,30.15,South,186,6.4,11.9,74,0.00,,---,0.00,VWS V14.01,2013-04-09 06:56:00,
2013-04-09 02:57:00,73.1,64.2,30.15,SSE,158,6.8,11.9,74,0.00,,---,0.00,VWS V14.01,2013-04-09 06:57:00,
2013-04-09 02:58:00,73.3,64.3,30.15,SSW,207,7.2,11.9,74,0.00,,---,0.00,VWS V14.01,2013-04-09 06:58:00,
2013-04-09 02:59:00,73.2,64.2,30.15,SSW,198,7.6,11.9,74,0.00,,---,0.00,VWS V14.01,2013-04-09 06:59:00,
2013-04-09 03:00:00,73.2,64.2,30.15,SSW,200,2.4,11.9,74,0.00,,---,0.00,VWS V14.01,2013-04-09 07:00:00,
2013-04-09 03:01:00,73.2,64.3,30.15,SSW,195,6.3,11.9,74,0.00,,---,0.00,VWS V14.01,2013-04-09 07:01:00,
2013-04-09 03:02:00,73.3,64.4,30.15,SSW,211,3.7,11.9,74,0.00,,---,0.00,VWS V14.01,2013-04-09 07:02:00,
2013-04-09 03:03:00,73.3,64.4,30.15,South,187,7.0,11.9,74,0.00,,---,0.00,VWS V14.01,2013-04-09 07:03:00,
2013-04-09 03:04:00,73.3,64.4,30.15,SSW,210,4.9,11.9,74,0.00,,---,0.00,VWS V14.01,2013-04-09 07:04:00,
2013-04-09 03:05:00,73.3,64.4,30.15,SE,142,2.5,11.9,74,0.00,,---,0.00,VWS V14.01,2013-04-09 07:05:00,
2013-04-09 03:06:00,73.3,64.3,30.15,South,183,8.4,11.9,74,0.00,,---,0.00,VWS V14.01,2013-04-09 07:06:00,
2013-04-09 03:07:00,73.3,64.4,30.15,South,170,3.9,11.9,74,0.00,,---,0.00,VWS V14.01,2013-04-09 07:07:00,
2013-04-09 03:08:00,73.2,64.2,30.15,South,184,2.9,11.9,74,0.00,,---,0.00,VWS V14.01,2013-04-09 07:08:00,
2013-04-09 03:09:00,73.3,64.3,30.15,SSE,152,3.4,11.9,74,0.00,,---,0.00,VWS V14.01,2013-04-09 07:09:00,
2013-04-09 03:10:00,73.2,64.3,30.15,South,177,5.2,11.9,74,0.00,,---,0.00,VWS V14.01,2013-04-09 07:10:00,
2013-04-09 03:11:00,73.4,64.5,30.15,South,183,4.8,11.9,74,0.00,,---,0.00,VWS V14.01,2013-04-09 07:11:00,
2013-04-09 03:12:00,73.4,64.5,30.15,South,191,2.8,11.9,74,0.00,,---,0.00,VWS V14.01,2013-04-09 07:12:00,
2013-04-09 03:13:00,73.5,64.7,30.15,SSW,200,5.5,11.9,74,0.00,,---,0.00,VWS V14.01,2013-04-09 07:13:00,
2013-04-09 03:14:00,73.4,64.6,30.15,South,188,8.2,11.9,74,0.00,,---,0.00,VWS V14.01,2013-04-09 07:14:00,
2013-04-09 03:15:00,73.1,64.3,30.15,SSW,197,8.1,11.9,74,0.00,,---,0.00,VWS V14.01,2013-04-09 07:15:00,
2013-04-09 03:16:00,73.4,64.6,30.15,South,179,4.6,11.9,74,0.00,,---,0.00,VWS V14.01,2013-04-09 07:16:00,
2013-04-09 03:17:00,73.3,64.6,30.15,South,187,4.0,11.9,74,0.00,,---,0.00,VWS V14.01,2013-04-09 07:17:00,
2013-04-09 03:18:00,73.4,64.7,30.15,South,180,2.8,11.9,74,0.00,,---,0.00,VWS V14.01,2013-04-09 07:18:00,
2013-04-09 03:19:00,73.4,64.6,30.15,South,179,5.0,11.9,74,0.00,,---,0.00,VWS V14.01,2013-04-09 07:19:00,
2013-04-09 03:20:00,73.4,64.6,30.15,SSW,193,6.5,11.9,74,0.00,,---,0.00,VWS V14.01,2013-04-09 07:20:00,
2013-04-09 03:21:00,73.4,64.5,30.15,SW,214,2.1,11.9,74,0.00,,---,0.00,VWS V14.01,2013-04-09 07:21:00,
2013-04-09 03:22:00,73.4,64.5,30.15,SSW,197,5.6,11.9,74,0.00,,---,0.00,VWS V14.01,2013-04-09 07:22:00,
2013-04-09 03:23:00,73.4,64.5,30.14,South,190,6.0,11.9,74,0.00,,---,0.00,VWS V14.01,2013-04-09 07:23:00,
2013-04-09 03:24:00,73.3,64.4,30.15,South,176,3.7,11.9,74,0.00,,---,0.00,VWS V14.01,2013-04-09 07:24:00,
2013-04-09 03:25:00,73.3,64.4,30.15,South,172,6.1,11.9,74,0.00,,---,0.00,VWS V14.01,2013-04-09 07:25:00,
2013-04-09 03:26:00,73.3,64.4,30.15,South,184,2.3,11.9,74,0.00,,---,0.00,VWS V14.01,2013-04-09 07:26:00,
2013-04-09 03:27:00,73.3,64.4,30.15,South,177,5.0,11.9,74,0.00,,---,0.00,VWS V14.01,2013-04-09 07:27:00,
2013-04-09 03:28:00,73.3,64.3,30.15,SSW,198,5.4,11.9,74,0.00,,---,0.00,VWS V14.01,2013-04-09 07:28:00,
2013-04-09 03:29:00,73.4,64.4,30.15,South,180,4.2,11.9,73,0.00,,---,0.00,VWS V14.01,2013-04-09 07:29:00,
2013-04-09 03:30:00,73.2,64.2,30.15,South,173,2.8,11.9,74,0.00,,---,0.00,VWS V14.01,2013-04-09 07:30:00,
2013-04-09 03:31:00,73.3,64.3,30.15,South,180,4.5,11.9,73,0.00,,---,0.00,VWS V14.01,2013-04-09 07:31:00,
2013-04-09 03:32:00,73.2,64.2,30.15,SE,134,3.0,11.9,73,0.00,,---,0.00,VWS V14.01,2013-04-09 07:32:00,
2013-04-09 03:33:00,73.2,64.2,30.15,South,176,4.8,11.9,73,0.00,,---,0.00,VWS V14.01,2013-04-09 07:33:00,
2013-04-09 03:34:00,73.2,64.2,30.15,SSW,201,6.6,11.9,73,0.00,,---,0.00,VWS V14.01,2013-04-09 07:34:00,
2013-04-09 03:35:00,73.2,64.2,30.14,South,176,6.8,11.9,73,0.00,,---,0.00,VWS V14.01,2013-04-09 07:35:00,
2013-04-09 03:36:00,73.1,64.2,30.14,SSE,158,5.8,11.9,74,0.00,,---,0.00,VWS V14.01,2013-04-09 07:36:00,
2013-04-09 03:37:00,73.0,64.1,30.14,South,184,4.7,11.9,74,0.00,,---,0.00,VWS V14.01,2013-04-09 07:37:00,
2013-04-09 03:38:00,73.2,64.3,30.14,South,183,3.4,11.9,74,0.00,,---,0.00,VWS V14.01,2013-04-09 07:38:00,
2013-04-09 03:39:00,73.1,64.2,30.14,South,177,4.2,11.9,74,0.00,,---,0.00,VWS V14.01,2013-04-09 07:39:00,
2013-04-09 03:40:00,73.2,64.3,30.14,South,184,2.7,11.9,74,0.00,,---,0.00,VWS V14.01,2013-04-09 07:40:00,
2013-04-09 03:41:00,73.0,64.2,30.14,South,170,3.1,11.9,74,0.00,,---,0.00,VWS V14.01,2013-04-09 07:41:00,
2013-04-09 03:42:00,73.1,64.4,30.15,South,186,5.0,11.9,74,0.00,,---,0.00,VWS V14.01,2013-04-09 07:42:00,
2013-04-09 03:43:00,73.3,64.6,30.15,South,180,2.8,11.9,74,0.00,,---,0.00,VWS V14.01,2013-04-09 07:43:00,
2013-04-09 03:44:00,73.1,64.4,30.15,South,186,2.4,11.9,74,0.00,,---,0.00,VWS V14.01,2013-04-09 07:44:00,
2013-04-09 03:45:00,73.4,64.7,30.15,SSE,156,3.2,11.9,74,0.00,,---,0.00,VWS V14.01,2013-04-09 07:45:00,
2013-04-09 03:46:00,73.0,64.3,30.15,SSW,204,7.3,11.9,74,0.00,,---,0.00,VWS V14.01,2013-04-09 07:46:00,
2013-04-09 03:47:00,73.3,64.5,30.15,South,181,3.9,11.9,74,0.00,,---,0.00,VWS V14.01,2013-04-09 07:47:00,
2013-04-09 03:48:00,73.0,64.1,30.15,South,173,3.9,11.9,74,0.00,,---,0.00,VWS V14.01,2013-04-09 07:48:00,
2013-04-09 03:49:00,73.0,64.1,30.15,South,169,4.6,11.9,74,0.00,,---,0.00,VWS V14.01,2013-04-09 07:49:00,
2013-04-09 03:50:00,73.0,64.1,30.15,South,180,3.2,11.9,74,0.00,,---,0.00,VWS V14.01,2013-04-09 07:50:00,
2013-04-09 03:51:00,73.0,64.1,30.15,South,184,3.9,11.9,74,0.00,,---,0.00,VWS V14.01,2013-04-09 07:51:00,
2013-04-09 03:52:00,73.0,64.2,30.15,South,181,3.7,11.9,74,0.00,,---,0.00,VWS V14.01,2013-04-09 07:52:00,
2013-04-09 03:53:00,73.2,64.3,30.15,South,170,3.6,11.9,74,0.00,,---,0.00,VWS V14.01,2013-04-09 07:53:00,
2013-04-09 03:54:00,73.1,64.3,30.15,SSE,156,3.2,11.9,74,0.00,,---,0.00,VWS V14.01,2013-04-09 07:54:00,
2013-04-09 03:55:00,73.1,64.3,30.15,South,179,5.0,11.9,74,0.00,,---,0.00,VWS V14.01,2013-04-09 07:55:00,
2013-04-09 03:56:00,73.3,64.5,30.15,SSW,212,5.9,11.9,74,0.00,,---,0.00,VWS V14.01,2013-04-09 07:56:00,
2013-04-09 03:57:00,73.1,64.3,30.15,SSE,148,5.3,11.9,74,0.00,,---,0.00,VWS V14.01,2013-04-09 07:57:00,
2013-04-09 03:58:00,73.2,64.3,30.15,South,180,5.2,11.9,74,0.00,,---,0.00,VWS V14.01,2013-04-09 07:58:00,
2013-04-09 03:59:00,73.3,64.3,30.15,SSW,202,3.5,11.9,74,0.00,,---,0.00,VWS V14.01,2013-04-09 07:59:00,
2013-04-09 04:00:00,73.3,64.3,30.15,South,181,4.1,11.9,73,0.00,,---,0.00,VWS V14.01,2013-04-09 08:00:00,
2013-04-09 04:01:00,73.3,64.2,30.15,South,184,4.4,11.9,73,0.00,,---,0.00,VWS V14.01,2013-04-09 08:01:00,
2013-04-09 04:02:00,73.2,64.0,30.15,South,179,3.7,11.9,73,0.00,,---,0.00,VWS V14.01,2013-04-09 08:02:00,
2013-04-09 04:03:00,73.3,64.0,30.15,SSW,200,3.8,11.9,73,0.00,,---,0.00,VWS V14.01,2013-04-09 08:03:00,
2013-04-09 04:04:00,73.2,63.9,30.15,South,181,4.1,11.9,73,0.00,,---,0.00,VWS V14.01,2013-04-09 08:04:00,
2013-04-09 04:05:00,73.2,63.8,30.15,South,187,4.1,11.9,72,0.00,,---,0.00,VWS V14.01,2013-04-09 08:05:00,
2013-04-09 04:06:00,73.2,63.8,30.15,SW,226,4.8,11.9,72,0.00,,---,0.00,VWS V14.01,2013-04-09 08:06:00,
2013-04-09 04:07:00,73.4,64.0,30.15,SSW,201,6.8,11.9,72,0.00,,---,0.00,VWS V14.01,2013-04-09 08:07:00,
2013-04-09 04:08:00,73.3,63.8,30.15,SSE,155,5.2,11.9,72,0.00,,---,0.00,VWS V14.01,2013-04-09 08:08:00,
2013-04-09 04:09:00,73.4,63.9,30.15,SSW,198,4.5,11.9,72,0.00,,---,0.00,VWS V14.01,2013-04-09 08:09:00,
2013-04-09 04:10:00,73.4,63.9,30.15,SSW,198,3.7,11.9,72,0.00,,---,0.00,VWS V14.01,2013-04-09 08:10:00,
2013-04-09 04:11:00,73.5,64.0,30.15,SSW,198,3.4,11.9,72,0.00,,---,0.00,VWS V14.01,2013-04-09 08:11:00,
2013-04-09 04:12:00,73.6,64.1,30.15,SSW,194,4.5,11.9,72,0.00,,---,0.00,VWS V14.01,2013-04-09 08:12:00,
2013-04-09 04:13:00,73.5,64.1,30.15,South,187,4.0,11.9,72,0.00,,---,0.00,VWS V14.01,2013-04-09 08:13:00,
2013-04-09 04:14:00,73.5,64.2,30.15,South,187,6.6,11.9,73,0.00,,---,0.00,VWS V14.01,2013-04-09 08:14:00,
2013-04-09 04:15:00,73.5,64.2,30.15,South,177,4.5,11.9,73,0.00,,---,0.00,VWS V14.01,2013-04-09 08:15:00,
2013-04-09 04:16:00,73.5,64.2,30.15,SSE,149,3.2,11.9,73,0.00,,---,0.00,VWS V14.01,2013-04-09 08:16:00,
2013-04-09 04:17:00,73.5,64.3,30.15,SSW,211,5.8,11.9,73,0.00,,---,0.00,VWS V14.01,2013-04-09 08:17:00,
2013-04-09 04:18:00,73.8,64.6,30.15,SSW,207,5.6,11.9,73,0.00,,---,0.00,VWS V14.01,2013-04-09 08:18:00,
2013-04-09 04:19:00,73.7,64.5,30.15,South,188,3.4,11.9,73,0.00,,---,0.00,VWS V14.01,2013-04-09 08:19:00,
2013-04-09 04:20:00,73.7,64.6,30.15,South,187,3.2,11.9,73,0.00,,---,0.00,VWS V14.01,2013-04-09 08:20:00,
2013-04-09 04:21:00,73.6,64.6,30.15,South,180,6.0,11.9,73,0.00,,---,0.00,VWS V14.01,2013-04-09 08:21:00,
2013-04-09 04:22:00,73.8,64.8,30.15,South,170,7.8,11.9,73,0.00,,---,0.00,VWS V14.01,2013-04-09 08:22:00,
2013-04-09 04:23:00,73.9,64.9,30.15,SSE,165,6.3,11.9,74,0.00,,---,0.00,VWS V14.01,2013-04-09 08:23:00,
2013-04-09 04:24:00,73.6,64.7,30.15,SSE,163,7.0,11.9,74,0.00,,---,0.00,VWS V14.01,2013-04-09 08:24:00,
2013-04-09 04:25:00,73.8,64.8,30.15,South,186,3.7,11.9,74,0.00,,---,0.00,VWS V14.01,2013-04-09 08:25:00,
2013-04-09 04:26:00,73.6,64.7,30.16,South,184,3.6,11.9,74,0.00,,---,0.00,VWS V14.01,2013-04-09 08:26:00,
2013-04-09 04:27:00,73.7,64.8,30.15,South,187,4.7,11.9,74,0.00,,---,0.00,VWS V14.01,2013-04-09 08:27:00,
2013-04-09 04:28:00,73.7,64.7,30.15,SSW,201,7.5,11.9,74,0.00,,---,0.00,VWS V14.01,2013-04-09 08:28:00,
2013-04-09 04:29:00,73.8,64.8,30.16,SSW,205,5.1,11.9,73,0.00,,---,0.00,VWS V14.01,2013-04-09 08:29:00,
2013-04-09 04:30:00,73.7,64.6,30.15,South,190,8.7,11.9,73,0.00,,---,0.00,VWS V14.01,2013-04-09 08:30:00,
2013-04-09 04:31:00,73.7,64.6,30.16,SSW,210,6.6,11.9,73,0.00,,---,0.00,VWS V14.01,2013-04-09 08:31:00,
2013-04-09 04:32:00,73.7,64.5,30.16,South,172,3.7,11.9,73,0.00,,---,0.00,VWS V14.01,2013-04-09 08:32:00,
2013-04-09 04:33:00,73.6,64.4,30.16,South,191,3.8,11.9,73,0.00,,---,0.00,VWS V14.01,2013-04-09 08:33:00,
2013-04-09 04:34:00,73.7,64.5,30.16,South,176,3.4,11.9,73,0.00,,---,0.00,VWS V14.01,2013-04-09 08:34:00,
2013-04-09 04:35:00,73.7,64.4,30.16,South,174,4.2,11.9,73,0.00,,---,0.00,VWS V14.01,2013-04-09 08:35:00,
2013-04-09 04:36:00,73.7,64.4,30.16,South,186,3.1,11.9,73,0.00,,---,0.00,VWS V14.01,2013-04-09 08:36:00,
2013-04-09 04:37:00,73.9,64.6,30.16,SSW,193,5.3,11.9,73,0.00,,---,0.00,VWS V14.01,2013-04-09 08:37:00,
2013-04-09 04:38:00,73.7,64.4,30.16,SSW,193,2.9,11.9,73,0.00,,---,0.00,VWS V14.01,2013-04-09 08:38:00,
2013-04-09 04:39:00,73.7,64.4,30.16,SSW,193,5.8,11.9,73,0.00,,---,0.00,VWS V14.01,2013-04-09 08:39:00,
2013-04-09 04:40:00,73.6,64.3,30.16,SSW,202,6.6,11.9,73,0.00,,---,0.00,VWS V14.01,2013-04-09 08:40:00,
2013-04-09 04:41:00,73.7,64.4,30.16,South,181,5.0,11.9,73,0.00,,---,0.00,VWS V14.01,2013-04-09 08:41:00,
2013-04-09 04:42:00,73.8,64.5,30.16,South,177,3.4,11.9,73,0.00,,---,0.00,VWS V14.01,2013-04-09 08:42:00,
2013-04-09 04:43:00,73.8,64.5,30.16,South,183,5.7,11.9,73,0.00,,---,0.00,VWS V14.01,2013-04-09 08:43:00,
2013-04-09 04:44:00,73.7,64.4,30.16,SSW,197,9.2,11.9,73,0.00,,---,0.00,VWS V14.01,2013-04-09 08:44:00,
2013-04-09 04:45:00,73.8,64.5,30.16,WSW,252,2.1,11.9,73,0.00,,---,0.00,VWS V14.01,2013-04-09 08:45:00,
2013-04-09 04:46:00,73.7,64.4,30.16,South,188,4.7,11.9,73,0.00,,---,0.00,VWS V14.01,2013-04-09 08:46:00,
2013-04-09 04:47:00,73.8,64.5,30.16,SSW,198,7.5,11.9,73,0.00,,---,0.00,VWS V14.01,2013-04-09 08:47:00,
2013-04-09 04:48:00,73.8,64.5,30.16,South,177,3.6,11.9,73,0.00,,---,0.00,VWS V14.01,2013-04-09 08:48:00,
2013-04-09 04:49:00,73.8,64.5,30.16,SSW,197,5.0,11.9,73,0.00,,---,0.00,VWS V14.01,2013-04-09 08:49:00,
2013-04-09 04:50:00,73.7,64.5,30.16,South,180,4.8,11.9,73,0.00,,---,0.00,VWS V14.01,2013-04-09 08:50:00,
2013-04-09 04:51:00,73.9,64.7,30.16,SSW,210,2.5,11.9,73,0.00,,---,0.00,VWS V14.01,2013-04-09 08:51:00,
2013-04-09 04:52:00,73.6,64.4,30.16,SSW,198,2.9,11.9,73,0.00,,---,0.00,VWS V14.01,2013-04-09 08:52:00,
2013-04-09 04:53:00,73.6,64.2,30.17,SSW,194,4.5,11.9,72,0.00,,---,0.00,VWS V14.01,2013-04-09 08:53:00,
2013-04-09 04:54:00,73.9,64.5,30.17,SSW,198,4.4,11.9,72,0.00,,---,0.00,VWS V14.01,2013-04-09 08:54:00,
2013-04-09 04:55:00,73.8,64.4,30.17,South,179,3.0,11.9,72,0.00,,---,0.00,VWS V14.01,2013-04-09 08:55:00,
2013-04-09 04:56:00,73.7,64.3,30.17,SSW,205,4.4,11.9,72,0.00,,---,0.00,VWS V14.01,2013-04-09 08:56:00,
2013-04-09 04:57:00,73.6,64.2,30.17,SSW,207,8.9,11.9,72,0.00,,---,0.00,VWS V14.01,2013-04-09 08:57:00,
2013-04-09 04:58:00,73.7,64.5,30.17,South,176,4.0,11.9,73,0.00,,---,0.00,VWS V14.01,2013-04-09 08:58:00,
2013-04-09 04:59:00,73.6,64.5,30.17,South,176,3.3,11.9,73,0.00,,---,0.00,VWS V14.01,2013-04-09 08:59:00,
2013-04-09 05:00:00,73.7,64.6,30.17,SSW,195,5.0,11.9,73,0.00,,---,0.00,VWS V14.01,2013-04-09 09:00:00,
2013-04-09 05:01:00,73.7,64.7,30.16,South,181,3.9,11.9,74,0.00,,---,0.00,VWS V14.01,2013-04-09 09:01:00,
2013-04-09 05:02:00,73.8,64.9,30.16,SW,217,4.3,11.9,74,0.00,,---,0.00,VWS V14.01,2013-04-09 09:02:00,
2013-04-09 05:03:00,73.7,64.7,30.16,South,179,4.3,11.9,74,0.00,,---,0.00,VWS V14.01,2013-04-09 09:03:00,
2013-04-09 05:04:00,73.9,64.9,30.17,South,187,6.3,11.9,74,0.00,,---,0.00,VWS V14.01,2013-04-09 09:04:00,
2013-04-09 05:05:00,73.7,64.8,30.17,South,181,3.3,11.9,74,0.00,,---,0.00,VWS V14.01,2013-04-09 09:05:00,
2013-04-09 05:06:00,73.8,64.8,30.17,SW,215,3.4,11.9,74,0.00,,---,0.00,VWS V14.01,2013-04-09 09:06:00,
2013-04-09 05:07:00,73.9,64.9,30.17,SSW,208,4.9,11.9,73,0.00,,---,0.00,VWS V14.01,2013-04-09 09:07:00,
2013-04-09 05:08:00,73.8,64.8,30.17,SSW,201,4.0,11.9,73,0.00,,---,0.00,VWS V14.01,2013-04-09 09:08:00,
2013-04-09 05:09:00,73.8,64.7,30.17,SSW,211,5.9,11.9,73,0.00,,---,0.00,VWS V14.01,2013-04-09 09:09:00,
2013-04-09 05:10:00,73.7,64.6,30.17,South,179,6.7,11.9,73,0.00,,---,0.00,VWS V14.01,2013-04-09 09:10:00,
2013-04-09 05:11:00,73.7,64.6,30.17,South,176,3.7,11.9,73,0.00,,---,0.00,VWS V14.01,2013-04-09 09:11:00,
2013-04-09 05:12:00,73.9,64.8,30.17,South,191,5.1,11.9,73,0.00,,---,0.00,VWS V14.01,2013-04-09 09:12:00,
2013-04-09 05:13:00,73.8,64.7,30.17,SW,214,6.0,11.9,73,0.00,,---,0.00,VWS V14.01,2013-04-09 09:13:00,
2013-04-09 05:14:00,73.7,64.6,30.17,SSW,205,6.8,11.9,73,0.00,,---,0.00,VWS V14.01,2013-04-09 09:14:00,
2013-04-09 05:15:00,73.7,64.6,30.17,SSW,210,3.3,11.9,73,0.00,,---,0.00,VWS V14.01,2013-04-09 09:15:00,
2013-04-09 05:16:00,73.8,64.7,30.17,South,184,8.5,11.9,73,0.00,,---,0.00,VWS V14.01,2013-04-09 09:16:00,
2013-04-09 05:17:00,73.8,64.7,30.17,SSW,200,6.1,11.9,73,0.00,,---,0.00,VWS V14.01,2013-04-09 09:17:00,
2013-04-09 05:18:00,73.9,65.0,30.17,SSW,198,9.8,11.9,74,0.00,,---,0.00,VWS V14.01,2013-04-09 09:18:00,
2013-04-09 05:19:00,74.0,65.1,30.17,South,183,4.2,11.9,74,0.00,,---,0.00,VWS V14.01,2013-04-09 09:19:00,
2013-04-09 05:20:00,73.8,65.0,30.17,SSE,155,3.5,11.9,74,0.00,,---,0.00,VWS V14.01,2013-04-09 09:20:00,
2013-04-09 05:21:00,73.9,65.1,30.17,South,176,3.6,11.9,74,0.00,,---,0.00,VWS V14.01,2013-04-09 09:21:00,
2013-04-09 05:22:00,73.9,65.2,30.17,SSW,201,5.0,11.9,74,0.00,,---,0.00,VWS V14.01,2013-04-09 09:22:00,
2013-04-09 05:23:00,74.1,65.4,30.17,SSW,193,5.8,11.9,74,0.00,,---,0.00,VWS V14.01,2013-04-09 09:23:00,
2013-04-09 05:24:00,73.9,65.2,30.17,South,173,4.4,11.9,74,0.00,,---,0.00,VWS V14.01,2013-04-09 09:24:00,
2013-04-09 05:25:00,73.9,65.2,30.17,South,169,3.2,11.9,74,0.00,,---,0.00,VWS V14.01,2013-04-09 09:25:00,
2013-04-09 05:26:00,74.0,65.4,30.17,SSW,208,5.7,11.9,74,0.00,,---,0.00,VWS V14.01,2013-04-09 09:26:00,
2013-04-09 05:27:00,73.9,65.3,30.17,South,190,6.3,11.9,75,0.00,,---,0.00,VWS V14.01,2013-04-09 09:27:00,
2013-04-09 05:28:00,73.8,65.2,30.17,South,186,6.4,11.9,75,0.00,,---,0.00,VWS V14.01,2013-04-09 09:28:00,
2013-04-09 05:29:00,73.7,65.1,30.17,South,184,2.8,11.9,74,0.00,,---,0.00,VWS V14.01,2013-04-09 09:29:00,
2013-04-09 05:30:00,73.6,65.0,30.18,SSW,201,6.2,11.9,74,0.00,,---,0.00,VWS V14.01,2013-04-09 09:30:00,
2013-04-09 05:31:00,73.9,65.2,30.17,South,183,8.6,11.9,74,0.00,,---,0.00,VWS V14.01,2013-04-09 09:31:00,
2013-04-09 05:32:00,73.9,65.4,30.17,SSW,211,5.2,11.9,75,0.00,,---,0.00,VWS V14.01,2013-04-09 09:32:00,
2013-04-09 05:33:00,73.8,65.2,30.18,South,183,6.0,11.9,75,0.00,,---,0.00,VWS V14.01,2013-04-09 09:33:00,
2013-04-09 05:34:00,73.8,65.2,30.18,South,172,4.7,11.9,75,0.00,,---,0.00,VWS V14.01,2013-04-09 09:34:00,
2013-04-09 05:35:00,73.9,65.4,30.18,South,183,4.4,11.9,75,0.00,,---,0.00,VWS V14.01,2013-04-09 09:35:00,
2013-04-09 05:36:00,73.8,65.3,30.17,South,190,5.5,11.9,75,0.00,,---,0.00,VWS V14.01,2013-04-09 09:36:00,
2013-04-09 05:37:00,73.8,65.3,30.18,South,187,5.7,11.9,75,0.00,,---,0.00,VWS V14.01,2013-04-09 09:37:00,
2013-04-09 05:38:00,73.8,65.3,30.17,SSW,198,4.3,11.9,75,0.00,,---,0.00,VWS V14.01,2013-04-09 09:38:00,
2013-04-09 05:39:00,73.9,65.5,30.17,South,190,5.2,11.9,75,0.00,,---,0.00,VWS V14.01,2013-04-09 09:39:00,
2013-04-09 05:40:00,73.7,65.2,30.17,SSW,202,5.3,11.9,75,0.00,,---,0.00,VWS V14.01,2013-04-09 09:40:00,
2013-04-09 05:41:00,73.8,65.4,30.18,SSW,194,5.5,11.9,75,0.00,,---,0.00,VWS V14.01,2013-04-09 09:41:00,
2013-04-09 05:42:00,73.9,65.5,30.17,SSW,198,4.7,11.9,75,0.00,,---,0.00,VWS V14.01,2013-04-09 09:42:00,
2013-04-09 05:43:00,73.7,65.3,30.18,SSE,155,4.8,11.9,75,0.00,,---,0.00,VWS V14.01,2013-04-09 09:43:00,
2013-04-09 05:44:00,73.8,65.4,30.18,SSE,162,3.1,11.9,75,0.00,,---,0.00,VWS V14.01,2013-04-09 09:44:00,
2013-04-09 05:45:00,73.6,65.2,30.18,South,191,4.5,11.9,75,0.00,,---,0.00,VWS V14.01,2013-04-09 09:45:00,
2013-04-09 05:46:00,73.7,65.3,30.18,SSW,202,6.3,11.9,75,0.00,,---,0.00,VWS V14.01,2013-04-09 09:46:00,
2013-04-09 05:47:00,73.8,65.4,30.18,SSW,202,6.5,11.9,75,0.00,,---,0.00,VWS V14.01,2013-04-09 09:47:00,
2013-04-09 05:48:00,73.9,65.5,30.18,South,190,5.8,11.9,75,0.00,,---,0.00,VWS V14.01,2013-04-09 09:48:00,
2013-04-09 05:49:00,73.6,65.3,30.18,South,180,4.7,11.9,75,0.00,,---,0.00,VWS V14.01,2013-04-09 09:49:00,
2013-04-09 05:50:00,73.8,65.5,30.18,SSW,195,4.2,11.9,75,0.00,,---,0.00,VWS V14.01,2013-04-09 09:50:00,
2013-04-09 05:51:00,73.7,65.4,30.18,SW,225,4.2,11.9,75,0.00,,---,0.00,VWS V14.01,2013-04-09 09:51:00,
2013-04-09 05:52:00,73.8,65.5,30.18,South,174,4.0,11.9,75,0.00,,---,0.00,VWS V14.01,2013-04-09 09:52:00,
2013-04-09 05:53:00,73.8,65.6,30.18,SSW,194,4.8,11.9,76,0.00,,---,0.00,VWS V14.01,2013-04-09 09:53:00,
2013-04-09 05:54:00,73.8,65.5,30.18,SSW,201,4.5,11.9,75,0.00,,---,0.00,VWS V14.01,2013-04-09 09:54:00,
2013-04-09 05:55:00,73.8,65.5,30.18,South,187,7.0,11.9,75,0.00,,---,0.00,VWS V14.01,2013-04-09 09:55:00,
2013-04-09 05:56:00,73.7,65.5,30.18,SSW,201,6.0,11.9,76,0.00,,---,0.00,VWS V14.01,2013-04-09 09:56:00,
2013-04-09 05:57:00,73.7,65.4,30.18,South,169,4.0,11.9,75,0.00,,---,0.00,VWS V14.01,2013-04-09 09:57:00,
2013-04-09 05:58:00,73.6,65.3,30.18,South,186,4.1,11.9,75,0.00,,---,0.00,VWS V14.01,2013-04-09 09:58:00,
2013-04-09 05:59:00,73.8,65.6,30.18,ESE,120,3.4,11.9,76,0.00,,---,0.00,VWS V14.01,2013-04-09 09:59:00,
2013-04-09 06:00:00,73.8,65.7,30.18,SSW,198,6.6,11.9,76,0.00,,---,0.00,VWS V14.01,2013-04-09 10:00:00,
2013-04-09 06:01:00,73.7,65.7,30.18,SSE,165,5.2,11.9,76,0.00,,---,0.00,VWS V14.01,2013-04-09 10:01:00,
2013-04-09 06:02:00,73.7,65.8,30.18,South,186,7.8,11.9,76,0.00,,---,0.00,VWS V14.01,2013-04-09 10:02:00,
2013-04-09 06:03:00,73.8,65.8,30.18,SSE,150,3.2,11.9,76,0.00,,---,0.00,VWS V14.01,2013-04-09 10:03:00,
2013-04-09 06:04:00,73.7,65.8,30.18,South,176,7.8,11.9,76,0.00,,---,0.00,VWS V14.01,2013-04-09 10:04:00,
2013-04-09 06:05:00,73.7,65.8,30.18,South,186,6.0,11.9,76,0.00,,---,0.00,VWS V14.01,2013-04-09 10:05:00,
2013-04-09 06:06:00,73.7,65.8,30.18,SSE,158,3.2,11.9,76,0.00,,---,0.00,VWS V14.01,2013-04-09 10:06:00,
2013-04-09 06:07:00,73.7,65.8,30.18,SSW,205,7.5,11.9,76,0.00,,---,0.00,VWS V14.01,2013-04-09 10:07:00,
2013-04-09 06:08:00,73.6,65.7,30.18,South,181,5.8,11.9,76,0.00,,---,0.00,VWS V14.01,2013-04-09 10:08:00,
2013-04-09 06:09:00,73.5,65.5,30.18,South,170,7.9,11.9,76,0.00,,---,0.00,VWS V14.01,2013-04-09 10:09:00,
2013-04-09 06:10:00,73.5,65.4,30.18,SSW,194,4.4,11.9,76,0.00,,---,0.00,VWS V14.01,2013-04-09 10:10:00,
2013-04-09 06:11:00,73.6,65.5,30.18,SSE,156,6.9,11.9,76,0.00,,---,0.00,VWS V14.01,2013-04-09 10:11:00,
2013-04-09 06:12:00,73.6,65.5,30.18,SE,143,5.1,11.9,76,0.00,,---,0.00,VWS V14.01,2013-04-09 10:12:00,
2013-04-09 06:13:00,73.6,65.4,30.18,South,188,3.1,11.9,76,0.00,,---,0.00,VWS V14.01,2013-04-09 10:13:00,
2013-04-09 06:14:00,73.6,65.4,30.18,South,172,6.3,11.9,76,0.00,,---,0.00,VWS V14.01,2013-04-09 10:14:00,
2013-04-09 06:15:00,73.5,65.3,30.18,SE,132,3.2,11.9,76,0.00,,---,0.00,VWS V14.01,2013-04-09 10:15:00,
2013-04-09 06:16:00,73.4,65.3,30.18,ESE,121,5.3,11.9,76,0.00,,---,0.00,VWS V14.01,2013-04-09 10:16:00,
2013-04-09 06:17:00,73.4,65.3,30.18,South,169,6.9,12.0,76,0.00,,---,0.00,VWS V14.01,2013-04-09 10:17:00,
2013-04-09 06:18:00,73.4,65.3,30.18,SSW,198,10.1,12.0,76,0.00,,---,0.00,VWS V14.01,2013-04-09 10:18:00,
2013-04-09 06:19:00,73.6,65.5,30.18,South,190,7.8,12.0,76,0.00,,---,0.00,VWS V14.01,2013-04-09 10:19:00,
2013-04-09 06:20:00,73.8,65.7,30.18,SSW,197,4.6,12.0,76,0.00,,---,0.00,VWS V14.01,2013-04-09 10:20:00,
2013-04-09 06:21:00,73.6,65.5,30.18,South,183,5.0,12.0,76,0.00,,---,0.00,VWS V14.01,2013-04-09 10:21:00,
2013-04-09 06:22:00,73.8,65.7,30.18,South,179,4.4,12.0,76,0.00,,---,0.00,VWS V14.01,2013-04-09 10:22:00,
2013-04-09 06:23:00,73.6,65.6,30.18,South,183,4.1,12.0,76,0.00,,---,0.00,VWS V14.01,2013-04-09 10:23:00,
2013-04-09 06:24:00,73.7,65.7,30.18,SSW,205,7.5,12.0,76,0.00,,---,0.00,VWS V14.01,2013-04-09 10:24:00,
2013-04-09 06:25:00,73.6,65.6,30.18,South,191,6.9,12.0,76,0.00,,---,0.00,VWS V14.01,2013-04-09 10:25:00,
2013-04-09 06:26:00,73.6,65.6,30.18,SSW,204,4.2,12.0,76,0.00,,---,0.00,VWS V14.01,2013-04-09 10:26:00,
2013-04-09 06:27:00,73.7,65.6,30.18,SSW,193,6.9,12.0,76,0.00,,---,0.00,VWS V14.01,2013-04-09 10:27:00,
2013-04-09 06:28:00,73.8,65.7,30.18,South,174,3.5,12.0,76,0.00,,---,0.00,VWS V14.01,2013-04-09 10:28:00,
2013-04-09 06:29:00,73.9,65.8,30.18,South,174,6.6,12.0,76,0.00,,---,0.00,VWS V14.01,2013-04-09 10:29:00,
2013-04-09 06:30:00,73.8,65.7,30.18,SSE,166,6.9,12.0,76,0.00,,---,0.00,VWS V14.01,2013-04-09 10:30:00,
2013-04-09 06:31:00,73.8,65.5,30.18,South,183,5.5,12.0,75,0.00,,---,0.00,VWS V14.01,2013-04-09 10:31:00,
2013-04-09 06:32:00,73.8,65.5,30.19,South,173,6.4,12.0,75,0.00,,---,0.00,VWS V14.01,2013-04-09 10:32:00,
2013-04-09 06:33:00,73.8,65.4,30.18,South,188,5.3,12.0,75,0.00,,---,0.00,VWS V14.01,2013-04-09 10:33:00,
2013-04-09 06:34:00,73.7,65.3,30.18,South,172,5.4,12.0,75,0.00,,---,0.00,VWS V14.01,2013-04-09 10:34:00,
2013-04-09 06:35:00,73.6,65.2,30.18,South,179,4.9,12.0,75,0.00,,---,0.00,VWS V14.01,2013-04-09 10:35:00,
2013-04-09 06:36:00,73.9,65.5,30.18,SE,134,4.4,12.0,75,0.00,,---,0.00,VWS V14.01,2013-04-09 10:36:00,
2013-04-09 06:37:00,73.8,65.3,30.18,SSE,159,4.5,12.0,75,0.00,,---,0.00,VWS V14.01,2013-04-09 10:37:00,
2013-04-09 06:38:00,73.8,65.3,30.18,South,176,6.8,12.0,75,0.00,,---,0.00,VWS V14.01,2013-04-09 10:38:00,
2013-04-09 06:39:00,73.7,65.1,30.18,South,180,10.3,12.1,74,0.00,,---,0.00,VWS V14.01,2013-04-09 10:39:00,
2013-04-09 06:40:00,73.7,65.1,30.18,South,179,7.1,12.1,74,0.00,,---,0.00,VWS V14.01,2013-04-09 10:40:00,
2013-04-09 06:41:00,74.0,65.2,30.18,SW,235,6.3,12.2,74,0.00,,---,0.00,VWS V14.01,2013-04-09 10:41:00,
2013-04-09 06:42:00,74.0,65.2,30.19,SSW,200,6.8,12.2,74,0.00,,---,0.00,VWS V14.01,2013-04-09 10:42:00,
2013-04-09 06:43:00,73.9,65.0,30.19,South,186,6.9,12.2,74,0.00,,---,0.00,VWS V14.01,2013-04-09 10:43:00,
2013-04-09 06:44:00,74.1,65.2,30.19,South,187,7.5,12.2,74,0.00,,---,0.00,VWS V14.01,2013-04-09 10:44:00,
2013-04-09 06:45:00,74.0,65.1,30.19,SE,135,4.2,12.2,74,0.00,,---,0.00,VWS V14.01,2013-04-09 10:45:00,
2013-04-09 06:46:00,74.1,65.1,30.19,South,184,4.7,12.2,74,0.00,,---,0.00,VWS V14.01,2013-04-09 10:46:00,
2013-04-09 06:47:00,74.2,65.2,30.19,SE,132,5.8,12.2,74,0.00,,---,0.00,VWS V14.01,2013-04-09 10:47:00,
2013-04-09 06:48:00,74.4,65.4,30.19,South,188,6.0,12.2,74,0.00,,---,0.00,VWS V14.01,2013-04-09 10:48:00,
2013-04-09 06:49:00,74.3,65.3,30.19,SSW,202,3.3,12.2,74,0.00,,---,0.00,VWS V14.01,2013-04-09 10:49:00,
2013-04-09 06:50:00,74.5,65.5,30.19,South,188,3.1,12.2,74,0.00,,---,0.00,VWS V14.01,2013-04-09 10:50:00,
2013-04-09 06:51:00,74.4,65.4,30.19,SSW,197,12.7,12.7,74,0.00,,---,0.00,VWS V14.01,2013-04-09 10:51:00,
2013-04-09 06:52:00,74.4,65.3,30.19,South,183,4.8,12.7,73,0.00,,---,0.00,VWS V14.01,2013-04-09 10:52:00,
2013-04-09 06:53:00,74.4,65.2,30.19,South,188,6.3,12.7,73,0.00,,---,0.00,VWS V14.01,2013-04-09 10:53:00,
2013-04-09 06:54:00,74.4,65.1,30.19,South,183,6.5,12.7,73,0.00,,---,0.00,VWS V14.01,2013-04-09 10:54:00,
2013-04-09 06:55:00,74.6,65.4,30.19,SW,222,2.2,12.7,73,0.00,,---,0.00,VWS V14.01,2013-04-09 10:55:00,
2013-04-09 06:56:00,74.7,65.5,30.19,SSW,194,5.5,12.7,73,0.00,,---,0.00,VWS V14.01,2013-04-09 10:56:00,
2013-04-09 06:57:00,74.8,65.5,30.19,SE,131,5.9,12.7,73,0.00,,---,0.00,VWS V14.01,2013-04-09 10:57:00,
2013-04-09 06:58:00,74.8,65.2,30.19,SSE,152,6.3,12.7,72,0.00,,---,0.00,VWS V14.01,2013-04-09 10:58:00,
2013-04-09 06:59:00,74.7,64.9,30.19,South,179,5.9,12.7,72,0.00,,---,0.00,VWS V14.01,2013-04-09 10:59:00,
2013-04-09 07:00:00,74.8,65.0,30.19,South,173,7.0,12.7,72,0.00,,---,0.00,VWS V14.01,2013-04-09 11:00:00,
2013-04-09 07:01:00,74.9,65.0,30.20,SSW,210,7.9,14.5,71,0.00,,---,0.00,VWS V14.01,2013-04-09 11:01:00,
2013-04-09 07:02:00,74.8,65.0,30.20,South,184,6.0,14.5,72,0.00,,---,0.00,VWS V14.01,2013-04-09 11:02:00,
2013-04-09 07:03:00,74.8,64.9,30.19,SSE,153,7.4,14.5,71,0.00,,---,0.00,VWS V14.01,2013-04-09 11:03:00,
2013-04-09 07:04:00,74.8,64.8,30.19,SSW,201,8.5,14.7,71,0.00,,---,0.00,VWS V14.01,2013-04-09 11:04:00,
2013-04-09 07:05:00,74.9,65.0,30.19,SSE,153,8.3,14.7,71,0.00,,---,0.00,VWS V14.01,2013-04-09 11:05:00,
2013-04-09 07:06:00,74.9,65.1,30.19,South,187,8.5,14.7,72,0.00,,---,0.00,VWS V14.01,2013-04-09 11:06:00,
2013-04-09 07:07:00,74.9,65.2,30.19,SSW,200,6.9,14.7,72,0.00,,---,0.00,VWS V14.01,2013-04-09 11:07:00,
2013-04-09 07:08:00,74.8,65.1,30.19,SSW,195,5.3,14.7,72,0.00,,---,0.00,VWS V14.01,2013-04-09 11:08:00,
2013-04-09 07:09:00,74.9,65.0,30.19,South,180,10.9,14.7,71,0.00,,---,0.00,VWS V14.01,2013-04-09 11:09:00,
2013-04-09 07:10:00,74.9,65.0,30.19,South,177,6.5,14.7,71,0.00,,---,0.00,VWS V14.01,2013-04-09 11:10:00,
2013-04-09 07:11:00,75.1,65.1,30.19,SSW,201,7.6,14.7,71,0.00,,---,0.00,VWS V14.01,2013-04-09 11:11:00,
2013-04-09 07:12:00,74.7,64.6,30.19,South,172,8.6,14.7,71,0.00,,---,0.00,VWS V14.01,2013-04-09 11:12:00,
2013-04-09 07:13:00,74.8,64.5,30.19,South,187,6.1,14.7,70,0.00,,---,0.00,VWS V14.01,2013-04-09 11:13:00,
2013-04-09 07:14:00,74.7,64.4,30.19,SSW,197,5.9,14.7,70,0.00,,---,0.00,VWS V14.01,2013-04-09 11:14:00,
2013-04-09 07:15:00,75.0,64.7,30.19,SSW,201,11.7,14.7,70,0.00,,---,0.00,VWS V14.01,2013-04-09 11:15:00,
2013-04-09 07:16:00,74.9,64.6,30.19,South,173,6.0,14.7,70,0.00,,---,0.00,VWS V14.01,2013-04-09 11:16:00,
2013-04-09 07:17:00,75.1,64.8,30.19,South,191,6.0,14.7,70,0.00,,---,0.00,VWS V14.01,2013-04-09 11:17:00,
2013-04-09 07:18:00,75.1,64.7,30.19,South,172,5.8,14.7,70,0.00,,---,0.00,VWS V14.01,2013-04-09 11:18:00,
2013-04-09 07:19:00,75.1,64.7,30.19,South,180,8.5,14.7,70,0.00,,---,0.00,VWS V14.01,2013-04-09 11:19:00,
2013-04-09 07:20:00,75.3,64.9,30.19,South,191,6.8,14.7,70,0.00,,---,0.00,VWS V14.01,2013-04-09 11:20:00,
2013-04-09 07:21:00,75.2,64.8,30.19,SSE,167,7.1,14.7,70,0.00,,---,0.00,VWS V14.01,2013-04-09 11:21:00,
2013-04-09 07:22:00,75.2,64.8,30.19,South,187,6.2,14.7,70,0.00,,---,0.00,VWS V14.01,2013-04-09 11:22:00,
2013-04-09 07:23:00,75.4,64.9,30.19,WSW,240,4.8,14.7,70,0.00,,---,0.00,VWS V14.01,2013-04-09 11:23:00,
2013-04-09 07:24:00,75.3,64.8,30.19,South,181,10.8,14.7,70,0.00,,---,0.00,VWS V14.01,2013-04-09 11:24:00,
2013-04-09 07:25:00,75.4,65.0,30.20,South,177,3.7,14.7,70,0.00,,---,0.00,VWS V14.01,2013-04-09 11:25:00,
2013-04-09 07:26:00,75.3,64.9,30.20,South,183,6.5,14.7,70,0.00,,---,0.00,VWS V14.01,2013-04-09 11:26:00,
2013-04-09 07:27:00,75.4,65.1,30.20,South,191,7.3,14.7,70,0.00,,---,0.00,VWS V14.01,2013-04-09 11:27:00,
2013-04-09 07:28:00,75.3,64.9,30.20,SSW,195,7.6,14.7,70,0.00,,---,0.00,VWS V14.01,2013-04-09 11:28:00,
2013-04-09 07:29:00,75.4,65.1,30.20,SSE,162,5.5,14.7,70,0.00,,---,0.00,VWS V14.01,2013-04-09 11:29:00,
2013-04-09 07:30:00,75.3,64.9,30.20,South,181,7.9,14.7,70,0.00,,---,0.00,VWS V14.01,2013-04-09 11:30:00,
2013-04-09 07:31:00,75.4,64.9,30.20,SSE,158,4.3,14.7,70,0.00,,---,0.00,VWS V14.01,2013-04-09 11:31:00,
2013-04-09 07:32:00,75.2,64.6,30.20,South,183,13.0,14.7,70,0.00,,---,0.00,VWS V14.01,2013-04-09 11:32:00,
2013-04-09 07:33:00,75.3,64.6,30.20,SSW,210,8.3,14.7,69,0.00,,---,0.00,VWS V14.01,2013-04-09 11:33:00,
2013-04-09 07:34:00,75.1,64.5,30.20,South,179,6.3,14.7,70,0.00,,---,0.00,VWS V14.01,2013-04-09 11:34:00,
2013-04-09 07:35:00,75.1,64.4,30.20,South,191,10.5,14.7,69,0.00,,---,0.00,VWS V14.01,2013-04-09 11:35:00,
2013-04-09 07:36:00,75.0,64.3,30.20,South,169,7.5,14.7,69,0.00,,---,0.00,VWS V14.01,2013-04-09 11:36:00,
2013-04-09 07:37:00,75.2,64.3,30.20,South,184,8.5,14.7,69,0.00,,---,0.00,VWS V14.01,2013-04-09 11:37:00,
2013-04-09 07:38:00,75.2,64.4,30.20,SSE,166,7.9,14.7,69,0.00,,---,0.00,VWS V14.01,2013-04-09 11:38:00,
2013-04-09 07:39:00,75.1,64.4,30.20,SSW,200,8.5,14.7,69,0.00,,---,0.00,VWS V14.01,2013-04-09 11:39:00,
2013-04-09 07:40:00,75.0,64.4,30.20,SSE,159,5.1,14.9,70,0.00,,---,0.00,VWS V14.01,2013-04-09 11:40:00,
2013-04-09 07:41:00,75.1,64.4,30.20,SSW,197,9.8,14.9,69,0.00,,---,0.00,VWS V14.01,2013-04-09 11:41:00,
2013-04-09 07:42:00,75.1,64.4,30.20,South,184,6.1,14.9,69,0.00,,---,0.00,VWS V14.01,2013-04-09 11:42:00,
2013-04-09 07:43:00,75.1,64.4,30.20,SSW,198,7.4,14.9,69,0.00,,---,0.00,VWS V14.01,2013-04-09 11:43:00,
2013-04-09 07:44:00,75.1,64.2,30.20,SSW,194,8.7,14.9,69,0.00,,---,0.00,VWS V14.01,2013-04-09 11:44:00,
2013-04-09 07:45:00,75.1,64.3,30.20,South,187,8.6,14.9,69,0.00,,---,0.00,VWS V14.01,2013-04-09 11:45:00,
2013-04-09 07:46:00,75.0,64.2,30.20,SSW,211,9.5,14.9,69,0.00,,---,0.00,VWS V14.01,2013-04-09 11:46:00,
2013-04-09 07:47:00,75.1,64.4,30.20,South,188,7.1,14.9,69,0.00,,---,0.00,VWS V14.01,2013-04-09 11:47:00,
2013-04-09 07:48:00,75.1,64.4,30.20,SSW,198,5.5,14.9,69,0.00,,---,0.00,VWS V14.01,2013-04-09 11:48:00,
2013-04-09 07:49:00,75.2,64.6,30.20,South,190,6.2,14.9,70,0.00,,---,0.00,VWS V14.01,2013-04-09 11:49:00,
2013-04-09 07:50:00,75.3,64.7,30.20,South,176,7.5,14.9,70,0.00,,---,0.00,VWS V14.01,2013-04-09 11:50:00,
2013-04-09 07:51:00,75.1,64.5,30.20,South,174,9.1,16.2,70,0.00,,---,0.00,VWS V14.01,2013-04-09 11:51:00,
2013-04-09 07:52:00,75.2,64.5,30.20,SSW,193,8.3,16.2,69,0.00,,---,0.00,VWS V14.01,2013-04-09 11:52:00,
2013-04-09 07:53:00,75.2,64.6,30.20,SSW,207,9.2,16.2,70,0.00,,---,0.00,VWS V14.01,2013-04-09 11:53:00,
2013-04-09 07:54:00,75.1,64.4,30.20,SSW,198,6.8,16.2,69,0.00,,---,0.00,VWS V14.01,2013-04-09 11:54:00,
2013-04-09 07:55:00,75.0,64.0,30.20,SSW,210,6.9,16.2,69,0.00,,---,0.00,VWS V14.01,2013-04-09 11:55:00,
2013-04-09 07:56:00,75.1,64.2,30.20,South,191,8.8,16.2,69,0.00,,---,0.00,VWS V14.01,2013-04-09 11:56:00,
2013-04-09 07:57:00,74.9,64.0,30.20,South,174,4.8,16.2,69,0.00,,---,0.00,VWS V14.01,2013-04-09 11:57:00,
2013-04-09 07:58:00,75.3,64.5,30.20,South,183,5.7,16.2,69,0.00,,---,0.00,VWS V14.01,2013-04-09 11:58:00,
2013-04-09 07:59:00,75.3,64.5,30.20,SSE,156,5.8,16.2,69,0.00,,---,0.00,VWS V14.01,2013-04-09 11:59:00,
2013-04-09 08:00:00,75.1,64.4,30.20,South,172,6.5,16.2,69,0.00,,---,0.00,VWS V14.01,2013-04-09 12:00:00,
2013-04-09 08:01:00,75.2,63.9,30.20,South,191,5.1,16.2,68,0.00,,---,0.00,VWS V14.01,2013-04-09 12:01:00,
2013-04-09 08:02:00,75.3,63.9,30.20,SW,219,9.3,16.2,68,0.00,,---,0.00,VWS V14.01,2013-04-09 12:02:00,
2013-04-09 08:03:00,75.2,63.5,30.20,SSW,208,9.5,16.2,67,0.00,,---,0.00,VWS V14.01,2013-04-09 12:03:00,
2013-04-09 08:04:00,75.3,63.5,30.20,South,190,11.0,16.2,67,0.00,,---,0.00,VWS V14.01,2013-04-09 12:04:00,
2013-04-09 08:05:00,75.1,63.3,30.20,South,174,5.7,16.2,67,0.00,,---,0.00,VWS V14.01,2013-04-09 12:05:00,
2013-04-09 08:06:00,75.2,63.5,30.20,SSE,150,10.2,16.2,67,0.00,,---,0.00,VWS V14.01,2013-04-09 12:06:00,
2013-04-09 08:07:00,75.3,63.5,30.20,SSW,205,8.8,16.2,67,0.00,,---,0.00,VWS V14.01,2013-04-09 12:07:00,
2013-04-09 08:08:00,75.3,63.5,30.20,South,190,7.9,16.2,67,0.00,,---,0.00,VWS V14.01,2013-04-09 12:08:00,
2013-04-09 08:09:00,75.4,63.2,30.21,South,181,6.5,16.2,66,0.00,,---,0.00,VWS V14.01,2013-04-09 12:09:00,
2013-04-09 08:10:00,75.2,63.0,30.21,South,177,5.3,16.2,66,0.00,,---,0.00,VWS V14.01,2013-04-09 12:10:00,
2013-04-09 08:11:00,75.4,63.3,30.21,SSW,195,9.4,16.2,66,0.00,,---,0.00,VWS V14.01,2013-04-09 12:11:00,
2013-04-09 08:12:00,75.3,63.4,30.21,South,179,12.6,16.2,67,0.00,,---,0.00,VWS V14.01,2013-04-09 12:12:00,
2013-04-09 08:13:00,75.6,64.0,30.21,South,183,5.8,16.2,67,0.00,,---,0.00,VWS V14.01,2013-04-09 12:13:00,
2013-04-09 08:14:00,75.4,64.0,30.21,SSW,205,8.6,16.2,68,0.00,,---,0.00,VWS V14.01,2013-04-09 12:14:00,
2013-04-09 08:15:00,75.5,64.2,30.21,SSE,153,4.2,16.2,68,0.00,,---,0.00,VWS V14.01,2013-04-09 12:15:00,
2013-04-09 08:16:00,75.4,64.1,30.21,South,184,7.4,16.2,68,0.00,,---,0.00,VWS V14.01,2013-04-09 12:16:00,
2013-04-09 08:17:00,75.4,64.2,30.21,South,187,6.4,16.2,68,0.00,,---,0.00,VWS V14.01,2013-04-09 12:17:00,
2013-04-09 08:18:00,75.6,64.6,30.21,South,188,7.9,16.2,69,0.00,,---,0.00,VWS V14.01,2013-04-09 12:18:00,
2013-04-09 08:19:00,75.7,64.9,30.21,South,179,8.1,16.2,69,0.00,,---,0.00,VWS V14.01,2013-04-09 12:19:00,
2013-04-09 08:20:00,75.5,64.7,30.21,SSW,195,8.4,16.2,69,0.00,,---,0.00,VWS V14.01,2013-04-09 12:20:00,
2013-04-09 08:21:00,75.5,64.5,30.21,SSW,193,8.8,16.2,69,0.00,,---,0.00,VWS V14.01,2013-04-09 12:21:00,
2013-04-09 08:22:00,75.4,64.6,30.21,South,177,3.6,16.2,69,0.00,,---,0.00,VWS V14.01,2013-04-09 12:22:00,
2013-04-09 08:23:00,75.6,64.8,30.21,SSW,204,6.5,16.2,69,0.00,,---,0.00,VWS V14.01,2013-04-09 12:23:00,
2013-04-09 08:24:00,75.7,64.8,30.21,SSE,165,7.9,16.2,69,0.00,,---,0.00,VWS V14.01,2013-04-09 12:24:00,
2013-04-09 08:25:00,75.5,64.5,30.21,SSW,195,10.6,16.2,69,0.00,,---,0.00,VWS V14.01,2013-04-09 12:25:00,
2013-04-09 08:26:00,75.4,64.4,30.21,East,91,5.2,16.2,69,0.00,,---,0.00,VWS V14.01,2013-04-09 12:26:00,
2013-04-09 08:27:00,75.3,64.3,30.21,South,183,9.1,16.2,69,0.00,,---,0.00,VWS V14.01,2013-04-09 12:27:00,
2013-04-09 08:28:00,75.6,64.6,30.21,SSW,198,7.5,16.2,69,0.00,,---,0.00,VWS V14.01,2013-04-09 12:28:00,
2013-04-09 08:29:00,75.5,64.7,30.21,SE,139,5.2,16.2,69,0.00,,---,0.00,VWS V14.01,2013-04-09 12:29:00,
2013-04-09 08:30:00,75.4,64.3,30.21,SSW,204,8.1,16.2,68,0.00,,---,0.00,VWS V14.01,2013-04-09 12:30:00,
2013-04-09 08:31:00,75.4,64.4,30.21,South,191,11.2,16.2,69,0.00,,---,0.00,VWS V14.01,2013-04-09 12:31:00,
2013-04-09 08:32:00,75.3,64.5,30.21,South,176,5.9,16.2,69,0.00,,---,0.00,VWS V14.01,2013-04-09 12:32:00,
2013-04-09 08:33:00,75.4,64.7,30.21,SE,131,9.3,16.2,69,0.00,,---,0.00,VWS V14.01,2013-04-09 12:33:00,
2013-04-09 08:34:00,75.5,64.8,30.21,South,173,13.2,16.2,69,0.00,,---,0.00,VWS V14.01,2013-04-09 12:34:00,
2013-04-09 08:35:00,75.5,64.7,30.21,South,174,9.1,16.2,69,0.00,,---,0.00,VWS V14.01,2013-04-09 12:35:00,
2013-04-09 08:36:00,75.4,64.4,30.21,South,180,7.9,16.2,69,0.00,,---,0.00,VWS V14.01,2013-04-09 12:36:00,
2013-04-09 08:37:00,75.4,64.4,30.21,South,176,8.1,16.2,69,0.00,,---,0.00,VWS V14.01,2013-04-09 12:37:00,
2013-04-09 08:38:00,75.3,64.1,30.21,South,172,5.8,16.2,68,0.00,,---,0.00,VWS V14.01,2013-04-09 12:38:00,
2013-04-09 08:39:00,75.4,64.0,30.21,South,191,7.9,16.2,68,0.00,,---,0.00,VWS V14.01,2013-04-09 12:39:00,
2013-04-09 08:40:00,75.6,64.3,30.21,South,181,6.6,16.2,68,0.00,,---,0.00,VWS V14.01,2013-04-09 12:40:00,
2013-04-09 08:41:00,75.4,64.2,30.22,SE,146,5.0,16.2,68,0.00,,---,0.00,VWS V14.01,2013-04-09 12:41:00,
2013-04-09 08:42:00,75.7,64.7,30.22,SSE,163,6.7,16.2,69,0.00,,---,0.00,VWS V14.01,2013-04-09 12:42:00,
2013-04-09 08:43:00,75.5,64.5,30.22,South,191,5.1,16.2,69,0.00,,---,0.00,VWS V14.01,2013-04-09 12:43:00,
2013-04-09 08:44:00,75.6,64.8,30.22,SSW,202,6.7,16.2,69,0.00,,---,0.00,VWS V14.01,2013-04-09 12:44:00,
2013-04-09 08:45:00,75.7,64.2,30.22,South,177,7.7,16.7,67,0.00,,---,0.00,VWS V14.01,2013-04-09 12:45:00,
2013-04-09 08:46:00,75.7,64.2,30.22,South,188,6.5,16.7,68,0.00,,---,0.00,VWS V14.01,2013-04-09 12:46:00,
2013-04-09 08:47:00,75.5,64.1,30.22,SSE,155,11.4,16.7,68,0.00,,---,0.00,VWS V14.01,2013-04-09 12:47:00,
2013-04-09 08:48:00,75.5,63.6,30.22,South,177,6.9,16.7,67,0.00,,---,0.00,VWS V14.01,2013-04-09 12:48:00,
2013-04-09 08:49:00,75.5,63.4,30.22,South,172,5.8,16.7,66,0.00,,---,0.00,VWS V14.01,2013-04-09 12:49:00,
2013-04-09 08:50:00,75.4,63.1,30.22,SSW,193,7.0,16.7,66,0.00,,---,0.00,VWS V14.01,2013-04-09 12:50:00,
2013-04-09 08:51:00,75.6,63.4,30.22,SE,124,7.1,16.7,66,0.00,,---,0.00,VWS V14.01,2013-04-09 12:51:00,
2013-04-09 08:52:00,75.6,63.5,30.22,SE,142,6.8,16.7,66,0.00,,---,0.00,VWS V14.01,2013-04-09 12:52:00,
2013-04-09 08:53:00,75.6,63.5,30.22,South,176,6.6,16.7,66,0.00,,---,0.00,VWS V14.01,2013-04-09 12:53:00,
2013-04-09 08:54:00,75.7,63.7,30.22,South,173,6.6,16.7,66,0.00,,---,0.00,VWS V14.01,2013-04-09 12:54:00,
2013-04-09 08:55:00,75.7,63.7,30.22,SSW,194,4.8,16.7,66,0.00,,---,0.00,VWS V14.01,2013-04-09 12:55:00,
2013-04-09 08:56:00,75.7,63.8,30.22,SSW,195,5.2,16.7,67,0.00,,---,0.00,VWS V14.01,2013-04-09 12:56:00,
2013-04-09 08:57:00,75.7,63.8,30.23,South,181,8.6,16.7,67,0.00,,---,0.00,VWS V14.01,2013-04-09 12:57:00,
2013-04-09 08:58:00,75.7,63.5,30.23,SSW,194,4.2,16.7,66,0.00,,---,0.00,VWS V14.01,2013-04-09 12:58:00,
2013-04-09 08:59:00,75.7,63.6,30.23,South,188,5.7,16.7,66,0.00,,---,0.00,VWS V14.01,2013-04-09 12:59:00,
2013-04-09 09:00:00,75.9,63.9,30.23,ESE,104,4.6,16.7,66,0.00,,---,0.00,VWS V14.01,2013-04-09 13:00:00,
2013-04-09 09:01:00,75.9,63.9,30.23,SSE,165,6.9,16.7,66,0.00,,---,0.00,VWS V14.01,2013-04-09 13:01:00,
2013-04-09 09:02:00,75.9,63.8,30.23,SSW,201,10.7,16.7,66,0.00,,---,0.00,VWS V14.01,2013-04-09 13:02:00,
2013-04-09 09:03:00,75.9,63.3,30.23,SSW,212,12.2,16.7,65,0.00,,---,0.00,VWS V14.01,2013-04-09 13:03:00,
2013-04-09 09:04:00,75.9,63.4,30.23,SSW,210,8.8,16.7,65,0.00,,---,0.00,VWS V14.01,2013-04-09 13:04:00,
2013-04-09 09:05:00,75.7,63.2,30.23,South,183,9.1,16.7,65,0.00,,---,0.00,VWS V14.01,2013-04-09 13:05:00,
2013-04-09 09:06:00,75.9,63.6,30.23,SSW,194,3.1,16.7,66,0.00,,---,0.00,VWS V14.01,2013-04-09 13:06:00,
2013-04-09 09:07:00,76.0,63.8,30.23,South,181,7.1,16.7,66,0.00,,---,0.00,VWS V14.01,2013-04-09 13:07:00,
2013-04-09 09:08:00,76.0,63.6,30.23,SSW,200,7.8,16.7,65,0.00,,---,0.00,VWS V14.01,2013-04-09 13:08:00,
2013-04-09 09:09:00,76.0,63.5,30.23,SSW,205,7.0,16.7,65,0.00,,---,0.00,VWS V14.01,2013-04-09 13:09:00,
2013-04-09 09:10:00,76.2,63.8,30.23,South,181,6.3,16.7,66,0.00,,---,0.00,VWS V14.01,2013-04-09 13:10:00,
2013-04-09 09:11:00,76.1,63.7,30.23,SSW,201,5.3,16.7,65,0.00,,---,0.00,VWS V14.01,2013-04-09 13:11:00,
2013-04-09 09:12:00,76.0,63.6,30.23,South,172,12.2,16.7,66,0.00,,---,0.00,VWS V14.01,2013-04-09 13:12:00,
2013-04-09 09:13:00,76.0,63.8,30.23,South,191,10.2,16.7,66,0.00,,---,0.00,VWS V14.01,2013-04-09 13:13:00,
2013-04-09 09:14:00,75.9,63.8,30.23,SSE,159,3.7,16.7,66,0.00,,---,0.00,VWS V14.01,2013-04-09 13:14:00,
2013-04-09 09:15:00,76.1,64.1,30.23,South,183,8.9,16.7,66,0.00,,---,0.00,VWS V14.01,2013-04-09 13:15:00,
2013-04-09 09:16:00,76.1,64.2,30.23,South,177,7.5,16.7,67,0.00,,---,0.00,VWS V14.01,2013-04-09 13:16:00,
2013-04-09 09:17:00,76.1,64.0,30.23,SSE,148,7.3,16.7,66,0.00,,---,0.00,VWS V14.01,2013-04-09 13:17:00,
2013-04-09 09:18:00,76.2,64.0,30.23,South,187,11.9,16.7,66,0.00,,---,0.00,VWS V14.01,2013-04-09 13:18:00,
2013-04-09 09:19:00,76.0,63.9,30.23,SSW,208,9.6,16.7,66,0.00,,---,0.00,VWS V14.01,2013-04-09 13:19:00,
2013-04-09 09:20:00,76.0,64.1,30.23,SSW,204,9.4,16.7,67,0.00,,---,0.00,VWS V14.01,2013-04-09 13:20:00,
2013-04-09 09:21:00,76.1,64.3,30.23,South,188,9.7,16.7,67,0.00,,---,0.00,VWS V14.01,2013-04-09 13:21:00,
2013-04-09 09:22:00,76.1,64.5,30.23,South,170,9.5,16.7,67,0.00,,---,0.00,VWS V14.01,2013-04-09 13:22:00,
2013-04-09 09:23:00,76.0,64.4,30.23,SSW,194,8.0,16.7,67,0.00,,---,0.00,VWS V14.01,2013-04-09 13:23:00,
2013-04-09 09:24:00,76.2,64.7,30.23,SSW,195,5.6,16.7,68,0.00,,---,0.00,VWS V14.01,2013-04-09 13:24:00,
2013-04-09 09:25:00,76.3,64.8,30.23,SSW,195,5.8,16.7,68,0.00,,---,0.00,VWS V14.01,2013-04-09 13:25:00,
2013-04-09 09:26:00,76.2,64.7,30.23,SSW,205,8.2,16.7,68,0.00,,---,0.00,VWS V14.01,2013-04-09 13:26:00,
2013-04-09 09:27:00,76.5,65.1,30.23,South,183,9.5,16.7,68,0.00,,---,0.00,VWS V14.01,2013-04-09 13:27:00,
2013-04-09 09:28:00,76.4,64.6,30.23,SSW,205,7.4,16.7,67,0.00,,---,0.00,VWS V14.01,2013-04-09 13:28:00,
2013-04-09 09:29:00,76.7,65.3,30.24,South,177,5.7,16.7,68,0.00,,---,0.00,VWS V14.01,2013-04-09 13:29:00,
2013-04-09 09:30:00,76.9,65.3,30.24,SSW,193,6.0,16.7,68,0.00,,---,0.00,VWS V14.01,2013-04-09 13:30:00,
2013-04-09 09:31:00,76.9,64.9,30.24,South,184,8.3,16.7,66,0.00,,---,0.00,VWS V14.01,2013-04-09 13:31:00,
2013-04-09 09:32:00,77.1,65.0,30.24,South,169,6.3,16.7,66,0.00,,---,0.00,VWS V14.01,2013-04-09 13:32:00,
2013-04-09 09:33:00,77.2,65.1,30.24,South,179,4.9,16.7,66,0.00,,---,0.00,VWS V14.01,2013-04-09 13:33:00,
2013-04-09 09:34:00,77.3,64.8,30.24,South,190,9.1,16.7,66,0.00,,---,0.00,VWS V14.01,2013-04-09 13:34:00,
2013-04-09 09:35:00,77.2,65.0,30.24,South,191,8.6,16.7,66,0.00,,---,0.00,VWS V14.01,2013-04-09 13:35:00,
2013-04-09 09:36:00,77.3,65.2,30.24,South,180,5.5,16.7,66,0.00,,---,0.00,VWS V14.01,2013-04-09 13:36:00,
2013-04-09 09:37:00,77.2,64.9,30.24,SSE,165,7.6,16.7,66,0.00,,---,0.00,VWS V14.01,2013-04-09 13:37:00,
2013-04-09 09:38:00,77.4,65.4,30.24,SSW,193,4.6,16.7,67,0.00,,---,0.00,VWS V14.01,2013-04-09 13:38:00,
2013-04-09 09:39:00,77.4,64.8,30.24,South,173,12.1,16.7,65,0.00,,---,0.00,VWS V14.01,2013-04-09 13:39:00,
2013-04-09 09:40:00,77.7,64.6,30.24,South,188,6.3,16.7,64,0.00,,---,0.00,VWS V14.01,2013-04-09 13:40:00,
2013-04-09 09:41:00,77.7,64.7,30.24,SSE,167,4.3,16.7,64,0.00,,---,0.00,VWS V14.01,2013-04-09 13:41:00,
2013-04-09 09:42:00,77.8,65.0,30.24,South,184,11.6,16.7,65,0.00,,---,0.00,VWS V14.01,2013-04-09 13:42:00,
2013-04-09 09:43:00,77.9,64.8,30.24,SSE,158,7.8,16.7,64,0.00,,---,0.00,VWS V14.01,2013-04-09 13:43:00,
2013-04-09 09:44:00,78.0,64.9,30.24,South,179,8.5,16.7,64,0.00,,---,0.00,VWS V14.01,2013-04-09 13:44:00,
2013-04-09 09:45:00,78.2,64.6,30.24,South,183,13.4,16.7,63,0.00,,---,0.00,VWS V14.01,2013-04-09 13:45:00,
2013-04-09 09:46:00,78.3,64.7,30.24,South,179,8.6,16.7,63,0.00,,---,0.00,VWS V14.01,2013-04-09 13:46:00,
2013-04-09 09:47:00,78.2,65.1,30.24,South,188,8.4,16.7,64,0.00,,---,0.00,VWS V14.01,2013-04-09 13:47:00,
2013-04-09 09:48:00,78.4,65.2,30.24,South,184,6.6,16.7,64,0.00,,---,0.00,VWS V14.01,2013-04-09 13:48:00,
2013-04-09 09:49:00,78.5,65.5,30.24,South,172,8.6,16.7,64,0.00,,---,0.00,VWS V14.01,2013-04-09 13:49:00,
2013-04-09 09:50:00,78.5,65.2,30.24,SSE,167,7.2,16.8,64,0.00,,---,0.00,VWS V14.01,2013-04-09 13:50:00,
2013-04-09 09:51:00,78.3,65.0,30.24,South,183,8.5,16.8,64,0.00,,---,0.00,VWS V14.01,2013-04-09 13:51:00,
2013-04-09 09:52:00,78.4,65.4,30.24,SSW,207,3.0,16.8,64,0.00,,---,0.00,VWS V14.01,2013-04-09 13:52:00,
2013-04-09 09:53:00,78.4,65.3,30.24,SSE,163,7.7,16.8,64,0.00,,---,0.00,VWS V14.01,2013-04-09 13:53:00,
2013-04-09 09:54:00,78.3,65.2,30.24,South,190,7.3,16.8,64,0.00,,---,0.00,VWS V14.01,2013-04-09 13:54:00,
2013-04-09 09:55:00,78.4,65.4,30.24,SSW,202,6.9,16.8,64,0.00,,---,0.00,VWS V14.01,2013-04-09 13:55:00,
2013-04-09 09:56:00,78.7,65.6,30.25,South,191,9.4,16.8,64,0.00,,---,0.00,VWS V14.01,2013-04-09 13:56:00,
2013-04-09 09:57:00,78.4,65.4,30.25,SE,146,13.3,16.8,64,0.00,,---,0.00,VWS V14.01,2013-04-09 13:57:00,
2013-04-09 09:58:00,78.8,65.7,30.25,SSW,197,9.4,16.8,64,0.00,,---,0.00,VWS V14.01,2013-04-09 13:58:00,
2013-04-09 09:59:00,78.7,65.4,30.25,SSE,155,9.7,16.8,64,0.00,,---,0.00,VWS V14.01,2013-04-09 13:59:00,
2013-04-09 10:00:00,78.7,65.4,30.25,SE,139,6.8,16.8,64,0.00,,---,0.00,VWS V14.01,2013-04-09 14:00:00,
2013-04-09 10:01:00,78.7,65.6,30.25,SSW,194,6.0,16.8,64,0.00,,---,0.00,VWS V14.01,2013-04-09 14:01:00,
2013-04-09 10:02:00,78.7,65.6,30.25,South,186,9.7,16.8,64,0.00,,---,0.00,VWS V14.01,2013-04-09 14:02:00,
2013-04-09 10:03:00,78.9,65.8,30.25,South,174,11.9,16.8,64,0.00,,---,0.00,VWS V14.01,2013-04-09 14:03:00,
2013-04-09 10:04:00,79.1,65.5,30.25,South,169,7.5,16.8,63,0.00,,---,0.00,VWS V14.01,2013-04-09 14:04:00,
2013-04-09 10:05:00,79.0,65.2,30.25,SSW,198,8.6,16.8,63,0.00,,---,0.00,VWS V14.01,2013-04-09 14:05:00,
2013-04-09 10:06:00,79.1,64.7,30.25,South,191,6.5,16.8,62,0.00,,---,0.00,VWS V14.01,2013-04-09 14:06:00,
2013-04-09 10:07:00,79.0,65.1,30.25,South,184,13.0,16.8,62,0.00,,---,0.00,VWS V14.01,2013-04-09 14:07:00,
2013-04-09 10:08:00,78.8,65.2,30.25,South,183,9.6,16.8,63,0.00,,---,0.00,VWS V14.01,2013-04-09 14:08:00,
2013-04-09 10:09:00,79.0,65.4,30.24,South,181,8.0,16.8,63,0.00,,---,0.00,VWS V14.01,2013-04-09 14:09:00,
2013-04-09 10:10:00,78.7,64.8,30.25,SSW,200,7.5,16.8,62,0.00,,---,0.00,VWS V14.01,2013-04-09 14:10:00,
2013-04-09 10:11:00,78.7,65.1,30.25,South,187,10.3,16.8,63,0.00,,---,0.00,VWS V14.01,2013-04-09 14:11:00,
2013-04-09 10:12:00,79.0,65.4,30.25,South,188,8.7,16.8,63,0.00,,---,0.00,VWS V14.01,2013-04-09 14:12:00,
2013-04-09 10:13:00,79.0,64.6,30.25,SE,143,14.3,16.8,61,0.00,,---,0.00,VWS V14.01,2013-04-09 14:13:00,
2013-04-09 10:14:00,78.9,64.8,30.25,South,181,10.4,16.8,62,0.00,,---,0.00,VWS V14.01,2013-04-09 14:14:00,
2013-04-09 10:15:00,79.1,64.9,30.25,South,191,10.3,16.8,62,0.00,,---,0.00,VWS V14.01,2013-04-09 14:15:00,
2013-04-09 10:16:00,79.1,64.6,30.25,SSE,162,8.1,16.8,61,0.00,,---,0.00,VWS V14.01,2013-04-09 14:16:00,
2013-04-09 10:17:00,79.1,64.9,30.24,South,177,8.9,16.8,62,0.00,,---,0.00,VWS V14.01,2013-04-09 14:17:00,
2013-04-09 10:18:00,79.1,65.0,30.24,South,186,11.5,16.8,62,0.00,,---,0.00,VWS V14.01,2013-04-09 14:18:00,
2013-04-09 10:19:00,79.1,64.5,30.25,SE,141,10.3,16.8,61,0.00,,---,0.00,VWS V14.01,2013-04-09 14:19:00,
2013-04-09 10:20:00,79.1,64.6,30.24,SSE,150,8.8,16.8,61,0.00,,---,0.00,VWS V14.01,2013-04-09 14:20:00,
2013-04-09 10:21:00,79.3,64.9,30.24,SSE,162,6.5,16.8,62,0.00,,---,0.00,VWS V14.01,2013-04-09 14:21:00,
2013-04-09 10:22:00,79.3,64.9,30.24,SSW,195,6.3,16.8,61,0.00,,---,0.00,VWS V14.01,2013-04-09 14:22:00,
2013-04-09 10:23:00,78.9,64.6,30.24,South,184,13.7,18.1,62,0.00,,---,0.00,VWS V14.01,2013-04-09 14:23:00,
2013-04-09 10:24:00,79.0,64.5,30.24,SE,134,12.7,18.1,61,0.00,,---,0.00,VWS V14.01,2013-04-09 14:24:00,
2013-04-09 10:25:00,79.0,64.2,30.24,South,176,12.3,18.1,60,0.00,,---,0.00,VWS V14.01,2013-04-09 14:25:00,
2013-04-09 10:26:00,79.0,64.6,30.24,South,183,9.8,18.1,61,0.00,,---,0.00,VWS V14.01,2013-04-09 14:26:00,
2013-04-09 10:27:00,79.0,63.9,30.24,South,183,7.0,18.1,60,0.00,,---,0.00,VWS V14.01,2013-04-09 14:27:00,
2013-04-09 10:28:00,78.9,63.8,30.24,SSW,193,10.7,18.1,60,0.00,,---,0.00,VWS V14.01,2013-04-09 14:28:00,
2013-04-09 10:29:00,79.0,63.9,30.24,SSE,166,7.0,18.1,60,0.00,,---,0.00,VWS V14.01,2013-04-09 14:29:00,
2013-04-09 10:30:00,79.0,64.1,30.24,South,184,8.1,18.1,60,0.00,,---,0.00,VWS V14.01,2013-04-09 14:30:00,
2013-04-09 10:31:00,79.2,64.5,30.24,SE,143,6.0,18.1,61,0.00,,---,0.00,VWS V14.01,2013-04-09 14:31:00,
2013-04-09 10:32:00,79.2,64.6,30.24,SE,146,11.9,18.1,61,0.00,,---,0.00,VWS V14.01,2013-04-09 14:32:00,
2013-04-09 10:33:00,79.2,64.5,30.24,South,169,9.8,18.1,61,0.00,,---,0.00,VWS V14.01,2013-04-09 14:33:00,
2013-04-09 10:34:00,79.3,65.1,30.24,SSE,156,13.5,18.1,62,0.00,,---,0.00,VWS V14.01,2013-04-09 14:34:00,
2013-04-09 10:35:00,79.2,65.3,30.24,SSW,193,4.7,18.1,62,0.00,,---,0.00,VWS V14.01,2013-04-09 14:35:00,
2013-04-09 10:36:00,79.2,64.7,30.24,South,174,7.3,18.1,61,0.00,,---,0.00,VWS V14.01,2013-04-09 14:36:00,
2013-04-09 10:37:00,79.3,65.1,30.24,SSE,160,9.1,18.1,62,0.00,,---,0.00,VWS V14.01,2013-04-09 14:37:00,
2013-04-09 10:38:00,79.3,65.3,30.24,South,184,5.8,18.1,62,0.00,,---,0.00,VWS V14.01,2013-04-09 14:38:00,
2013-04-09 10:39:00,79.4,65.6,30.24,SE,135,5.0,18.1,63,0.00,,---,0.00,VWS V14.01,2013-04-09 14:39:00,
2013-04-09 10:40:00,79.4,65.9,30.24,South,174,7.0,18.1,64,0.00,,---,0.00,VWS V14.01,2013-04-09 14:40:00,
2013-04-09 10:41:00,79.3,66.3,30.24,South,191,6.3,18.2,64,0.00,,---,0.00,VWS V14.01,2013-04-09 14:41:00,
2013-04-09 10:42:00,79.3,66.5,30.24,South,177,6.5,18.2,65,0.00,,---,0.00,VWS V14.01,2013-04-09 14:42:00,
2013-04-09 10:43:00,79.2,66.6,30.25,South,179,5.0,18.2,65,0.00,,---,0.00,VWS V14.01,2013-04-09 14:43:00,
2013-04-09 10:44:00,79.2,66.6,30.24,SE,134,6.3,18.2,65,0.00,,---,0.00,VWS V14.01,2013-04-09 14:44:00,
2013-04-09 10:45:00,79.2,66.4,30.25,SSE,165,15.4,18.2,65,0.00,,---,0.00,VWS V14.01,2013-04-09 14:45:00,
2013-04-09 10:46:00,79.0,66.0,30.25,South,172,11.5,18.2,64,0.00,,---,0.00,VWS V14.01,2013-04-09 14:46:00,
2013-04-09 10:47:00,78.9,65.8,30.24,SSE,162,6.4,18.2,64,0.00,,---,0.00,VWS V14.01,2013-04-09 14:47:00,
2013-04-09 10:48:00,78.9,66.3,30.24,SE,146,7.5,18.2,65,0.00,,---,0.00,VWS V14.01,2013-04-09 14:48:00,
2013-04-09 10:49:00,78.9,66.5,30.25,SSE,158,8.9,18.2,66,0.00,,---,0.00,VWS V14.01,2013-04-09 14:49:00,
2013-04-09 10:50:00,78.7,65.7,30.24,South,186,6.5,18.2,64,0.00,,---,0.00,VWS V14.01,2013-04-09 14:50:00,
2013-04-09 10:51:00,78.4,65.4,30.25,SSE,166,6.3,18.2,64,0.00,,---,0.00,VWS V14.01,2013-04-09 14:51:00,
2013-04-09 10:52:00,78.5,65.6,30.25,SSE,159,8.9,18.2,65,0.00,,---,0.00,VWS V14.01,2013-04-09 14:52:00,
2013-04-09 10:53:00,78.8,65.9,30.24,SSW,194,7.3,18.2,65,0.00,,---,0.00,VWS V14.01,2013-04-09 14:53:00,
2013-04-09 10:54:00,78.8,66.2,30.24,SSE,149,8.3,18.2,65,0.00,,---,0.00,VWS V14.01,2013-04-09 14:54:00,
2013-04-09 10:55:00,78.9,66.5,30.24,South,169,8.1,18.2,66,0.00,,---,0.00,VWS V14.01,2013-04-09 14:55:00,
2013-04-09 10:56:00,79.2,66.7,30.24,South,180,13.4,18.2,66,0.00,,---,0.00,VWS V14.01,2013-04-09 14:56:00,
2013-04-09 10:57:00,79.3,65.9,30.24,South,187,13.8,18.2,64,0.00,,---,0.00,VWS V14.01,2013-04-09 14:57:00,
2013-04-09 10:58:00,79.4,66.3,30.24,SSE,163,8.2,18.2,64,0.00,,---,0.00,VWS V14.01,2013-04-09 14:58:00,
2013-04-09 10:59:00,79.2,65.5,30.25,SSE,153,11.4,18.2,63,0.00,,---,0.00,VWS V14.01,2013-04-09 14:59:00,
2013-04-09 11:00:00,79.0,65.5,30.25,SE,134,11.7,18.2,63,0.00,,---,0.00,VWS V14.01,2013-04-09 15:00:00,
2013-04-09 11:01:00,79.1,65.9,30.25,SSE,163,7.6,18.2,64,0.00,,---,0.00,VWS V14.01,2013-04-09 15:01:00,
2013-04-09 11:02:00,79.2,66.4,30.25,South,180,16.2,18.2,65,0.00,,---,0.00,VWS V14.01,2013-04-09 15:02:00,
2013-04-09 11:03:00,79.0,65.8,30.25,South,169,8.6,18.2,64,0.00,,---,0.00,VWS V14.01,2013-04-09 15:03:00,
2013-04-09 11:04:00,79.1,66.3,30.25,SSE,166,10.6,18.2,65,0.00,,---,0.00,VWS V14.01,2013-04-09 15:04:00,
2013-04-09 11:05:00,79.1,66.1,30.25,SE,142,9.5,18.2,64,0.00,,---,0.00,VWS V14.01,2013-04-09 15:05:00,
2013-04-09 11:06:00,78.9,66.2,30.24,SSW,205,8.5,18.2,65,0.00,,---,0.00,VWS V14.01,2013-04-09 15:06:00,
2013-04-09 11:07:00,78.9,66.4,30.24,South,169,8.6,18.2,66,0.00,,---,0.00,VWS V14.01,2013-04-09 15:07:00,
2013-04-09 11:08:00,78.9,66.2,30.25,South,190,10.6,18.2,65,0.00,,---,0.00,VWS V14.01,2013-04-09 15:08:00,
2013-04-09 11:09:00,78.9,66.4,30.24,SE,132,6.8,18.2,66,0.00,,---,0.00,VWS V14.01,2013-04-09 15:09:00,
2013-04-09 11:10:00,79.0,66.6,30.24,SSE,156,6.0,18.2,66,0.00,,---,0.00,VWS V14.01,2013-04-09 15:10:00,
2013-04-09 11:11:00,78.9,66.9,30.24,South,183,8.0,18.2,67,0.00,,---,0.00,VWS V14.01,2013-04-09 15:11:00,
2013-04-09 11:12:00,78.8,66.5,30.24,South,183,6.2,18.2,66,0.00,,---,0.00,VWS V14.01,2013-04-09 15:12:00,
2013-04-09 11:13:00,78.8,66.3,30.24,South,181,9.1,18.2,66,0.00,,---,0.00,VWS V14.01,2013-04-09 15:13:00,
2013-04-09 11:14:00,78.8,66.1,30.24,South,184,9.7,18.2,65,0.00,,---,0.00,VWS V14.01,2013-04-09 15:14:00,
2013-04-09 11:15:00,78.7,66.0,30.24,South,179,9.8,18.2,65,0.00,,---,0.00,VWS V14.01,2013-04-09 15:15:00,
2013-04-09 11:16:00,78.5,65.7,30.24,SSE,149,10.3,18.2,65,0.00,,---,0.00,VWS V14.01,2013-04-09 15:16:00,
2013-04-09 11:17:00,78.8,66.1,30.24,South,177,6.2,18.2,65,0.00,,---,0.00,VWS V14.01,2013-04-09 15:17:00,
2013-04-09 11:18:00,78.9,66.3,30.24,East,90,4.3,18.2,65,0.00,,---,0.00,VWS V14.01,2013-04-09 15:18:00,
2013-04-09 11:19:00,78.8,66.4,30.24,SSE,150,7.7,18.2,66,0.00,,---,0.00,VWS V14.01,2013-04-09 15:19:00,
2013-04-09 11:20:00,78.9,65.9,30.24,SSE,152,12.9,18.2,64,0.00,,---,0.00,VWS V14.01,2013-04-09 15:20:00,
2013-04-09 11:21:00,79.0,66.0,30.25,SSE,160,9.9,18.2,64,0.00,,---,0.00,VWS V14.01,2013-04-09 15:21:00,
2013-04-09 11:22:00,78.9,66.0,30.24,East,93,9.3,18.2,65,0.00,,---,0.00,VWS V14.01,2013-04-09 15:22:00,
2013-04-09 11:23:00,78.8,66.0,30.24,SSW,194,8.0,18.2,65,0.00,,---,0.00,VWS V14.01,2013-04-09 15:23:00,
2013-04-09 11:24:00,78.8,66.3,30.24,SSE,149,8.3,18.2,66,0.00,,---,0.00,VWS V14.01,2013-04-09 15:24:00,
2013-04-09 11:25:00,78.9,66.2,30.24,SSW,200,8.9,18.2,65,0.00,,---,0.00,VWS V14.01,2013-04-09 15:25:00,
2013-04-09 11:26:00,78.8,66.4,30.25,South,183,8.0,18.2,66,0.00,,---,0.00,VWS V14.01,2013-04-09 15:26:00,
2013-04-09 11:27:00,78.5,66.0,30.25,SSE,165,6.5,18.2,66,0.00,,---,0.00,VWS V14.01,2013-04-09 15:27:00,
2013-04-09 11:28:00,78.8,66.4,30.24,South,191,6.7,18.2,66,0.00,,---,0.00,VWS V14.01,2013-04-09 15:28:00,
2013-04-09 11:29:00,78.5,66.0,30.24,South,169,7.5,18.2,66,0.00,,---,0.00,VWS V14.01,2013-04-09 15:29:00,
2013-04-09 11:30:00,78.7,66.0,30.24,SSE,156,6.7,18.2,65,0.00,,---,0.00,VWS V14.01,2013-04-09 15:30:00,
2013-04-09 11:31:00,78.7,65.6,30.24,SSE,155,10.0,18.2,64,0.00,,---,0.00,VWS V14.01,2013-04-09 15:31:00,
2013-04-09 11:32:00,78.7,65.6,30.25,South,184,5.9,18.2,64,0.00,,---,0.00,VWS V14.01,2013-04-09 15:32:00,
2013-04-09 11:33:00,78.4,65.5,30.24,South,179,9.2,18.2,65,0.00,,---,0.00,VWS V14.01,2013-04-09 15:33:00,
2013-04-09 11:34:00,78.4,65.7,30.24,South,184,11.9,18.2,65,0.00,,---,0.00,VWS V14.01,2013-04-09 15:34:00,
2013-04-09 11:35:00,78.7,65.9,30.24,SE,134,8.8,18.2,65,0.00,,---,0.00,VWS V14.01,2013-04-09 15:35:00,
2013-04-09 11:36:00,78.4,65.9,30.24,South,177,7.2,18.2,66,0.00,,---,0.00,VWS V14.01,2013-04-09 15:36:00,
2013-04-09 11:37:00,78.5,66.1,30.24,SSE,163,10.6,18.2,66,0.00,,---,0.00,VWS V14.01,2013-04-09 15:37:00,
2013-04-09 11:38:00,78.2,65.5,30.24,South,191,9.3,18.2,65,0.00,,---,0.00,VWS V14.01,2013-04-09 15:38:00,
2013-04-09 11:39:00,78.2,65.9,30.24,SSE,153,9.9,18.2,66,0.00,,---,0.00,VWS V14.01,2013-04-09 15:39:00,
2013-04-09 11:40:00,78.1,66.2,30.24,South,191,6.4,18.2,67,0.00,,---,0.00,VWS V14.01,2013-04-09 15:40:00,
2013-04-09 11:41:00,78.2,66.3,30.24,SE,136,6.5,18.2,67,0.00,,---,0.00,VWS V14.01,2013-04-09 15:41:00,
2013-04-09 11:42:00,78.3,66.4,30.24,South,169,7.4,18.2,67,0.00,,---,0.00,VWS V14.01,2013-04-09 15:42:00,
2013-04-09 11:43:00,78.3,65.8,30.24,South,186,13.2,18.2,65,0.00,,---,0.00,VWS V14.01,2013-04-09 15:43:00,
2013-04-09 11:44:00,78.1,65.1,30.24,South,174,10.3,18.2,64,0.00,,---,0.00,VWS V14.01,2013-04-09 15:44:00,
2013-04-09 11:45:00,78.1,65.1,30.24,SSW,198,9.4,18.2,64,0.00,,---,0.00,VWS V14.01,2013-04-09 15:45:00,
2013-04-09 11:46:00,78.3,65.3,30.24,SSW,208,6.0,18.2,64,0.00,,---,0.00,VWS V14.01,2013-04-09 15:46:00,
2013-04-09 11:47:00,78.1,65.4,30.24,SE,135,7.7,18.2,65,0.00,,---,0.00,VWS V14.01,2013-04-09 15:47:00,
2013-04-09 11:48:00,78.3,65.5,30.24,SSE,163,8.9,18.2,65,0.00,,---,0.00,VWS V14.01,2013-04-09 15:48:00,
2013-04-09 11:49:00,78.4,65.8,30.24,SE,125,11.9,18.2,65,0.00,,---,0.00,VWS V14.01,2013-04-09 15:49:00,
2013-04-09 11:50:00,78.3,65.8,30.24,SSW,201,7.1,18.2,66,0.00,,---,0.00,VWS V14.01,2013-04-09 15:50:00,
2013-04-09 11:51:00,78.5,66.2,30.24,ESE,115,4.8,18.2,66,0.00,,---,0.00,VWS V14.01,2013-04-09 15:51:00,
2013-04-09 11:52:00,78.4,65.9,30.23,South,187,11.4,18.2,66,0.00,,---,0.00,VWS V14.01,2013-04-09 15:52:00,
2013-04-09 11:53:00,78.3,65.4,30.23,SSE,165,9.8,18.2,65,0.00,,---,0.00,VWS V14.01,2013-04-09 15:53:00,
2013-04-09 11:54:00,78.4,65.5,30.23,SSW,195,6.3,18.2,65,0.00,,---,0.00,VWS V14.01,2013-04-09 15:54:00,
2013-04-09 11:55:00,78.5,65.8,30.23,SSW,197,11.7,18.2,65,0.00,,---,0.00,VWS V14.01,2013-04-09 15:55:00,
2013-04-09 11:56:00,78.2,65.7,30.23,South,179,5.4,18.2,66,0.00,,---,0.00,VWS V14.01,2013-04-09 15:56:00,
2013-04-09 11:57:00,78.3,65.9,30.23,ESE,104,6.6,18.2,66,0.00,,---,0.00,VWS V14.01,2013-04-09 15:57:00,
2013-04-09 11:58:00,78.3,65.9,30.23,South,188,8.6,18.2,66,0.00,,---,0.00,VWS V14.01,2013-04-09 15:58:00,
2013-04-09 11:59:00,78.3,65.7,30.23,South,177,5.5,18.2,65,0.00,,---,0.00,VWS V14.01,2013-04-09 15:59:00,
2013-04-09 12:00:00,78.2,65.7,30.23,South,179,11.6,18.2,65,0.00,,---,0.00,VWS V14.01,2013-04-09 16:00:00,
2013-04-09 12:01:00,78.0,65.9,30.23,South,186,9.1,18.2,66,0.00,,---,0.00,VWS V14.01,2013-04-09 16:01:00,
2013-04-09 12:02:00,78.0,66.2,30.23,SSW,204,9.6,18.2,67,0.00,,---,0.00,VWS V14.01,2013-04-09 16:02:00,
2013-04-09 12:03:00,77.7,65.9,30.23,SSW,200,8.8,18.2,67,0.00,,---,0.00,VWS V14.01,2013-04-09 16:03:00,
2013-04-09 12:04:00,77.9,66.1,30.23,South,169,8.1,18.2,67,0.00,,---,0.00,VWS V14.01,2013-04-09 16:04:00,
2013-04-09 12:05:00,77.8,66.1,30.23,South,183,9.1,18.2,67,0.00,,---,0.00,VWS V14.01,2013-04-09 16:05:00,
2013-04-09 12:06:00,77.8,66.1,30.23,South,184,5.8,18.2,67,0.00,,---,0.00,VWS V14.01,2013-04-09 16:06:00,
2013-04-09 12:07:00,78.0,66.2,30.23,South,170,4.1,18.2,67,0.00,,---,0.00,VWS V14.01,2013-04-09 16:07:00,
2013-04-09 12:08:00,78.0,66.5,30.23,SSE,167,4.0,18.2,68,0.00,,---,0.00,VWS V14.01,2013-04-09 16:08:00,
2013-04-09 12:09:00,77.9,65.7,30.23,South,184,11.2,18.2,66,0.00,,---,0.00,VWS V14.01,2013-04-09 16:09:00,
2013-04-09 12:10:00,78.1,66.1,30.23,SSW,197,5.3,18.2,67,0.00,,---,0.00,VWS V14.01,2013-04-09 16:10:00,
2013-04-09 12:11:00,78.1,66.1,30.23,SE,143,4.5,18.2,67,0.00,,---,0.00,VWS V14.01,2013-04-09 16:11:00,
2013-04-09 12:12:00,78.1,65.7,30.23,SSE,158,9.4,18.2,66,0.00,,---,0.00,VWS V14.01,2013-04-09 16:12:00,
2013-04-09 12:13:00,78.0,66.1,30.23,South,173,7.1,18.2,67,0.00,,---,0.00,VWS V14.01,2013-04-09 16:13:00,
2013-04-09 12:14:00,78.0,66.1,30.23,South,180,5.9,18.2,67,0.00,,---,0.00,VWS V14.01,2013-04-09 16:14:00,
2013-04-09 12:15:00,78.0,65.9,30.23,SSE,165,10.3,18.2,66,0.00,,---,0.00,VWS V14.01,2013-04-09 16:15:00,
2013-04-09 12:16:00,77.9,66.0,30.23,SSE,149,7.5,18.2,67,0.00,,---,0.00,VWS V14.01,2013-04-09 16:16:00,
2013-04-09 12:17:00,77.9,65.9,30.23,SE,139,9.8,18.2,67,0.00,,---,0.00,VWS V14.01,2013-04-09 16:17:00,
2013-04-09 12:18:00,77.9,66.0,30.23,South,186,8.3,18.2,67,0.00,,---,0.00,VWS V14.01,2013-04-09 16:18:00,
2013-04-09 12:19:00,77.8,65.8,30.23,South,169,6.5,18.2,67,0.00,,---,0.00,VWS V14.01,2013-04-09 16:19:00,
2013-04-09 12:20:00,77.4,65.6,30.23,South,174,5.9,18.2,67,0.00,,---,0.00,VWS V14.01,2013-04-09 16:20:00,
2013-04-09 12:21:00,77.3,65.6,30.23,ESE,111,7.5,18.2,67,0.00,,---,0.00,VWS V14.01,2013-04-09 16:21:00,
2013-04-09 12:22:00,77.5,66.0,30.23,South,169,8.0,18.2,68,0.00,,---,0.00,VWS V14.01,2013-04-09 16:22:00,
2013-04-09 12:23:00,77.4,66.1,30.22,SSE,167,9.2,18.2,68,0.00,,---,0.00,VWS V14.01,2013-04-09 16:23:00,
2013-04-09 12:24:00,77.9,66.4,30.22,SSW,193,9.2,18.2,68,0.00,,---,0.00,VWS V14.01,2013-04-09 16:24:00,
2013-04-09 12:25:00,77.7,66.1,30.22,South,183,6.4,18.2,68,0.00,,---,0.00,VWS V14.01,2013-04-09 16:25:00,
2013-04-09 12:26:00,77.7,65.8,30.22,SSE,152,7.1,18.2,67,0.00,,---,0.00,VWS V14.01,2013-04-09 16:26:00,
2013-04-09 12:27:00,77.7,65.7,30.22,SSW,195,9.4,18.2,67,0.00,,---,0.00,VWS V14.01,2013-04-09 16:27:00,
2013-04-09 12:28:00,77.7,65.8,30.22,South,187,5.9,18.2,67,0.00,,---,0.00,VWS V14.01,2013-04-09 16:28:00,
2013-04-09 12:29:00,77.8,65.6,30.22,SSW,200,12.7,18.2,66,0.00,,---,0.00,VWS V14.01,2013-04-09 16:29:00,
2013-04-09 12:30:00,77.4,65.2,30.22,South,177,5.0,18.2,66,0.00,,---,0.00,VWS V14.01,2013-04-09 16:30:00,
2013-04-09 12:31:00,77.5,65.0,30.22,SE,132,8.2,18.2,66,0.00,,---,0.00,VWS V14.01,2013-04-09 16:31:00,
2013-04-09 12:32:00,77.4,65.3,30.22,South,170,7.5,18.2,66,0.00,,---,0.00,VWS V14.01,2013-04-09 16:32:00,
2013-04-09 12:33:00,77.4,65.3,30.23,SSE,163,6.7,18.2,66,0.00,,---,0.00,VWS V14.01,2013-04-09 16:33:00,
2013-04-09 12:34:00,77.8,65.9,30.22,South,173,7.8,18.2,67,0.00,,---,0.00,VWS V14.01,2013-04-09 16:34:00,
2013-04-09 12:35:00,78.0,66.0,30.22,SE,131,9.4,18.2,67,0.00,,---,0.00,VWS V14.01,2013-04-09 16:35:00,
2013-04-09 12:36:00,77.9,65.3,30.22,South,181,8.9,18.2,65,0.00,,---,0.00,VWS V14.01,2013-04-09 16:36:00,
2013-04-09 12:37:00,78.1,65.5,30.22,South,172,3.7,18.2,65,0.00,,---,0.00,VWS V14.01,2013-04-09 16:37:00,
2013-04-09 12:38:00,78.2,65.4,30.22,SSE,166,7.6,18.2,65,0.00,,---,0.00,VWS V14.01,2013-04-09 16:38:00,
2013-04-09 12:39:00,78.1,65.2,30.22,South,187,6.5,18.2,64,0.00,,---,0.00,VWS V14.01,2013-04-09 16:39:00,
2013-04-09 12:40:00,78.1,65.0,30.23,SSW,194,5.4,18.2,64,0.00,,---,0.00,VWS V14.01,2013-04-09 16:40:00,
2013-04-09 12:41:00,78.2,65.7,30.22,South,183,6.8,18.2,66,0.00,,---,0.00,VWS V14.01,2013-04-09 16:41:00,
2013-04-09 12:42:00,78.2,65.9,30.22,SE,128,10.1,18.2,66,0.00,,---,0.00,VWS V14.01,2013-04-09 16:42:00,
2013-04-09 12:43:00,78.2,65.8,30.22,South,181,6.2,18.2,66,0.00,,---,0.00,VWS V14.01,2013-04-09 16:43:00,
2013-04-09 12:44:00,78.3,66.1,30.22,South,179,5.2,18.2,66,0.00,,---,0.00,VWS V14.01,2013-04-09 16:44:00,
2013-04-09 12:45:00,78.3,65.8,30.22,South,191,9.3,18.2,66,0.00,,---,0.00,VWS V14.01,2013-04-09 16:45:00,
2013-04-09 12:46:00,78.2,65.7,30.22,SSE,159,9.4,18.2,65,0.00,,---,0.00,VWS V14.01,2013-04-09 16:46:00,
2013-04-09 12:47:00,78.2,65.1,30.23,WSW,240,5.7,18.2,64,0.00,,---,0.00,VWS V14.01,2013-04-09 16:47:00,
2013-04-09 12:48:00,78.2,65.4,30.22,South,188,10.1,18.2,65,0.00,,---,0.00,VWS V14.01,2013-04-09 16:48:00,
2013-04-09 12:49:00,78.1,65.5,30.22,South,181,9.8,18.2,65,0.00,,---,0.00,VWS V14.01,2013-04-09 16:49:00,
2013-04-09 12:50:00,78.0,65.9,30.23,South,188,4.1,18.2,66,0.00,,---,0.00,VWS V14.01,2013-04-09 16:50:00,
2013-04-09 12:51:00,77.9,66.0,30.23,South,176,7.5,18.2,67,0.00,,---,0.00,VWS V14.01,2013-04-09 16:51:00,
2013-04-09 12:52:00,78.0,66.2,30.23,South,190,4.2,18.2,67,0.00,,---,0.00,VWS V14.01,2013-04-09 16:52:00,
2013-04-09 12:53:00,78.1,66.3,30.22,SSE,153,8.8,18.2,67,0.00,,---,0.00,VWS V14.01,2013-04-09 16:53:00,
2013-04-09 12:54:00,78.0,66.1,30.22,South,190,8.3,18.2,67,0.00,,---,0.00,VWS V14.01,2013-04-09 16:54:00,
2013-04-09 12:55:00,78.0,65.8,30.22,SSW,194,10.3,18.2,66,0.00,,---,0.00,VWS V14.01,2013-04-09 16:55:00,
2013-04-09 12:56:00,78.0,66.0,30.22,SE,129,8.9,18.2,67,0.00,,---,0.00,VWS V14.01,2013-04-09 16:56:00,
2013-04-09 12:57:00,77.7,65.8,30.22,SE,143,7.2,18.2,67,0.00,,---,0.00,VWS V14.01,2013-04-09 16:57:00,
2013-04-09 12:58:00,77.9,66.2,30.22,SE,143,4.0,18.2,67,0.00,,---,0.00,VWS V14.01,2013-04-09 16:58:00,
2013-04-09 12:59:00,77.7,65.7,30.22,SSW,194,11.3,18.2,67,0.00,,---,0.00,VWS V14.01,2013-04-09 16:59:00,
2013-04-09 13:00:00,77.7,65.4,30.22,SSE,149,10.7,18.2,66,0.00,,---,0.00,VWS V14.01,2013-04-09 17:00:00,
2013-04-09 13:01:00,77.4,65.4,30.22,SE,141,4.9,18.2,66,0.00,,---,0.00,VWS V14.01,2013-04-09 17:01:00,
2013-04-09 13:02:00,77.4,65.6,30.22,SSE,155,8.5,18.2,67,0.00,,---,0.00,VWS V14.01,2013-04-09 17:02:00,
2013-04-09 13:03:00,77.4,65.6,30.22,South,169,9.6,18.2,67,0.00,,---,0.00,VWS V14.01,2013-04-09 17:03:00,
2013-04-09 13:04:00,77.4,65.8,30.22,South,179,8.2,18.2,68,0.00,,---,0.00,VWS V14.01,2013-04-09 17:04:00,
2013-04-09 13:05:00,77.2,65.7,30.23,East,79,6.6,18.2,68,0.00,,---,0.00,VWS V14.01,2013-04-09 17:05:00,
2013-04-09 13:06:00,77.2,65.9,30.23,SSE,165,5.5,18.2,68,0.00,,---,0.00,VWS V14.01,2013-04-09 17:06:00,
2013-04-09 13:07:00,77.3,66.1,30.22,South,174,11.6,18.2,68,0.00,,---,0.00,VWS V14.01,2013-04-09 17:07:00,
2013-04-09 13:08:00,77.2,65.5,30.22,South,181,7.9,18.2,67,0.00,,---,0.00,VWS V14.01,2013-04-09 17:08:00,
2013-04-09 13:09:00,77.4,66.0,30.22,South,174,3.2,18.2,68,0.00,,---,0.00,VWS V14.01,2013-04-09 17:09:00,
2013-04-09 13:10:00,77.3,65.8,30.22,SSW,200,7.0,18.2,68,0.00,,---,0.00,VWS V14.01,2013-04-09 17:10:00,
2013-04-09 13:11:00,77.5,65.5,30.22,ESE,108,7.8,18.2,66,0.00,,---,0.00,VWS V14.01,2013-04-09 17:11:00,
2013-04-09 13:12:00,77.8,65.8,30.22,East,93,9.1,18.2,67,0.00,,---,0.00,VWS V14.01,2013-04-09 17:12:00,
2013-04-09 13:13:00,77.9,65.2,30.22,SSW,193,7.1,18.2,65,0.00,,---,0.00,VWS V14.01,2013-04-09 17:13:00,
2013-04-09 13:14:00,78.2,64.9,30.22,South,187,11.9,18.2,64,0.00,,---,0.00,VWS V14.01,2013-04-09 17:14:00,
2013-04-09 13:15:00,78.3,64.9,30.22,South,180,12.3,18.2,63,0.00,,---,0.00,VWS V14.01,2013-04-09 17:15:00,
2013-04-09 13:16:00,78.3,65.0,30.22,South,187,9.2,18.2,64,0.00,,---,0.00,VWS V14.01,2013-04-09 17:16:00,
2013-04-09 13:17:00,78.4,65.3,30.22,South,179,7.5,18.2,64,0.00,,---,0.00,VWS V14.01,2013-04-09 17:17:00,
2013-04-09 13:18:00,78.7,65.2,30.22,SSW,195,13.3,18.2,63,0.00,,---,0.00,VWS V14.01,2013-04-09 17:18:00,
2013-04-09 13:19:00,78.9,65.4,30.22,SSE,160,4.2,18.2,63,0.00,,---,0.00,VWS V14.01,2013-04-09 17:19:00,
2013-04-09 13:20:00,79.0,66.0,30.22,ENE,66,5.3,18.2,64,0.00,,---,0.00,VWS V14.01,2013-04-09 17:20:00,
2013-04-09 13:21:00,79.3,66.2,30.22,SSW,194,6.6,18.2,64,0.00,,---,0.00,VWS V14.01,2013-04-09 17:21:00,
2013-04-09 13:22:00,79.7,66.4,30.22,South,183,5.2,18.2,64,0.00,,---,0.00,VWS V14.01,2013-04-09 17:22:00,
2013-04-09 13:23:00,79.8,66.2,30.22,SSE,148,9.1,18.2,63,0.00,,---,0.00,VWS V14.01,2013-04-09 17:23:00,
2013-04-09 13:24:00,79.9,65.4,30.22,South,170,5.1,18.2,61,0.00,,---,0.00,VWS V14.01,2013-04-09 17:24:00,
2013-04-09 13:25:00,80.0,65.9,30.21,South,187,5.8,18.2,62,0.00,,---,0.00,VWS V14.01,2013-04-09 17:25:00,
2013-04-09 13:26:00,80.2,65.5,30.22,South,190,5.0,18.2,61,0.00,,---,0.00,VWS V14.01,2013-04-09 17:26:00,
2013-04-09 13:27:00,80.4,65.2,30.21,SSE,153,5.0,18.2,60,0.00,,---,0.00,VWS V14.01,2013-04-09 17:27:00,
2013-04-09 13:28:00,80.5,66.3,30.21,East,90,10.1,18.2,62,0.00,,---,0.00,VWS V14.01,2013-04-09 17:28:00,
2013-04-09 13:29:00,80.3,64.9,30.21,SSE,150,11.7,18.2,59,0.00,,---,0.00,VWS V14.01,2013-04-09 17:29:00,
2013-04-09 13:30:00,80.4,64.6,30.21,South,172,9.7,18.2,59,0.00,,---,0.00,VWS V14.01,2013-04-09 17:30:00,
2013-04-09 13:31:00,80.5,65.6,30.21,South,172,12.6,18.2,60,0.00,,---,0.00,VWS V14.01,2013-04-09 17:31:00,
2013-04-09 13:32:00,80.3,64.9,30.21,SE,128,9.9,18.2,60,0.00,,---,0.00,VWS V14.01,2013-04-09 17:32:00,
2013-04-09 13:33:00,79.5,65.0,30.21,South,176,9.6,18.2,61,0.00,,---,0.00,VWS V14.01,2013-04-09 17:33:00,
2013-04-09 13:34:00,79.4,65.9,30.21,South,177,15.3,18.2,64,0.00,,---,0.00,VWS V14.01,2013-04-09 17:34:00,
2013-04-09 13:35:00,79.4,65.9,30.21,ENE,77,8.7,18.2,64,0.00,,---,0.00,VWS V14.01,2013-04-09 17:35:00,
2013-04-09 13:36:00,79.2,65.8,30.21,SSE,158,11.7,18.2,64,0.00,,---,0.00,VWS V14.01,2013-04-09 17:36:00,
2013-04-09 13:37:00,79.0,65.9,30.21,South,183,7.3,18.2,64,0.00,,---,0.00,VWS V14.01,2013-04-09 17:37:00,
2013-04-09 13:38:00,79.2,66.2,30.21,South,170,8.1,18.2,64,0.00,,---,0.00,VWS V14.01,2013-04-09 17:38:00,
2013-04-09 13:39:00,79.3,65.9,30.21,SSE,167,9.6,18.2,64,0.00,,---,0.00,VWS V14.01,2013-04-09 17:39:00,
2013-04-09 13:40:00,79.2,65.6,30.21,ESE,112,8.7,18.2,63,0.00,,---,0.00,VWS V14.01,2013-04-09 17:40:00,
2013-04-09 13:41:00,79.1,65.8,30.21,SSE,160,8.3,18.2,64,0.00,,---,0.00,VWS V14.01,2013-04-09 17:41:00,
2013-04-09 13:42:00,79.1,66.0,30.20,South,176,10.1,18.2,64,0.00,,---,0.00,VWS V14.01,2013-04-09 17:42:00,
2013-04-09 13:43:00,79.2,66.0,30.20,South,184,6.0,18.2,64,0.00,,---,0.00,VWS V14.01,2013-04-09 17:43:00,
2013-04-09 13:44:00,79.3,66.3,30.20,SSW,201,8.0,18.2,64,0.00,,---,0.00,VWS V14.01,2013-04-09 17:44:00,
2013-04-09 13:45:00,79.7,66.9,30.20,South,186,8.7,18.2,65,0.00,,---,0.00,VWS V14.01,2013-04-09 17:45:00,
2013-04-09 13:46:00,79.4,66.0,30.20,SSW,201,9.1,18.2,64,0.00,,---,0.00,VWS V14.01,2013-04-09 17:46:00,
2013-04-09 13:47:00,79.7,66.0,30.20,SSE,148,8.1,18.2,63,0.00,,---,0.00,VWS V14.01,2013-04-09 17:47:00,
2013-04-09 13:48:00,79.5,65.6,30.20,South,181,5.5,18.2,63,0.00,,---,0.00,VWS V14.01,2013-04-09 17:48:00,
2013-04-09 13:49:00,79.7,66.1,30.20,SSE,162,6.9,18.2,63,0.00,,---,0.00,VWS V14.01,2013-04-09 17:49:00,
2013-04-09 13:50:00,80.1,66.4,30.20,South,173,8.5,18.2,63,0.00,,---,0.00,VWS V14.01,2013-04-09 17:50:00,
2013-04-09 13:51:00,79.9,65.0,30.20,SSE,153,9.6,18.2,60,0.00,,---,0.00,VWS V14.01,2013-04-09 17:51:00,
2013-04-09 13:52:00,79.8,65.4,30.20,SE,139,9.7,18.2,62,0.00,,---,0.00,VWS V14.01,2013-04-09 17:52:00,
2013-04-09 13:53:00,79.7,65.4,30.20,South,177,6.6,18.2,62,0.00,,---,0.00,VWS V14.01,2013-04-09 17:53:00,
2013-04-09 13:54:00,79.8,65.7,30.20,SSW,198,7.7,18.2,62,0.00,,---,0.00,VWS V14.01,2013-04-09 17:54:00,
2013-04-09 13:55:00,79.8,65.6,30.20,SSE,153,9.9,18.2,62,0.00,,---,0.00,VWS V14.01,2013-04-09 17:55:00,
2013-04-09 13:56:00,79.8,66.2,30.20,South,170,8.8,18.2,63,0.00,,---,0.00,VWS V14.01,2013-04-09 17:56:00,
2013-04-09 13:57:00,79.9,66.1,30.20,SE,135,9.8,18.2,63,0.00,,---,0.00,VWS V14.01,2013-04-09 17:57:00,
2013-04-09 13:58:00,79.9,66.2,30.20,ESE,104,7.8,18.2,63,0.00,,---,0.00,VWS V14.01,2013-04-09 17:58:00,
2013-04-09 13:59:00,79.4,65.4,30.20,South,188,8.6,18.2,62,0.00,,---,0.00,VWS V14.01,2013-04-09 17:59:00,
2013-04-09 14:00:00,79.7,66.1,30.20,SE,138,3.4,18.2,63,0.00,,---,0.00,VWS V14.01,2013-04-09 18:00:00,
2013-04-09 14:01:00,79.5,65.9,30.20,SSE,159,7.6,18.2,63,0.00,,---,0.00,VWS V14.01,2013-04-09 18:01:00,
2013-04-09 14:02:00,79.7,65.3,30.20,SSW,194,8.9,18.2,61,0.00,,---,0.00,VWS V14.01,2013-04-09 18:02:00,
2013-04-09 14:03:00,79.5,65.4,30.20,South,176,7.8,18.2,62,0.00,,---,0.00,VWS V14.01,2013-04-09 18:03:00,
2013-04-09 14:04:00,79.8,65.3,30.20,South,169,9.4,18.2,61,0.00,,---,0.00,VWS V14.01,2013-04-09 18:04:00,
2013-04-09 14:05:00,79.9,65.7,30.20,SSE,166,8.0,18.2,62,0.00,,---,0.00,VWS V14.01,2013-04-09 18:05:00,
2013-04-09 14:06:00,80.0,65.4,30.20,South,177,5.7,18.2,61,0.00,,---,0.00,VWS V14.01,2013-04-09 18:06:00,
2013-04-09 14:07:00,79.8,65.2,30.20,SSE,148,11.9,18.2,61,0.00,,---,0.00,VWS V14.01,2013-04-09 18:07:00,
2013-04-09 14:08:00,79.5,65.0,30.20,SE,124,13.5,18.2,61,0.00,,---,0.00,VWS V14.01,2013-04-09 18:08:00,
2013-04-09 14:09:00,79.2,65.3,30.20,SSE,149,5.5,18.2,62,0.00,,---,0.00,VWS V14.01,2013-04-09 18:09:00,
2013-04-09 14:10:00,79.2,65.5,30.20,South,186,7.5,18.2,63,0.00,,---,0.00,VWS V14.01,2013-04-09 18:10:00,
2013-04-09 14:11:00,78.9,65.4,30.20,ESE,118,8.9,18.2,63,0.00,,---,0.00,VWS V14.01,2013-04-09 18:11:00,
2013-04-09 14:12:00,78.8,65.2,30.20,SSE,150,7.1,18.2,63,0.00,,---,0.00,VWS V14.01,2013-04-09 18:12:00,
2013-04-09 14:13:00,78.8,65.2,30.19,SE,127,13.4,18.2,63,0.00,,---,0.00,VWS V14.01,2013-04-09 18:13:00,
2013-04-09 14:14:00,78.7,65.6,30.20,SE,146,9.6,18.2,64,0.00,,---,0.00,VWS V14.01,2013-04-09 18:14:00,
2013-04-09 14:15:00,78.5,65.4,30.20,SE,142,11.5,18.2,64,0.00,,---,0.00,VWS V14.01,2013-04-09 18:15:00,
2013-04-09 14:16:00,78.8,65.5,30.20,ENE,73,7.3,18.2,64,0.00,,---,0.00,VWS V14.01,2013-04-09 18:16:00,
2013-04-09 14:17:00,78.7,66.3,30.19,South,184,8.6,18.2,66,0.00,,---,0.00,VWS V14.01,2013-04-09 18:17:00,
2013-04-09 14:18:00,78.8,66.1,30.20,East,94,6.4,18.2,65,0.00,,---,0.00,VWS V14.01,2013-04-09 18:18:00,
2013-04-09 14:19:00,78.9,66.0,30.19,South,179,7.4,18.2,65,0.00,,---,0.00,VWS V14.01,2013-04-09 18:19:00,
2013-04-09 14:20:00,78.9,66.3,30.19,South,186,8.3,18.2,65,0.00,,---,0.00,VWS V14.01,2013-04-09 18:20:00,
2013-04-09 14:21:00,79.0,65.7,30.19,South,184,9.6,18.2,64,0.00,,---,0.00,VWS V14.01,2013-04-09 18:21:00,
2013-04-09 14:22:00,79.1,65.8,30.19,South,174,4.1,18.2,64,0.00,,---,0.00,VWS V14.01,2013-04-09 18:22:00,
2013-04-09 14:23:00,79.3,65.8,30.19,SE,146,6.6,18.2,64,0.00,,---,0.00,VWS V14.01,2013-04-09 18:23:00,
2013-04-09 14:24:00,79.4,65.3,30.19,SSW,197,9.5,18.2,62,0.00,,---,0.00,VWS V14.01,2013-04-09 18:24:00,
2013-04-09 14:25:00,79.4,65.7,30.19,East,91,11.6,18.2,63,0.00,,---,0.00,VWS V14.01,2013-04-09 18:25:00,
2013-04-09 14:26:00,79.1,65.8,30.19,South,174,5.8,18.2,64,0.00,,---,0.00,VWS V14.01,2013-04-09 18:26:00,
2013-04-09 14:27:00,78.8,66.1,30.19,SSE,152,8.6,18.2,65,0.00,,---,0.00,VWS V14.01,2013-04-09 18:27:00,
2013-04-09 14:28:00,78.9,66.7,30.19,SSE,163,8.8,18.2,66,0.00,,---,0.00,VWS V14.01,2013-04-09 18:28:00,
2013-04-09 14:29:00,78.5,65.9,30.19,South,184,7.9,18.2,65,0.00,,---,0.00,VWS V14.01,2013-04-09 18:29:00,
2013-04-09 14:30:00,78.7,66.1,30.19,South,188,8.9,18.2,65,0.00,,---,0.00,VWS V14.01,2013-04-09 18:30:00,
2013-04-09 14:31:00,78.4,65.7,30.19,SSE,165,7.6,18.2,65,0.00,,---,0.00,VWS V14.01,2013-04-09 18:31:00,
2013-04-09 14:32:00,78.3,65.6,30.19,ESE,115,8.3,18.2,65,0.00,,---,0.00,VWS V14.01,2013-04-09 18:32:00,
2013-04-09 14:33:00,78.1,65.1,30.19,South,173,5.3,18.2,64,0.00,,---,0.00,VWS V14.01,2013-04-09 18:33:00,
2013-04-09 14:34:00,78.2,65.4,30.19,SSW,194,4.3,18.2,65,0.00,,---,0.00,VWS V14.01,2013-04-09 18:34:00,
2013-04-09 14:35:00,78.3,65.6,30.19,SE,135,9.1,18.2,65,0.00,,---,0.00,VWS V14.01,2013-04-09 18:35:00,
2013-04-09 14:36:00,78.3,65.6,30.19,SE,129,4.5,18.2,65,0.00,,---,0.00,VWS V14.01,2013-04-09 18:36:00,
2013-04-09 14:37:00,78.5,66.0,30.19,ESE,103,4.2,18.2,66,0.00,,---,0.00,VWS V14.01,2013-04-09 18:37:00,
2013-04-09 14:38:00,78.5,65.9,30.19,ENE,72,9.7,18.2,65,0.00,,---,0.00,VWS V14.01,2013-04-09 18:38:00,
2013-04-09 14:39:00,78.7,66.0,30.19,SSE,158,7.0,18.2,65,0.00,,---,0.00,VWS V14.01,2013-04-09 18:39:00,
2013-04-09 14:40:00,78.8,66.0,30.19,South,177,6.0,18.2,65,0.00,,---,0.00,VWS V14.01,2013-04-09 18:40:00,
2013-04-09 14:41:00,78.9,66.0,30.19,SE,135,5.5,18.2,65,0.00,,---,0.00,VWS V14.01,2013-04-09 18:41:00,
2013-04-09 14:42:00,78.8,65.4,30.19,SE,132,8.3,18.2,64,0.00,,---,0.00,VWS V14.01,2013-04-09 18:42:00,
2013-04-09 14:43:00,78.5,65.1,30.19,East,93,6.0,18.2,63,0.00,,---,0.00,VWS V14.01,2013-04-09 18:43:00,
2013-04-09 14:44:00,78.3,65.2,30.19,South,172,7.6,18.2,64,0.00,,---,0.00,VWS V14.01,2013-04-09 18:44:00,
2013-04-09 14:45:00,78.2,65.3,30.19,SE,143,9.8,18.2,64,0.00,,---,0.00,VWS V14.01,2013-04-09 18:45:00,
2013-04-09 14:46:00,78.3,65.6,30.19,ESE,122,7.0,18.2,65,0.00,,---,0.00,VWS V14.01,2013-04-09 18:46:00,
2013-04-09 14:47:00,78.1,65.6,30.19,SE,127,12.6,18.2,65,0.00,,---,0.00,VWS V14.01,2013-04-09 18:47:00,
2013-04-09 14:48:00,77.7,65.4,30.19,ESE,105,4.5,18.2,66,0.00,,---,0.00,VWS V14.01,2013-04-09 18:48:00,
2013-04-09 14:49:00,77.8,65.6,30.19,SSE,163,8.8,18.2,66,0.00,,---,0.00,VWS V14.01,2013-04-09 18:49:00,
2013-04-09 14:50:00,77.5,65.3,30.19,SSE,165,9.8,18.2,66,0.00,,---,0.00,VWS V14.01,2013-04-09 18:50:00,
2013-04-09 14:51:00,77.3,65.5,30.19,ESE,110,5.9,18.2,67,0.00,,---,0.00,VWS V14.01,2013-04-09 18:51:00,
2013-04-09 14:52:00,77.3,65.3,30.18,SE,143,8.1,18.2,67,0.00,,---,0.00,VWS V14.01,2013-04-09 18:52:00,
2013-04-09 14:53:00,77.3,65.7,30.19,NE,56,11.7,18.2,67,0.00,,---,0.00,VWS V14.01,2013-04-09 18:53:00,
2013-04-09 14:54:00,77.4,65.2,30.19,SSE,166,6.5,18.2,66,0.00,,---,0.00,VWS V14.01,2013-04-09 18:54:00,
2013-04-09 14:55:00,77.5,65.1,30.19,East,94,8.5,18.2,66,0.00,,---,0.00,VWS V14.01,2013-04-09 18:55:00,
2013-04-09 14:56:00,77.5,65.0,30.18,ESE,105,9.4,18.2,66,0.00,,---,0.00,VWS V14.01,2013-04-09 18:56:00,
2013-04-09 14:57:00,77.7,65.4,30.19,SSE,163,11.1,18.2,66,0.00,,---,0.00,VWS V14.01,2013-04-09 18:57:00,
2013-04-09 14:58:00,77.8,65.0,30.19,SE,136,8.9,18.2,65,0.00,,---,0.00,VWS V14.01,2013-04-09 18:58:00,
2013-04-09 14:59:00,77.7,65.0,30.19,ESE,108,8.8,18.2,65,0.00,,---,0.00,VWS V14.01,2013-04-09 18:59:00,
2013-04-09 15:00:00,77.3,65.0,30.18,SSE,156,8.4,18.2,66,0.00,,---,0.00,VWS V14.01,2013-04-09 19:00:00,
2013-04-09 15:01:00,77.4,65.3,30.18,SE,146,8.5,18.2,66,0.00,,---,0.00,VWS V14.01,2013-04-09 19:01:00,
2013-04-09 15:02:00,77.3,65.2,30.18,SSE,149,6.0,18.2,66,0.00,,---,0.00,VWS V14.01,2013-04-09 19:02:00,
2013-04-09 15:03:00,77.3,65.5,30.18,South,174,6.2,18.2,67,0.00,,---,0.00,VWS V14.01,2013-04-09 19:03:00,
2013-04-09 15:04:00,77.4,65.1,30.18,South,169,8.8,18.2,66,0.00,,---,0.00,VWS V14.01,2013-04-09 19:04:00,
2013-04-09 15:05:00,77.7,65.1,30.18,SSE,156,15.3,18.2,65,0.00,,---,0.00,VWS V14.01,2013-04-09 19:05:00,
2013-04-09 15:06:00,77.5,64.9,30.18,South,172,6.4,18.2,65,0.00,,---,0.00,VWS V14.01,2013-04-09 19:06:00,
2013-04-09 15:07:00,77.4,65.2,30.18,ESE,122,9.0,18.2,66,0.00,,---,0.00,VWS V14.01,2013-04-09 19:07:00,
2013-04-09 15:08:00,77.3,65.2,30.18,South,180,9.3,18.2,66,0.00,,---,0.00,VWS V14.01,2013-04-09 19:08:00,
2013-04-09 15:09:00,77.8,65.7,30.18,SSE,148,8.9,18.2,66,0.00,,---,0.00,VWS V14.01,2013-04-09 19:09:00,
2013-04-09 15:10:00,77.4,65.3,30.18,SE,145,8.3,18.2,66,0.00,,---,0.00,VWS V14.01,2013-04-09 19:10:00,
2013-04-09 15:11:00,77.5,65.6,30.18,SSE,162,10.1,18.2,67,0.00,,---,0.00,VWS V14.01,2013-04-09 19:11:00,
2013-04-09 15:12:00,77.2,65.4,30.18,East,80,9.6,18.2,67,0.00,,---,0.00,VWS V14.01,2013-04-09 19:12:00,
2013-04-09 15:13:00,77.2,65.4,30.18,SE,136,7.9,18.2,67,0.00,,---,0.00,VWS V14.01,2013-04-09 19:13:00,
2013-04-09 15:14:00,77.1,65.2,30.18,SE,129,7.1,18.2,67,0.00,,---,0.00,VWS V14.01,2013-04-09 19:14:00,
2013-04-09 15:15:00,77.1,65.2,30.18,SE,146,10.9,18.2,67,0.00,,---,0.00,VWS V14.01,2013-04-09 19:15:00,
2013-04-09 15:16:00,76.8,65.3,30.18,East,98,5.8,18.2,68,0.00,,---,0.00,VWS V14.01,2013-04-09 19:16:00,
2013-04-09 15:17:00,76.8,65.2,30.18,SE,145,9.9,18.2,68,0.00,,---,0.00,VWS V14.01,2013-04-09 19:17:00,
2013-04-09 15:18:00,76.7,64.9,30.18,SSE,156,8.1,18.2,67,0.00,,---,0.00,VWS V14.01,2013-04-09 19:18:00,
2013-04-09 15:19:00,76.7,65.2,30.18,SSW,198,9.3,18.2,68,0.00,,---,0.00,VWS V14.01,2013-04-09 19:19:00,
2013-04-09 15:20:00,76.8,65.3,30.18,SE,136,8.9,18.2,68,0.00,,---,0.00,VWS V14.01,2013-04-09 19:20:00,
2013-04-09 15:21:00,76.9,65.2,30.18,SSE,148,8.5,18.2,67,0.00,,---,0.00,VWS V14.01,2013-04-09 19:21:00,
2013-04-09 15:22:00,77.1,65.4,30.18,ESE,120,4.7,18.2,67,0.00,,---,0.00,VWS V14.01,2013-04-09 19:22:00,
2013-04-09 15:23:00,77.2,65.5,30.18,South,191,11.2,18.2,67,0.00,,---,0.00,VWS V14.01,2013-04-09 19:23:00,
2013-04-09 15:24:00,77.1,65.3,30.18,SSE,152,8.8,18.2,67,0.00,,---,0.00,VWS V14.01,2013-04-09 19:24:00,
2013-04-09 15:25:00,77.2,64.9,30.18,SSE,159,6.2,18.2,66,0.00,,---,0.00,VWS V14.01,2013-04-09 19:25:00,
2013-04-09 15:26:00,77.2,65.1,30.18,SE,125,7.0,18.2,66,0.00,,---,0.00,VWS V14.01,2013-04-09 19:26:00,
2013-04-09 15:27:00,77.3,65.2,30.18,SSW,195,8.5,18.2,66,0.00,,---,0.00,VWS V14.01,2013-04-09 19:27:00,
2013-04-09 15:28:00,77.3,65.1,30.18,SE,142,5.6,18.2,66,0.00,,---,0.00,VWS V14.01,2013-04-09 19:28:00,
2013-04-09 15:29:00,77.7,65.3,30.18,SSE,163,5.1,18.2,66,0.00,,---,0.00,VWS V14.01,2013-04-09 19:29:00,
2013-04-09 15:30:00,77.7,65.2,30.18,SSE,166,5.0,18.2,66,0.00,,---,0.00,VWS V14.01,2013-04-09 19:30:00,
2013-04-09 15:31:00,77.9,64.9,30.18,SE,145,3.5,18.2,64,0.00,,---,0.00,VWS V14.01,2013-04-09 19:31:00,
2013-04-09 15:32:00,77.9,64.5,30.18,ENE,60,9.0,18.2,64,0.00,,---,0.00,VWS V14.01,2013-04-09 19:32:00,
2013-04-09 15:33:00,77.7,64.7,30.18,SSE,160,6.5,18.2,64,0.00,,---,0.00,VWS V14.01,2013-04-09 19:33:00,
2013-04-09 15:34:00,77.3,64.7,30.18,East,86,6.4,18.2,65,0.00,,---,0.00,VWS V14.01,2013-04-09 19:34:00,
2013-04-09 15:35:00,77.7,65.2,30.18,ESE,103,5.2,18.2,66,0.00,,---,0.00,VWS V14.01,2013-04-09 19:35:00,
2013-04-09 15:36:00,77.5,65.2,30.18,South,188,6.6,18.2,66,0.00,,---,0.00,VWS V14.01,2013-04-09 19:36:00,
2013-04-09 15:37:00,77.7,64.9,30.18,SE,139,12.0,18.2,65,0.00,,---,0.00,VWS V14.01,2013-04-09 19:37:00,
2013-04-09 15:38:00,77.5,64.7,30.18,SSE,152,5.4,18.2,65,0.00,,---,0.00,VWS V14.01,2013-04-09 19:38:00,
2013-04-09 15:39:00,77.4,64.9,30.18,ESE,122,8.7,18.2,65,0.00,,---,0.00,VWS V14.01,2013-04-09 19:39:00,
2013-04-09 15:40:00,77.3,65.2,30.18,SSE,150,8.2,18.2,66,0.00,,---,0.00,VWS V14.01,2013-04-09 19:40:00,
2013-04-09 15:41:00,77.1,64.6,30.18,SE,124,8.0,18.2,65,0.00,,---,0.00,VWS V14.01,2013-04-09 19:41:00,
2013-04-09 15:42:00,77.2,65.0,30.18,ESE,105,4.8,18.2,66,0.00,,---,0.00,VWS V14.01,2013-04-09 19:42:00,
2013-04-09 15:43:00,77.0,65.1,30.18,SE,136,7.6,18.2,67,0.00,,---,0.00,VWS V14.01,2013-04-09 19:43:00,
2013-04-09 15:44:00,77.0,65.5,30.18,SSE,153,7.3,18.2,68,0.00,,---,0.00,VWS V14.01,2013-04-09 19:44:00,
2013-04-09 15:45:00,77.0,65.5,30.18,ESE,110,3.4,18.2,68,0.00,,---,0.00,VWS V14.01,2013-04-09 19:45:00,
2013-04-09 15:46:00,77.0,65.3,30.18,East,90,7.1,18.2,67,0.00,,---,0.00,VWS V14.01,2013-04-09 19:46:00,
2013-04-09 15:47:00,76.9,65.4,30.18,SSE,158,11.5,18.2,68,0.00,,---,0.00,VWS V14.01,2013-04-09 19:47:00,
2013-04-09 15:48:00,76.8,65.6,30.18,SSE,155,7.5,18.2,68,0.00,,---,0.00,VWS V14.01,2013-04-09 19:48:00,
2013-04-09 15:49:00,76.8,65.4,30.18,East,91,7.8,18.2,68,0.00,,---,0.00,VWS V14.01,2013-04-09 19:49:00,
2013-04-09 15:50:00,76.7,65.3,30.18,SE,134,7.8,18.2,68,0.00,,---,0.00,VWS V14.01,2013-04-09 19:50:00,
2013-04-09 15:51:00,76.7,65.4,30.18,SE,139,6.0,18.2,68,0.00,,---,0.00,VWS V14.01,2013-04-09 19:51:00,
2013-04-09 15:52:00,76.7,65.0,30.18,South,170,10.3,18.2,67,0.00,,---,0.00,VWS V14.01,2013-04-09 19:52:00,
2013-04-09 15:53:00,76.8,64.9,30.18,SSE,159,6.9,18.2,67,0.00,,---,0.00,VWS V14.01,2013-04-09 19:53:00,
2013-04-09 15:54:00,76.6,64.8,30.18,SSE,159,6.6,18.2,67,0.00,,---,0.00,VWS V14.01,2013-04-09 19:54:00,
2013-04-09 15:55:00,76.9,65.2,30.18,SSE,152,5.6,18.2,67,0.00,,---,0.00,VWS V14.01,2013-04-09 19:55:00,
2013-04-09 15:56:00,76.6,64.8,30.18,SSE,162,8.2,18.2,67,0.00,,---,0.00,VWS V14.01,2013-04-09 19:56:00,
2013-04-09 15:57:00,76.4,64.6,30.18,ESE,118,6.7,18.2,67,0.00,,---,0.00,VWS V14.01,2013-04-09 19:57:00,
2013-04-09 15:58:00,76.5,64.9,30.18,SE,134,7.3,18.2,67,0.00,,---,0.00,VWS V14.01,2013-04-09 19:58:00,
2013-04-09 15:59:00,76.6,65.1,30.18,SSE,156,6.7,18.2,68,0.00,,---,0.00,VWS V14.01,2013-04-09 19:59:00,
2013-04-09 16:00:00,76.6,65.1,30.18,South,181,9.3,18.2,68,0.00,,---,0.00,VWS V14.01,2013-04-09 20:00:00,
2013-04-09 16:01:00,76.7,65.3,30.18,South,169,7.1,18.2,68,0.00,,---,0.00,VWS V14.01,2013-04-09 20:01:00,
2013-04-09 16:02:00,76.8,65.4,30.18,SSE,163,6.8,18.2,68,0.00,,---,0.00,VWS V14.01,2013-04-09 20:02:00,
2013-04-09 16:03:00,76.8,65.1,30.18,SSE,148,6.4,18.2,67,0.00,,---,0.00,VWS V14.01,2013-04-09 20:03:00,
2013-04-09 16:04:00,76.8,64.8,30.18,South,190,5.8,18.2,66,0.00,,---,0.00,VWS V14.01,2013-04-09 20:04:00,
2013-04-09 16:05:00,76.9,64.7,30.18,South,177,7.7,18.2,66,0.00,,---,0.00,VWS V14.01,2013-04-09 20:05:00,
2013-04-09 16:06:00,76.8,64.4,30.18,SE,125,9.5,18.2,66,0.00,,---,0.00,VWS V14.01,2013-04-09 20:06:00,
2013-04-09 16:07:00,76.8,64.4,30.18,East,91,4.8,18.2,66,0.00,,---,0.00,VWS V14.01,2013-04-09 20:07:00,
2013-04-09 16:08:00,76.9,64.7,30.18,SSE,167,5.8,18.2,66,0.00,,---,0.00,VWS V14.01,2013-04-09 20:08:00,
2013-04-09 16:09:00,77.0,65.2,30.18,SE,141,10.1,18.2,67,0.00,,---,0.00,VWS V14.01,2013-04-09 20:09:00,
2013-04-09 16:10:00,76.7,65.0,30.18,ESE,121,5.4,18.2,67,0.00,,---,0.00,VWS V14.01,2013-04-09 20:10:00,
2013-04-09 16:11:00,76.8,65.2,30.18,ESE,114,3.9,18.2,68,0.00,,---,0.00,VWS V14.01,2013-04-09 20:11:00,
2013-04-09 16:12:00,76.5,64.9,30.18,SSE,163,6.3,18.2,67,0.00,,---,0.00,VWS V14.01,2013-04-09 20:12:00,
2013-04-09 16:13:00,76.7,65.3,30.18,East,87,3.8,18.2,68,0.00,,---,0.00,VWS V14.01,2013-04-09 20:13:00,
2013-04-09 16:14:00,76.4,65.0,30.18,South,170,12.4,18.2,68,0.00,,---,0.00,VWS V14.01,2013-04-09 20:14:00,
2013-04-09 16:15:00,76.3,65.0,30.18,SSE,159,7.8,18.2,68,0.00,,---,0.00,VWS V14.01,2013-04-09 20:15:00,
2013-04-09 16:16:00,76.3,65.2,30.18,South,174,4.7,18.2,68,0.00,,---,0.00,VWS V14.01,2013-04-09 20:16:00,
2013-04-09 16:17:00,76.5,65.5,30.18,South,174,6.1,18.2,69,0.00,,---,0.00,VWS V14.01,2013-04-09 20:17:00,
2013-04-09 16:18:00,76.5,65.3,30.18,SE,125,4.5,18.2,68,0.00,,---,0.00,VWS V14.01,2013-04-09 20:18:00,
2013-04-09 16:19:00,76.5,65.2,30.18,SE,143,7.3,18.2,68,0.00,,---,0.00,VWS V14.01,2013-04-09 20:19:00,
2013-04-09 16:20:00,76.4,65.2,30.18,South,183,7.0,18.2,68,0.00,,---,0.00,VWS V14.01,2013-04-09 20:20:00,
2013-04-09 16:21:00,76.4,65.2,30.18,SE,124,8.9,18.2,68,0.00,,---,0.00,VWS V14.01,2013-04-09 20:21:00,
2013-04-09 16:22:00,76.6,65.3,30.18,South,187,6.4,18.2,68,0.00,,---,0.00,VWS V14.01,2013-04-09 20:22:00,
2013-04-09 16:23:00,76.7,65.5,30.18,SE,143,9.6,18.2,68,0.00,,---,0.00,VWS V14.01,2013-04-09 20:23:00,
2013-04-09 16:24:00,76.6,65.4,30.18,SSE,156,9.2,18.2,68,0.00,,---,0.00,VWS V14.01,2013-04-09 20:24:00,
2013-04-09 16:25:00,76.8,65.6,30.18,SSE,159,7.6,18.2,68,0.00,,---,0.00,VWS V14.01,2013-04-09 20:25:00,
2013-04-09 16:26:00,76.6,65.4,30.18,SE,139,7.6,18.2,68,0.00,,---,0.00,VWS V14.01,2013-04-09 20:26:00,
2013-04-09 16:27:00,76.7,65.6,30.18,SSE,167,7.7,18.2,68,0.00,,---,0.00,VWS V14.01,2013-04-09 20:27:00,
2013-04-09 16:28:00,76.5,65.5,30.18,NNE,27,6.9,18.2,69,0.00,,---,0.00,VWS V14.01,2013-04-09 20:28:00,
2013-04-09 16:29:00,76.4,65.2,30.18,East,90,4.6,18.2,68,0.00,,---,0.00,VWS V14.01,2013-04-09 20:29:00,
2013-04-09 16:30:00,76.5,65.3,30.18,SSE,162,9.3,18.2,68,0.00,,---,0.00,VWS V14.01,2013-04-09 20:30:00,
2013-04-09 16:31:00,76.3,65.3,30.18,SSE,155,4.8,18.2,69,0.00,,---,0.00,VWS V14.01,2013-04-09 20:31:00,
2013-04-09 16:32:00,76.4,65.4,30.18,South,181,5.7,18.2,69,0.00,,---,0.00,VWS V14.01,2013-04-09 20:32:00,
2013-04-09 16:33:00,76.3,65.3,30.18,ESE,107,4.7,18.2,69,0.00,,---,0.00,VWS V14.01,2013-04-09 20:33:00,
2013-04-09 16:34:00,76.4,65.4,30.18,ESE,115,5.5,18.2,69,0.00,,---,0.00,VWS V14.01,2013-04-09 20:34:00,
2013-04-09 16:35:00,76.4,65.4,30.18,SE,132,7.7,18.2,69,0.00,,---,0.00,VWS V14.01,2013-04-09 20:35:00,
2013-04-09 16:36:00,76.4,65.7,30.18,SE,135,5.5,18.2,69,0.00,,---,0.00,VWS V14.01,2013-04-09 20:36:00,
2013-04-09 16:37:00,76.7,65.9,30.18,ESE,117,4.3,18.2,69,0.00,,---,0.00,VWS V14.01,2013-04-09 20:37:00,
2013-04-09 16:38:00,76.4,65.5,30.18,ESE,117,5.3,18.2,69,0.00,,---,0.00,VWS V14.01,2013-04-09 20:38:00,
2013-04-09 16:39:00,76.4,65.7,30.18,SE,145,6.5,18.2,69,0.00,,---,0.00,VWS V14.01,2013-04-09 20:39:00,
2013-04-09 16:40:00,76.4,65.8,30.18,SE,127,5.3,18.2,70,0.00,,---,0.00,VWS V14.01,2013-04-09 20:40:00,
2013-04-09 16:41:00,76.3,65.8,30.18,SSE,149,9.8,18.2,70,0.00,,---,0.00,VWS V14.01,2013-04-09 20:41:00,
2013-04-09 16:42:00,76.1,65.2,30.18,SSE,150,9.9,18.2,69,0.00,,---,0.00,VWS V14.01,2013-04-09 20:42:00,
2013-04-09 16:43:00,76.2,65.4,30.18,South,169,7.0,18.2,69,0.00,,---,0.00,VWS V14.01,2013-04-09 20:43:00,
2013-04-09 16:44:00,76.2,65.4,30.18,ESE,117,7.2,18.2,69,0.00,,---,0.00,VWS V14.01,2013-04-09 20:44:00,
2013-04-09 16:45:00,76.1,65.3,30.18,SE,134,4.2,18.2,69,0.00,,---,0.00,VWS V14.01,2013-04-09 20:45:00,
2013-04-09 16:46:00,76.3,65.6,30.18,SSE,166,8.6,18.2,69,0.00,,---,0.00,VWS V14.01,2013-04-09 20:46:00,
2013-04-09 16:47:00,76.2,65.5,30.18,SE,128,8.5,18.2,69,0.00,,---,0.00,VWS V14.01,2013-04-09 20:47:00,
2013-04-09 16:48:00,76.2,65.6,30.18,ESE,117,7.2,18.2,70,0.00,,---,0.00,VWS V14.01,2013-04-09 20:48:00,
2013-04-09 16:49:00,76.0,65.5,30.18,South,176,7.8,18.2,70,0.00,,---,0.00,VWS V14.01,2013-04-09 20:49:00,
2013-04-09 16:50:00,76.0,65.5,30.18,SE,139,7.8,18.2,70,0.00,,---,0.00,VWS V14.01,2013-04-09 20:50:00,
2013-04-09 16:51:00,76.1,65.6,30.18,South,170,3.6,18.2,70,0.00,,---,0.00,VWS V14.01,2013-04-09 20:51:00,
2013-04-09 16:52:00,76.0,65.6,30.18,SE,141,4.2,18.2,70,0.00,,---,0.00,VWS V14.01,2013-04-09 20:52:00,
2013-04-09 16:53:00,76.2,65.8,30.18,SE,132,5.7,18.2,70,0.00,,---,0.00,VWS V14.01,2013-04-09 20:53:00,
2013-04-09 16:54:00,76.3,65.9,30.18,SE,128,8.3,18.2,70,0.00,,---,0.00,VWS V14.01,2013-04-09 20:54:00,
2013-04-09 16:55:00,76.1,65.3,30.18,South,184,7.5,18.2,69,0.00,,---,0.00,VWS V14.01,2013-04-09 20:55:00,
2013-04-09 16:56:00,76.3,65.6,30.18,SSE,152,10.4,18.2,70,0.00,,---,0.00,VWS V14.01,2013-04-09 20:56:00,
2013-04-09 16:57:00,76.0,65.4,30.18,South,177,9.4,18.2,70,0.00,,---,0.00,VWS V14.01,2013-04-09 20:57:00,
2013-04-09 16:58:00,75.9,65.6,30.18,SSE,160,9.3,18.2,70,0.00,,---,0.00,VWS V14.01,2013-04-09 20:58:00,
2013-04-09 16:59:00,76.0,65.8,30.18,ESE,104,6.5,18.2,71,0.00,,---,0.00,VWS V14.01,2013-04-09 20:59:00,
2013-04-09 17:00:00,76.0,66.0,30.18,SE,129,6.2,18.2,71,0.00,,---,0.00,VWS V14.01,2013-04-09 21:00:00,
2013-04-09 17:01:00,75.9,65.8,30.18,SSE,159,4.0,18.2,71,0.00,,---,0.00,VWS V14.01,2013-04-09 21:01:00,
2013-04-09 17:02:00,76.0,66.0,30.18,SSE,156,6.8,18.2,71,0.00,,---,0.00,VWS V14.01,2013-04-09 21:02:00,
2013-04-09 17:03:00,76.1,66.1,30.18,ENE,63,5.6,18.2,71,0.00,,---,0.00,VWS V14.01,2013-04-09 21:03:00,
2013-04-09 17:04:00,76.0,66.1,30.18,ESE,115,4.5,18.2,71,0.00,,---,0.00,VWS V14.01,2013-04-09 21:04:00,
2013-04-09 17:05:00,75.9,65.7,30.18,ESE,107,6.0,18.2,71,0.00,,---,0.00,VWS V14.01,2013-04-09 21:05:00,
2013-04-09 17:06:00,75.9,65.4,30.18,SE,135,10.4,18.2,70,0.00,,---,0.00,VWS V14.01,2013-04-09 21:06:00,
2013-04-09 17:07:00,76.0,65.6,30.18,ENE,70,9.6,18.2,70,0.00,,---,0.00,VWS V14.01,2013-04-09 21:07:00,
2013-04-09 17:08:00,75.9,65.6,30.18,South,176,8.5,18.2,70,0.00,,---,0.00,VWS V14.01,2013-04-09 21:08:00,
2013-04-09 17:09:00,75.9,65.6,30.18,SE,146,3.8,18.2,70,0.00,,---,0.00,VWS V14.01,2013-04-09 21:09:00,
2013-04-09 17:10:00,75.7,65.4,30.18,East,87,5.0,18.2,70,0.00,,---,0.00,VWS V14.01,2013-04-09 21:10:00,
2013-04-09 17:11:00,75.6,65.5,30.18,SE,138,8.5,18.2,71,0.00,,---,0.00,VWS V14.01,2013-04-09 21:11:00,
2013-04-09 17:12:00,75.4,65.6,30.18,SSE,167,8.3,18.2,72,0.00,,---,0.00,VWS V14.01,2013-04-09 21:12:00,
2013-04-09 17:13:00,75.6,65.6,30.18,SE,136,5.5,18.2,71,0.00,,---,0.00,VWS V14.01,2013-04-09 21:13:00,
2013-04-09 17:14:00,75.7,65.8,30.18,SE,143,8.1,18.2,71,0.00,,---,0.00,VWS V14.01,2013-04-09 21:14:00,
2013-04-09 17:15:00,75.7,65.7,30.18,ENE,65,6.5,18.2,71,0.00,,---,0.00,VWS V14.01,2013-04-09 21:15:00,
2013-04-09 17:16:00,75.6,65.6,30.18,SE,131,8.3,18.2,71,0.00,,---,0.00,VWS V14.01,2013-04-09 21:16:00,
2013-04-09 17:17:00,75.5,65.5,30.18,ESE,111,7.8,18.2,71,0.00,,---,0.00,VWS V14.01,2013-04-09 21:17:00,
2013-04-09 17:18:00,75.8,65.8,30.18,SE,128,5.0,18.2,71,0.00,,---,0.00,VWS V14.01,2013-04-09 21:18:00,
2013-04-09 17:19:00,75.8,65.5,30.18,NE,45,5.9,18.2,70,0.00,,---,0.00,VWS V14.01,2013-04-09 21:19:00,
2013-04-09 17:20:00,75.7,65.2,30.18,ENE,63,7.3,18.2,70,0.00,,---,0.00,VWS V14.01,2013-04-09 21:20:00,
2013-04-09 17:21:00,75.4,65.0,30.18,South,173,7.5,18.2,70,0.00,,---,0.00,VWS V14.01,2013-04-09 21:21:00,
2013-04-09 17:22:00,75.6,65.3,30.18,ESE,117,6.0,18.2,70,0.00,,---,0.00,VWS V14.01,2013-04-09 21:22:00,
2013-04-09 17:23:00,75.8,65.5,30.18,SE,138,6.8,18.2,70,0.00,,---,0.00,VWS V14.01,2013-04-09 21:23:00,
2013-04-09 17:24:00,75.5,65.2,30.18,SSE,158,11.6,18.2,70,0.00,,---,0.00,VWS V14.01,2013-04-09 21:24:00,
2013-04-09 17:25:00,75.4,65.1,30.18,SE,136,4.2,18.2,70,0.00,,---,0.00,VWS V14.01,2013-04-09 21:25:00,
2013-04-09 17:26:00,75.3,64.9,30.18,SSE,150,10.6,18.2,70,0.00,,---,0.00,VWS V14.01,2013-04-09 21:26:00,
2013-04-09 17:27:00,75.4,65.0,30.18,South,176,10.2,18.2,70,0.00,,---,0.00,VWS V14.01,2013-04-09 21:27:00,
2013-04-09 17:28:00,75.2,64.8,30.18,South,190,8.3,18.2,70,0.00,,---,0.00,VWS V14.01,2013-04-09 21:28:00,
2013-04-09 17:29:00,75.3,65.0,30.18,SSE,158,4.8,18.2,70,0.00,,---,0.00,VWS V14.01,2013-04-09 21:29:00,
2013-04-09 17:30:00,75.5,65.2,30.18,South,176,3.7,18.2,70,0.00,,---,0.00,VWS V14.01,2013-04-09 21:30:00,
2013-04-09 17:31:00,75.4,65.0,30.18,SSE,162,9.3,18.2,70,0.00,,---,0.00,VWS V14.01,2013-04-09 21:31:00,
2013-04-09 17:32:00,75.4,64.8,30.18,SE,143,8.6,18.2,70,0.00,,---,0.00,VWS V14.01,2013-04-09 21:32:00,
2013-04-09 17:33:00,75.4,64.9,30.18,South,173,5.0,18.2,70,0.00,,---,0.00,VWS V14.01,2013-04-09 21:33:00,
2013-04-09 17:34:00,75.6,65.1,30.18,ESE,103,8.3,18.2,70,0.00,,---,0.00,VWS V14.01,2013-04-09 21:34:00,
2013-04-09 17:35:00,75.4,64.9,30.18,South,173,3.4,18.2,70,0.00,,---,0.00,VWS V14.01,2013-04-09 21:35:00,
2013-04-09 17:36:00,75.4,65.0,30.18,ESE,122,6.5,18.2,70,0.00,,---,0.00,VWS V14.01,2013-04-09 21:36:00,
2013-04-09 17:37:00,75.7,65.3,30.18,ESE,110,6.2,18.2,70,0.00,,---,0.00,VWS V14.01,2013-04-09 21:37:00,
2013-04-09 17:38:00,75.4,65.1,30.18,SSE,156,7.8,18.2,70,0.00,,---,0.00,VWS V14.01,2013-04-09 21:38:00,
2013-04-09 17:39:00,75.5,65.2,30.18,SE,139,6.0,18.2,70,0.00,,---,0.00,VWS V14.01,2013-04-09 21:39:00,
2013-04-09 17:40:00,75.3,65.0,30.18,South,181,6.8,18.2,70,0.00,,---,0.00,VWS V14.01,2013-04-09 21:40:00,
2013-04-09 17:41:00,75.7,65.4,30.18,ESE,118,4.9,18.2,70,0.00,,---,0.00,VWS V14.01,2013-04-09 21:41:00,
2013-04-09 17:42:00,75.8,65.6,30.18,East,101,6.6,18.2,71,0.00,,---,0.00,VWS V14.01,2013-04-09 21:42:00,
2013-04-09 17:43:00,75.7,65.6,30.18,South,177,6.3,18.2,71,0.00,,---,0.00,VWS V14.01,2013-04-09 21:43:00,
2013-04-09 17:44:00,75.7,65.6,30.18,SE,136,4.8,18.2,71,0.00,,---,0.00,VWS V14.01,2013-04-09 21:44:00,
2013-04-09 17:45:00,75.7,65.6,30.18,South,179,8.6,18.2,71,0.00,,---,0.00,VWS V14.01,2013-04-09 21:45:00,
2013-04-09 17:46:00,75.7,65.5,30.18,SSE,163,10.9,18.2,71,0.00,,---,0.00,VWS V14.01,2013-04-09 21:46:00,
2013-04-09 17:47:00,75.5,64.9,30.18,South,172,11.0,18.2,70,0.00,,---,0.00,VWS V14.01,2013-04-09 21:47:00,
2013-04-09 17:48:00,75.4,65.0,30.18,SE,145,7.1,18.2,70,0.00,,---,0.00,VWS V14.01,2013-04-09 21:48:00,
2013-04-09 17:49:00,75.5,65.1,30.18,SSE,159,7.4,18.2,70,0.00,,---,0.00,VWS V14.01,2013-04-09 21:49:00,
2013-04-09 17:50:00,75.5,65.1,30.18,SE,125,5.1,18.2,70,0.00,,---,0.00,VWS V14.01,2013-04-09 21:50:00,
2013-04-09 17:51:00,75.3,65.0,30.18,SE,124,4.7,18.2,70,0.00,,---,0.00,VWS V14.01,2013-04-09 21:51:00,
2013-04-09 17:52:00,75.3,65.0,30.18,SE,139,7.0,18.2,70,0.00,,---,0.00,VWS V14.01,2013-04-09 21:52:00,
2013-04-09 17:53:00,75.5,65.0,30.18,SSE,148,7.6,18.2,70,0.00,,---,0.00,VWS V14.01,2013-04-09 21:53:00,
2013-04-09 17:54:00,75.5,65.1,30.18,SSE,156,8.9,18.2,70,0.00,,---,0.00,VWS V14.01,2013-04-09 21:54:00,
2013-04-09 17:55:00,75.5,65.0,30.18,South,190,8.9,18.2,70,0.00,,---,0.00,VWS V14.01,2013-04-09 21:55:00,
2013-04-09 17:56:00,75.3,64.9,30.18,ENE,63,8.7,18.2,70,0.00,,---,0.00,VWS V14.01,2013-04-09 21:56:00,
2013-04-09 17:57:00,75.2,64.9,30.18,South,181,8.6,18.2,70,0.00,,---,0.00,VWS V14.01,2013-04-09 21:57:00,
2013-04-09 17:58:00,75.4,65.2,30.18,SSW,207,7.6,18.2,70,0.00,,---,0.00,VWS V14.01,2013-04-09 21:58:00,
2013-04-09 17:59:00,75.3,65.1,30.18,ESE,108,4.8,18.2,71,0.00,,---,0.00,VWS V14.01,2013-04-09 21:59:00,
2013-04-09 18:00:00,75.4,65.2,30.18,ESE,104,6.7,18.2,71,0.00,,---,0.00,VWS V14.01,2013-04-09 22:00:00,
2013-04-09 18:01:00,75.3,65.2,30.18,South,188,7.3,18.2,71,0.00,,---,0.00,VWS V14.01,2013-04-09 22:01:00,
2013-04-09 18:02:00,75.3,65.2,30.18,SE,146,9.0,18.2,71,0.00,,---,0.00,VWS V14.01,2013-04-09 22:02:00,
2013-04-09 18:03:00,75.2,65.2,30.18,SE,129,8.1,18.2,71,0.00,,---,0.00,VWS V14.01,2013-04-09 22:03:00,
2013-04-09 18:04:00,75.2,65.1,30.18,SE,143,4.9,18.2,71,0.00,,---,0.00,VWS V14.01,2013-04-09 22:04:00,
2013-04-09 18:05:00,75.1,65.1,30.18,ESE,117,6.8,18.2,71,0.00,,---,0.00,VWS V14.01,2013-04-09 22:05:00,
2013-04-09 18:06:00,75.2,65.4,30.18,South,173,8.9,18.2,72,0.00,,---,0.00,VWS V14.01,2013-04-09 22:06:00,
2013-04-09 18:07:00,75.1,65.3,30.18,SSE,165,5.4,18.2,72,0.00,,---,0.00,VWS V14.01,2013-04-09 22:07:00,
2013-04-09 18:08:00,75.1,65.3,30.18,East,90,4.2,18.2,72,0.00,,---,0.00,VWS V14.01,2013-04-09 22:08:00,
2013-04-09 18:09:00,75.1,65.4,30.18,ESE,108,3.8,18.2,72,0.00,,---,0.00,VWS V14.01,2013-04-09 22:09:00,
2013-04-09 18:10:00,75.3,65.5,30.18,ESE,118,4.8,18.2,72,0.00,,---,0.00,VWS V14.01,2013-04-09 22:10:00,
2013-04-09 18:11:00,75.1,65.3,30.18,SE,136,9.9,18.2,72,0.00,,---,0.00,VWS V14.01,2013-04-09 22:11:00,
2013-04-09 18:12:00,75.2,65.4,30.18,SE,134,4.7,18.2,72,0.00,,---,0.00,VWS V14.01,2013-04-09 22:12:00,
2013-04-09 18:13:00,75.0,65.2,30.18,ESE,108,6.8,18.2,72,0.00,,---,0.00,VWS V14.01,2013-04-09 22:13:00,
2013-04-09 18:14:00,75.0,65.3,30.18,South,173,10.0,18.2,72,0.00,,---,0.00,VWS V14.01,2013-04-09 22:14:00,
2013-04-09 18:15:00,75.2,65.6,30.18,South,179,7.6,18.2,72,0.00,,---,0.00,VWS V14.01,2013-04-09 22:15:00,
2013-04-09 18:16:00,75.1,65.4,30.18,SSE,153,9.4,18.2,72,0.00,,---,0.00,VWS V14.01,2013-04-09 22:16:00,
2013-04-09 18:17:00,75.0,65.3,30.19,ESE,121,7.3,18.2,72,0.00,,---,0.00,VWS V14.01,2013-04-09 22:17:00,
2013-04-09 18:18:00,75.0,65.3,30.18,SE,138,5.7,18.2,72,0.00,,---,0.00,VWS V14.01,2013-04-09 22:18:00,
2013-04-09 18:19:00,75.1,65.4,30.18,SE,145,8.5,18.2,72,0.00,,---,0.00,VWS V14.01,2013-04-09 22:19:00,
2013-04-09 18:20:00,75.1,65.5,30.18,ENE,75,5.7,18.2,72,0.00,,---,0.00,VWS V14.01,2013-04-09 22:20:00,
2013-04-09 18:21:00,75.1,65.5,30.18,ESE,118,7.1,18.2,72,0.00,,---,0.00,VWS V14.01,2013-04-09 22:21:00,
2013-04-09 18:22:00,75.0,65.4,30.18,East,90,3.9,18.2,72,0.00,,---,0.00,VWS V14.01,2013-04-09 22:22:00,
2013-04-09 18:23:00,75.1,65.6,30.18,SE,145,5.8,18.2,72,0.00,,---,0.00,VWS V14.01,2013-04-09 22:23:00,
2013-04-09 18:24:00,74.8,65.3,30.18,South,183,6.5,18.2,72,0.00,,---,0.00,VWS V14.01,2013-04-09 22:24:00,
2013-04-09 18:25:00,75.0,65.5,30.18,SE,128,9.9,18.2,72,0.00,,---,0.00,VWS V14.01,2013-04-09 22:25:00,
2013-04-09 18:26:00,75.0,65.7,30.18,SE,136,5.6,18.2,73,0.00,,---,0.00,VWS V14.01,2013-04-09 22:26:00,
2013-04-09 18:27:00,74.9,65.5,30.18,SSE,155,6.0,18.2,73,0.00,,---,0.00,VWS V14.01,2013-04-09 22:27:00,
2013-04-09 18:28:00,74.9,65.6,30.18,ESE,118,5.0,18.2,73,0.00,,---,0.00,VWS V14.01,2013-04-09 22:28:00,
2013-04-09 18:29:00,74.9,65.6,30.18,SE,141,6.5,18.2,73,0.00,,---,0.00,VWS V14.01,2013-04-09 22:29:00,
2013-04-09 18:30:00,74.9,65.6,30.18,South,173,7.5,18.2,73,0.00,,---,0.00,VWS V14.01,2013-04-09 22:30:00,
2013-04-09 18:31:00,74.9,65.7,30.18,SE,129,4.2,18.2,73,0.00,,---,0.00,VWS V14.01,2013-04-09 22:31:00,
2013-04-09 18:32:00,75.1,65.9,30.18,South,183,8.3,18.2,73,0.00,,---,0.00,VWS V14.01,2013-04-09 22:32:00,
2013-04-09 18:33:00,75.0,65.7,30.18,ESE,105,6.6,18.2,73,0.00,,---,0.00,VWS V14.01,2013-04-09 22:33:00,
2013-04-09 18:34:00,74.9,65.6,30.18,East,80,6.8,18.2,73,0.00,,---,0.00,VWS V14.01,2013-04-09 22:34:00,
2013-04-09 18:35:00,74.9,65.6,30.18,SE,136,7.3,18.2,73,0.00,,---,0.00,VWS V14.01,2013-04-09 22:35:00,
2013-04-09 18:36:00,74.8,65.4,30.18,SE,125,6.6,18.2,73,0.00,,---,0.00,VWS V14.01,2013-04-09 22:36:00,
2013-04-09 18:37:00,75.0,65.6,30.18,South,186,9.4,18.2,73,0.00,,---,0.00,VWS V14.01,2013-04-09 22:37:00,
2013-04-09 18:38:00,74.6,65.1,30.18,SSE,159,10.1,18.2,72,0.00,,---,0.00,VWS V14.01,2013-04-09 22:38:00,
2013-04-09 18:39:00,74.7,65.3,30.18,South,170,7.1,18.2,72,0.00,,---,0.00,VWS V14.01,2013-04-09 22:39:00,
2013-04-09 18:40:00,74.7,65.2,30.18,South,187,5.2,18.2,72,0.00,,---,0.00,VWS V14.01,2013-04-09 22:40:00,
2013-04-09 18:41:00,74.7,65.3,30.18,SSW,210,9.8,18.2,72,0.00,,---,0.00,VWS V14.01,2013-04-09 22:41:00,
2013-04-09 18:42:00,74.6,65.1,30.18,SE,145,9.6,18.2,72,0.00,,---,0.00,VWS V14.01,2013-04-09 22:42:00,
2013-04-09 18:43:00,74.6,65.1,30.18,South,183,4.7,18.2,72,0.00,,---,0.00,VWS V14.01,2013-04-09 22:43:00,
2013-04-09 18:44:00,74.6,65.2,30.18,South,184,5.5,18.2,73,0.00,,---,0.00,VWS V14.01,2013-04-09 22:44:00,
2013-04-09 18:45:00,74.8,65.5,30.18,SSE,152,4.7,18.2,73,0.00,,---,0.00,VWS V14.01,2013-04-09 22:45:00,
2013-04-09 18:46:00,74.7,65.4,30.18,SSE,162,6.8,18.2,73,0.00,,---,0.00,VWS V14.01,2013-04-09 22:46:00,
2013-04-09 18:47:00,74.7,65.4,30.18,SSE,165,9.3,18.2,73,0.00,,---,0.00,VWS V14.01,2013-04-09 22:47:00,
2013-04-09 18:48:00,74.6,65.3,30.18,SE,143,6.5,18.2,73,0.00,,---,0.00,VWS V14.01,2013-04-09 22:48:00,
2013-04-09 18:49:00,74.4,65.1,30.18,SSW,197,7.0,18.2,73,0.00,,---,0.00,VWS V14.01,2013-04-09 22:49:00,
2013-04-09 18:50:00,74.6,65.4,30.18,SSE,156,9.6,18.2,73,0.00,,---,0.00,VWS V14.01,2013-04-09 22:50:00,
2013-04-09 18:51:00,74.4,65.1,30.18,ESE,120,5.0,18.2,73,0.00,,---,0.00,VWS V14.01,2013-04-09 22:51:00,
2013-04-09 18:52:00,74.6,65.3,30.18,South,183,6.9,18.2,73,0.00,,---,0.00,VWS V14.01,2013-04-09 22:52:00,
2013-04-09 18:53:00,74.7,65.4,30.18,SSE,166,4.9,18.2,73,0.00,,---,0.00,VWS V14.01,2013-04-09 22:53:00,
2013-04-09 18:54:00,74.7,65.5,30.18,SE,145,5.3,18.2,73,0.00,,---,0.00,VWS V14.01,2013-04-09 22:54:00,
2013-04-09 18:55:00,74.7,65.4,30.18,ESE,110,4.1,18.2,73,0.00,,---,0.00,VWS V14.01,2013-04-09 22:55:00,
2013-04-09 18:56:00,74.6,65.3,30.18,SE,141,8.8,18.2,73,0.00,,---,0.00,VWS V14.01,2013-04-09 22:56:00,
2013-04-09 18:57:00,74.3,64.9,30.18,SSE,166,8.5,18.2,73,0.00,,---,0.00,VWS V14.01,2013-04-09 22:57:00,
2013-04-09 18:58:00,74.4,65.0,30.18,South,180,4.3,18.2,73,0.00,,---,0.00,VWS V14.01,2013-04-09 22:58:00,
2013-04-09 18:59:00,74.4,65.0,30.18,SE,135,4.9,18.2,73,0.00,,---,0.00,VWS V14.01,2013-04-09 22:59:00,
2013-04-09 19:00:00,74.4,65.1,30.18,SSE,165,7.1,18.2,73,0.00,,---,0.00,VWS V14.01,2013-04-09 23:00:00,
2013-04-09 19:01:00,74.4,65.0,30.18,SSE,153,10.1,18.2,73,0.00,,---,0.00,VWS V14.01,2013-04-09 23:01:00,
2013-04-09 19:02:00,74.3,65.0,30.18,South,177,8.8,18.2,73,0.00,,---,0.00,VWS V14.01,2013-04-09 23:02:00,
2013-04-09 19:03:00,74.3,65.0,30.18,South,172,4.0,18.2,73,0.00,,---,0.00,VWS V14.01,2013-04-09 23:03:00,
2013-04-09 19:04:00,74.4,65.1,30.18,SSE,159,5.5,18.2,73,0.00,,---,0.00,VWS V14.01,2013-04-09 23:04:00,
2013-04-09 19:05:00,74.4,65.1,30.18,ENE,72,4.5,18.2,73,0.00,,---,0.00,VWS V14.01,2013-04-09 23:05:00,
2013-04-09 19:06:00,74.3,64.9,30.18,SE,136,6.8,18.2,72,0.00,,---,0.00,VWS V14.01,2013-04-09 23:06:00,
2013-04-09 19:07:00,74.4,65.0,30.18,SE,142,6.7,18.2,73,0.00,,---,0.00,VWS V14.01,2013-04-09 23:07:00,
2013-04-09 19:08:00,74.4,65.1,30.18,South,179,4.4,18.2,73,0.00,,---,0.00,VWS V14.01,2013-04-09 23:08:00,
2013-04-09 19:09:00,74.3,65.1,30.18,SSE,163,6.3,18.2,73,0.00,,---,0.00,VWS V14.01,2013-04-09 23:09:00,
2013-04-09 19:10:00,74.4,65.2,30.18,South,180,3.9,18.2,73,0.00,,---,0.00,VWS V14.01,2013-04-09 23:10:00,
2013-04-09 19:11:00,74.5,65.4,30.18,South,177,4.8,18.2,73,0.00,,---,0.00,VWS V14.01,2013-04-09 23:11:00,
2013-04-09 19:12:00,74.5,65.6,30.18,ENE,73,3.5,18.2,74,0.00,,---,0.00,VWS V14.01,2013-04-09 23:12:00,
2013-04-09 19:13:00,74.5,65.5,30.19,SSW,197,8.3,18.2,74,0.00,,---,0.00,VWS V14.01,2013-04-09 23:13:00,
2013-04-09 19:14:00,74.6,65.6,30.19,SE,134,5.8,18.2,74,0.00,,---,0.00,VWS V14.01,2013-04-09 23:14:00,
2013-04-09 19:15:00,74.5,65.6,30.19,South,169,8.7,18.2,74,0.00,,---,0.00,VWS V14.01,2013-04-09 23:15:00,
2013-04-09 19:16:00,74.6,65.7,30.18,South,191,9.3,18.2,74,0.00,,---,0.00,VWS V14.01,2013-04-09 23:16:00,
2013-04-09 19:17:00,74.4,65.4,30.18,South,172,8.9,18.2,74,0.00,,---,0.00,VWS V14.01,2013-04-09 23:17:00,
2013-04-09 19:18:00,74.6,65.7,30.19,East,83,3.2,18.2,74,0.00,,---,0.00,VWS V14.01,2013-04-09 23:18:00,
2013-04-09 19:19:00,74.4,65.5,30.19,East,98,3.6,18.2,74,0.00,,---,0.00,VWS V14.01,2013-04-09 23:19:00,
2013-04-09 19:20:00,74.4,65.5,30.19,East,93,5.0,18.2,74,0.00,,---,0.00,VWS V14.01,2013-04-09 23:20:00,
2013-04-09 19:21:00,74.4,65.5,30.19,East,89,4.9,18.2,74,0.00,,---,0.00,VWS V14.01,2013-04-09 23:21:00,
2013-04-09 19:22:00,74.4,65.7,30.19,South,181,5.0,18.2,74,0.00,,---,0.00,VWS V14.01,2013-04-09 23:22:00,
2013-04-09 19:23:00,74.3,65.5,30.19,SSE,150,7.7,18.2,74,0.00,,---,0.00,VWS V14.01,2013-04-09 23:23:00,
2013-04-09 19:24:00,74.4,65.5,30.19,SSE,162,3.5,18.2,74,0.00,,---,0.00,VWS V14.01,2013-04-09 23:24:00,
2013-04-09 19:25:00,74.4,65.4,30.19,SE,142,5.0,18.2,74,0.00,,---,0.00,VWS V14.01,2013-04-09 23:25:00,
2013-04-09 19:26:00,74.6,65.6,30.19,ESE,115,5.2,18.2,74,0.00,,---,0.00,VWS V14.01,2013-04-09 23:26:00,
2013-04-09 19:27:00,74.4,65.3,30.19,South,187,7.8,18.2,73,0.00,,---,0.00,VWS V14.01,2013-04-09 23:27:00,
2013-04-09 19:28:00,74.3,65.2,30.19,South,176,11.6,18.2,73,0.00,,---,0.00,VWS V14.01,2013-04-09 23:28:00,
2013-04-09 19:29:00,74.3,65.3,30.19,SSE,158,6.8,18.2,74,0.00,,---,0.00,VWS V14.01,2013-04-09 23:29:00,
2013-04-09 19:30:00,74.4,65.4,30.19,SSE,162,8.4,18.2,74,0.00,,---,0.00,VWS V14.01,2013-04-09 23:30:00,
2013-04-09 19:31:00,74.5,65.6,30.19,South,170,8.9,18.2,74,0.00,,---,0.00,VWS V14.01,2013-04-09 23:31:00,
2013-04-09 19:32:00,74.4,65.5,30.19,East,100,6.8,18.2,74,0.00,,---,0.00,VWS V14.01,2013-04-09 23:32:00,
2013-04-09 19:33:00,74.5,65.6,30.19,SSE,160,7.2,18.2,74,0.00,,---,0.00,VWS V14.01,2013-04-09 23:33:00,
2013-04-09 19:34:00,74.4,65.5,30.19,SSE,153,11.9,18.2,74,0.00,,---,0.00,VWS V14.01,2013-04-09 23:34:00,
2013-04-09 19:35:00,74.4,65.4,30.19,South,177,7.3,18.2,74,0.00,,---,0.00,VWS V14.01,2013-04-09 23:35:00,
2013-04-09 19:36:00,74.5,65.6,30.19,SE,142,4.8,18.2,74,0.00,,---,0.00,VWS V14.01,2013-04-09 23:36:00,
2013-04-09 19:37:00,74.4,65.5,30.19,ESE,120,9.2,18.2,74,0.00,,---,0.00,VWS V14.01,2013-04-09 23:37:00,
2013-04-09 19:38:00,74.3,65.3,30.18,SE,138,8.6,18.2,74,0.00,,---,0.00,VWS V14.01,2013-04-09 23:38:00,
2013-04-09 19:39:00,74.5,65.6,30.19,South,173,6.0,18.2,74,0.00,,---,0.00,VWS V14.01,2013-04-09 23:39:00,
2013-04-09 19:40:00,74.6,65.7,30.19,SE,139,3.9,18.2,74,0.00,,---,0.00,VWS V14.01,2013-04-09 23:40:00,
2013-04-09 19:41:00,74.5,65.6,30.19,East,101,1.6,18.2,74,0.00,,---,0.00,VWS V14.01,2013-04-09 23:41:00,
2013-04-09 19:42:00,74.5,65.6,30.19,SE,125,4.8,18.2,74,0.00,,---,0.00,VWS V14.01,2013-04-09 23:42:00,
2013-04-09 19:43:00,74.5,65.6,30.19,NE,55,2.4,18.2,74,0.00,,---,0.00,VWS V14.01,2013-04-09 23:43:00,
2013-04-09 19:44:00,74.4,65.5,30.19,SSE,165,3.5,18.2,74,0.00,,---,0.00,VWS V14.01,2013-04-09 23:44:00,
2013-04-09 19:45:00,74.5,65.6,30.19,ESE,107,3.1,18.2,74,0.00,,---,0.00,VWS V14.01,2013-04-09 23:45:00,
2013-04-09 19:46:00,74.3,65.1,30.19,SSE,158,11.5,18.2,73,0.00,,---,0.00,VWS V14.01,2013-04-09 23:46:00,
2013-04-09 19:47:00,74.2,65.0,30.19,SE,138,6.3,18.2,73,0.00,,---,0.00,VWS V14.01,2013-04-09 23:47:00,
2013-04-09 19:48:00,74.4,65.2,30.19,SE,136,6.5,18.2,73,0.00,,---,0.00,VWS V14.01,2013-04-09 23:48:00,
2013-04-09 19:49:00,74.5,65.4,30.19,East,82,5.0,18.2,73,0.00,,---,0.00,VWS V14.01,2013-04-09 23:49:00,
2013-04-09 19:50:00,74.3,65.2,30.19,South,170,8.9,18.2,73,0.00,,---,0.00,VWS V14.01,2013-04-09 23:50:00,
2013-04-09 19:51:00,74.3,65.2,30.19,SE,146,5.6,18.2,73,0.00,,---,0.00,VWS V14.01,2013-04-09 23:51:00,
2013-04-09 19:52:00,74.6,65.5,30.19,SE,142,4.6,18.2,73,0.00,,---,0.00,VWS V14.01,2013-04-09 23:52:00,
2013-04-09 19:53:00,74.3,65.2,30.19,SSE,149,6.0,18.2,73,0.00,,---,0.00,VWS V14.01,2013-04-09 23:53:00,
2013-04-09 19:54:00,74.3,65.2,30.19,SE,135,8.0,18.2,73,0.00,,---,0.00,VWS V14.01,2013-04-09 23:54:00,
2013-04-09 19:55:00,74.4,65.3,30.19,East,83,6.3,18.2,73,0.00,,---,0.00,VWS V14.01,2013-04-09 23:55:00,
2013-04-09 19:56:00,74.4,65.2,30.19,SSE,150,8.1,18.2,73,0.00,,---,0.00,VWS V14.01,2013-04-09 23:56:00,
2013-04-09 19:57:00,74.4,65.1,30.19,East,97,6.3,18.2,73,0.00,,---,0.00,VWS V14.01,2013-04-09 23:57:00,
2013-04-09 19:58:00,74.4,65.1,30.19,SE,128,8.5,18.2,73,0.00,,---,0.00,VWS V14.01,2013-04-09 23:58:00,
2013-04-09 19:59:00,74.4,65.1,30.19,South,179,10.3,18.2,73,0.00,,---,0.00,VWS V14.01,2013-04-09 23:59:00,
2013-04-09 20:00:00,74.4,65.2,30.19,South,174,7.5,18.2,73,0.00,,---,0.00,VWS V14.01,2013-04-10 00:00:00,
2013-04-09 20:01:00,74.4,65.2,30.19,SE,145,7.3,18.2,73,0.00,,---,0.00,VWS V14.01,2013-04-10 00:01:00,
2013-04-09 20:02:00,74.4,65.2,30.19,SSE,163,6.2,18.2,73,0.00,,---,0.00,VWS V14.01,2013-04-10 00:02:00,
2013-04-09 20:03:00,74.4,65.2,30.19,SSE,160,10.4,18.2,73,0.00,,---,0.00,VWS V14.01,2013-04-10 00:03:00,
2013-04-09 20:04:00,74.3,65.0,30.20,South,187,6.6,18.2,73,0.00,,---,0.00,VWS V14.01,2013-04-10 00:04:00,
2013-04-09 20:05:00,74.5,65.2,30.19,ESE,118,4.8,18.2,73,0.00,,---,0.00,VWS V14.01,2013-04-10 00:05:00,
2013-04-09 20:06:00,74.5,65.2,30.19,SSE,152,8.4,18.2,73,0.00,,---,0.00,VWS V14.01,2013-04-10 00:06:00,
2013-04-09 20:07:00,74.4,65.2,30.20,SSE,153,6.0,18.2,73,0.00,,---,0.00,VWS V14.01,2013-04-10 00:07:00,
2013-04-09 20:08:00,74.4,65.2,30.20,SE,142,10.4,18.2,73,0.00,,---,0.00,VWS V14.01,2013-04-10 00:08:00,
2013-04-09 20:09:00,74.5,65.3,30.20,South,181,8.6,18.2,73,0.00,,---,0.00,VWS V14.01,2013-04-10 00:09:00,
2013-04-09 20:10:00,74.6,65.4,30.20,SSE,162,5.7,18.2,73,0.00,,---,0.00,VWS V14.01,2013-04-10 00:10:00,
2013-04-09 20:11:00,74.6,65.4,30.20,East,83,4.7,18.2,73,0.00,,---,0.00,VWS V14.01,2013-04-10 00:11:00,
2013-04-09 20:12:00,74.5,65.2,30.20,SE,124,7.3,18.2,73,0.00,,---,0.00,VWS V14.01,2013-04-10 00:12:00,
2013-04-09 20:13:00,74.4,65.0,30.20,SE,136,9.3,18.2,73,0.00,,---,0.00,VWS V14.01,2013-04-10 00:13:00,
2013-04-09 20:14:00,74.7,65.3,30.20,SSE,149,8.1,18.2,72,0.00,,---,0.00,VWS V14.01,2013-04-10 00:14:00,
2013-04-09 20:15:00,74.3,64.8,30.20,South,184,8.6,18.2,72,0.00,,---,0.00,VWS V14.01,2013-04-10 00:15:00,
2013-04-09 20:16:00,74.5,65.0,30.20,ESE,118,5.4,18.2,72,0.00,,---,0.00,VWS V14.01,2013-04-10 00:16:00,
2013-04-09 20:17:00,74.4,64.9,30.20,SSE,153,3.4,18.2,72,0.00,,---,0.00,VWS V14.01,2013-04-10 00:17:00,
2013-04-09 20:18:00,74.5,65.1,30.20,SE,135,4.4,18.2,72,0.00,,---,0.00,VWS V14.01,2013-04-10 00:18:00,
2013-04-09 20:19:00,74.4,65.0,30.20,SE,134,8.2,18.2,73,0.00,,---,0.00,VWS V14.01,2013-04-10 00:19:00,
2013-04-09 20:20:00,74.5,65.2,30.20,ESE,107,4.3,18.2,73,0.00,,---,0.00,VWS V14.01,2013-04-10 00:20:00,
2013-04-09 20:21:00,74.6,65.3,30.20,SE,141,4.7,18.2,73,0.00,,---,0.00,VWS V14.01,2013-04-10 00:21:00,
2013-04-09 20:22:00,74.6,65.3,30.20,SSE,158,4.5,18.2,73,0.00,,---,0.00,VWS V14.01,2013-04-10 00:22:00,
2013-04-09 20:23:00,74.7,65.4,30.20,SE,141,5.0,18.2,73,0.00,,---,0.00,VWS V14.01,2013-04-10 00:23:00,
2013-04-09 20:24:00,74.4,65.2,30.20,SE,125,4.0,18.2,73,0.00,,---,0.00,VWS V14.01,2013-04-10 00:24:00,
2013-04-09 20:25:00,74.6,65.3,30.20,SSE,153,5.3,18.2,73,0.00,,---,0.00,VWS V14.01,2013-04-10 00:25:00,
2013-04-09 20:26:00,74.7,65.4,30.20,East,98,3.2,18.2,73,0.00,,---,0.00,VWS V14.01,2013-04-10 00:26:00,
2013-04-09 20:27:00,74.6,65.2,30.20,SSE,159,11.5,18.2,73,0.00,,---,0.00,VWS V14.01,2013-04-10 00:27:00,
2013-04-09 20:28:00,74.6,65.2,30.20,SSE,153,10.1,18.2,72,0.00,,---,0.00,VWS V14.01,2013-04-10 00:28:00,
2013-04-09 20:29:00,74.6,65.2,30.21,ESE,110,6.6,18.2,73,0.00,,---,0.00,VWS V14.01,2013-04-10 00:29:00,
2013-04-09 20:30:00,74.6,65.3,30.20,ENE,77,7.0,18.2,73,0.00,,---,0.00,VWS V14.01,2013-04-10 00:30:00,
2013-04-09 20:31:00,74.6,65.3,30.20,South,188,8.0,18.2,73,0.00,,---,0.00,VWS V14.01,2013-04-10 00:31:00,
2013-04-09 20:32:00,74.7,65.4,30.20,South,183,5.8,18.2,73,0.00,,---,0.00,VWS V14.01,2013-04-10 00:32:00,
2013-04-09 20:33:00,74.7,65.4,30.20,South,184,3.5,18.2,73,0.00,,---,0.00,VWS V14.01,2013-04-10 00:33:00,
2013-04-09 20:34:00,74.7,65.4,30.20,South,183,6.5,18.2,73,0.00,,---,0.00,VWS V14.01,2013-04-10 00:34:00,
2013-04-09 20:35:00,74.7,65.4,30.20,SSE,148,8.9,18.2,73,0.00,,---,0.00,VWS V14.01,2013-04-10 00:35:00,
2013-04-09 20:36:00,74.4,64.6,30.20,South,179,5.8,18.2,72,0.00,,---,0.00,VWS V14.01,2013-04-10 00:36:00,
2013-04-09 20:37:00,74.3,64.5,30.20,SE,136,9.3,18.2,71,0.00,,---,0.00,VWS V14.01,2013-04-10 00:37:00,
2013-04-09 20:38:00,74.6,64.8,30.20,South,179,5.5,18.2,72,0.00,,---,0.00,VWS V14.01,2013-04-10 00:38:00,
2013-04-09 20:39:00,74.6,64.8,30.20,SE,125,5.5,18.2,72,0.00,,---,0.00,VWS V14.01,2013-04-10 00:39:00,
2013-04-09 20:40:00,74.5,64.8,30.20,SSW,212,2.9,18.2,72,0.00,,---,0.00,VWS V14.01,2013-04-10 00:40:00,
2013-04-09 20:41:00,74.4,64.8,30.21,ESE,105,2.7,18.2,72,0.00,,---,0.00,VWS V14.01,2013-04-10 00:41:00,
2013-04-09 20:42:00,74.4,64.7,30.20,South,174,5.9,18.2,72,0.00,,---,0.00,VWS V14.01,2013-04-10 00:42:00,
2013-04-09 20:43:00,74.5,64.6,30.21,SSE,158,6.1,18.2,71,0.00,,---,0.00,VWS V14.01,2013-04-10 00:43:00,
2013-04-09 20:44:00,74.6,64.8,30.21,SSE,158,4.2,18.2,72,0.00,,---,0.00,VWS V14.01,2013-04-10 00:44:00,
2013-04-09 20:45:00,74.4,64.3,30.21,ESE,117,8.9,18.2,71,0.00,,---,0.00,VWS V14.01,2013-04-10 00:45:00,
2013-04-09 20:46:00,74.6,64.5,30.21,SSW,194,5.8,18.2,71,0.00,,---,0.00,VWS V14.01,2013-04-10 00:46:00,
2013-04-09 20:47:00,74.4,64.0,30.21,South,179,5.1,18.2,70,0.00,,---,0.00,VWS V14.01,2013-04-10 00:47:00,
2013-04-09 20:48:00,74.4,63.9,30.21,South,187,5.7,18.2,70,0.00,,---,0.00,VWS V14.01,2013-04-10 00:48:00,
2013-04-09 20:49:00,74.3,63.8,30.21,SE,143,7.1,18.2,70,0.00,,---,0.00,VWS V14.01,2013-04-10 00:49:00,
2013-04-09 20:50:00,74.5,64.2,30.21,ESE,114,7.3,18.2,70,0.00,,---,0.00,VWS V14.01,2013-04-10 00:50:00,
2013-04-09 20:51:00,74.5,64.4,30.21,SSE,155,4.1,18.2,71,0.00,,---,0.00,VWS V14.01,2013-04-10 00:51:00,
2013-04-09 20:52:00,74.7,64.6,30.20,SE,139,6.0,18.2,71,0.00,,---,0.00,VWS V14.01,2013-04-10 00:52:00,
2013-04-09 20:53:00,74.5,64.5,30.20,SE,143,7.1,18.2,71,0.00,,---,0.00,VWS V14.01,2013-04-10 00:53:00,
2013-04-09 20:54:00,74.7,64.8,30.20,South,181,7.9,18.2,71,0.00,,---,0.00,VWS V14.01,2013-04-10 00:54:00,
2013-04-09 20:55:00,74.5,64.5,30.20,SSE,158,8.8,18.2,71,0.00,,---,0.00,VWS V14.01,2013-04-10 00:55:00,
2013-04-09 20:56:00,74.4,64.3,30.20,SE,129,8.6,18.2,71,0.00,,---,0.00,VWS V14.01,2013-04-10 00:56:00,
2013-04-09 20:57:00,74.4,64.4,30.20,South,173,8.6,18.2,71,0.00,,---,0.00,VWS V14.01,2013-04-10 00:57:00,
2013-04-09 20:58:00,74.5,64.6,30.20,SE,131,9.7,18.2,71,0.00,,---,0.00,VWS V14.01,2013-04-10 00:58:00,
2013-04-09 20:59:00,74.4,64.5,30.20,South,169,5.4,18.2,71,0.00,,---,0.00,VWS V14.01,2013-04-10 00:59:00,
2013-04-09 21:00:00,74.5,64.6,30.20,South,173,5.7,18.2,71,0.00,,---,0.00,VWS V14.01,2013-04-10 01:00:00,
2013-04-09 21:01:00,74.5,64.6,30.20,SE,135,7.3,18.2,71,0.00,,---,0.00,VWS V14.01,2013-04-10 01:01:00,
2013-04-09 21:02:00,74.6,64.7,30.20,South,169,10.2,18.2,71,0.00,,---,0.00,VWS V14.01,2013-04-10 01:02:00,
2013-04-09 21:03:00,74.6,64.8,30.20,South,190,6.6,18.2,71,0.00,,---,0.00,VWS V14.01,2013-04-10 01:03:00,
2013-04-09 21:04:00,74.3,64.5,30.20,SSE,160,6.0,18.2,72,0.00,,---,0.00,VWS V14.01,2013-04-10 01:04:00,
2013-04-09 21:05:00,74.6,64.9,30.20,South,176,5.7,18.2,72,0.00,,---,0.00,VWS V14.01,2013-04-10 01:05:00,
2013-04-09 21:06:00,74.6,64.9,30.20,SSW,195,5.0,18.2,72,0.00,,---,0.00,VWS V14.01,2013-04-10 01:06:00,
2013-04-09 21:07:00,74.5,64.8,30.20,East,101,3.3,18.2,72,0.00,,---,0.00,VWS V14.01,2013-04-10 01:07:00,
2013-04-09 21:08:00,74.4,64.7,30.20,SE,131,3.5,18.2,72,0.00,,---,0.00,VWS V14.01,2013-04-10 01:08:00,
2013-04-09 21:09:00,74.3,64.6,30.20,SSE,162,9.7,18.2,72,0.00,,---,0.00,VWS V14.01,2013-04-10 01:09:00,
2013-04-09 21:10:00,74.5,64.8,30.20,SE,125,5.2,18.2,72,0.00,,---,0.00,VWS V14.01,2013-04-10 01:10:00,
2013-04-09 21:11:00,74.6,64.9,30.20,SE,141,6.5,18.2,72,0.00,,---,0.00,VWS V14.01,2013-04-10 01:11:00,
2013-04-09 21:12:00,74.4,64.5,30.20,SSE,160,11.3,18.2,71,0.00,,---,0.00,VWS V14.01,2013-04-10 01:12:00,
2013-04-09 21:13:00,74.4,64.5,30.20,SSE,160,5.2,18.2,71,0.00,,---,0.00,VWS V14.01,2013-04-10 01:13:00,
2013-04-09 21:14:00,74.2,64.3,30.21,SSE,152,5.3,18.2,71,0.00,,---,0.00,VWS V14.01,2013-04-10 01:14:00,
2013-04-09 21:15:00,74.2,64.3,30.21,SSE,167,8.0,18.2,71,0.00,,---,0.00,VWS V14.01,2013-04-10 01:15:00,
2013-04-09 21:16:00,74.3,64.4,30.21,SE,127,5.0,18.2,71,0.00,,---,0.00,VWS V14.01,2013-04-10 01:16:00,
2013-04-09 21:17:00,74.5,64.7,30.21,SE,128,7.8,18.2,71,0.00,,---,0.00,VWS V14.01,2013-04-10 01:17:00,
2013-04-09 21:18:00,74.4,64.6,30.20,ENE,73,6.3,18.2,72,0.00,,---,0.00,VWS V14.01,2013-04-10 01:18:00,
2013-04-09 21:19:00,74.2,64.3,30.21,SSE,167,6.3,18.2,71,0.00,,---,0.00,VWS V14.01,2013-04-10 01:19:00,
2013-04-09 21:20:00,74.2,64.3,30.21,SE,141,6.5,18.2,71,0.00,,---,0.00,VWS V14.01,2013-04-10 01:20:00,
2013-04-09 21:21:00,74.3,64.5,30.20,ESE,112,6.0,18.2,71,0.00,,---,0.00,VWS V14.01,2013-04-10 01:21:00,
2013-04-09 21:22:00,74.4,64.5,30.21,SE,143,9.6,18.2,71,0.00,,---,0.00,VWS V14.01,2013-04-10 01:22:00,
2013-04-09 21:23:00,74.3,64.3,30.20,SSE,167,5.0,18.2,71,0.00,,---,0.00,VWS V14.01,2013-04-10 01:23:00,
2013-04-09 21:24:00,74.3,64.2,30.20,South,179,8.5,18.2,71,0.00,,---,0.00,VWS V14.01,2013-04-10 01:24:00,
2013-04-09 21:25:00,74.3,64.1,30.20,SE,146,6.0,18.2,70,0.00,,---,0.00,VWS V14.01,2013-04-10 01:25:00,
2013-04-09 21:26:00,74.3,64.2,30.20,South,181,4.8,18.2,71,0.00,,---,0.00,VWS V14.01,2013-04-10 01:26:00,
2013-04-09 21:27:00,74.3,64.2,30.20,ESE,117,7.8,18.2,71,0.00,,---,0.00,VWS V14.01,2013-04-10 01:27:00,
2013-04-09 21:28:00,74.3,64.0,30.20,South,190,9.8,18.2,70,0.00,,---,0.00,VWS V14.01,2013-04-10 01:28:00,
2013-04-09 21:29:00,74.2,64.0,30.21,South,176,9.3,18.2,70,0.00,,---,0.00,VWS V14.01,2013-04-10 01:29:00,
2013-04-09 21:30:00,74.4,64.2,30.21,South,177,10.9,18.2,71,0.00,,---,0.00,VWS V14.01,2013-04-10 01:30:00,
2013-04-09 21:31:00,74.4,64.4,30.21,SSW,198,5.2,18.2,71,0.00,,---,0.00,VWS V14.01,2013-04-10 01:31:00,
2013-04-09 21:32:00,74.5,64.5,30.21,South,170,4.2,18.2,71,0.00,,---,0.00,VWS V14.01,2013-04-10 01:32:00,
2013-04-09 21:33:00,74.6,64.6,30.21,ESE,111,5.8,18.2,71,0.00,,---,0.00,VWS V14.01,2013-04-10 01:33:00,
2013-04-09 21:34:00,74.5,64.5,30.21,South,181,8.6,18.2,71,0.00,,---,0.00,VWS V14.01,2013-04-10 01:34:00,
2013-04-09 21:35:00,74.5,64.5,30.21,SSE,158,5.7,18.2,71,0.00,,---,0.00,VWS V14.01,2013-04-10 01:35:00,
2013-04-09 21:36:00,74.6,64.5,30.21,SE,141,5.2,18.2,71,0.00,,---,0.00,VWS V14.01,2013-04-10 01:36:00,
2013-04-09 21:37:00,74.6,64.6,30.21,South,188,5.0,18.2,71,0.00,,---,0.00,VWS V14.01,2013-04-10 01:37:00,
2013-04-09 21:38:00,74.5,64.5,30.21,South,179,5.0,18.2,71,0.00,,---,0.00,VWS V14.01,2013-04-10 01:38:00,
2013-04-09 21:39:00,74.4,64.5,30.21,East,100,4.3,18.2,71,0.00,,---,0.00,VWS V14.01,2013-04-10 01:39:00,
2013-04-09 21:40:00,74.5,64.6,30.21,SE,143,6.9,18.2,71,0.00,,---,0.00,VWS V14.01,2013-04-10 01:40:00,
2013-04-09 21:41:00,74.5,64.7,30.20,SSE,162,6.0,18.2,71,0.00,,---,0.00,VWS V14.01,2013-04-10 01:41:00,
2013-04-09 21:42:00,74.5,64.6,30.20,SSE,158,6.4,18.2,71,0.00,,---,0.00,VWS V14.01,2013-04-10 01:42:00,
2013-04-09 21:43:00,74.6,64.6,30.21,South,174,7.2,18.2,71,0.00,,---,0.00,VWS V14.01,2013-04-10 01:43:00,
2013-04-09 21:44:00,74.3,64.3,30.21,SSE,165,7.7,18.2,71,0.00,,---,0.00,VWS V14.01,2013-04-10 01:44:00,
2013-04-09 21:45:00,74.2,63.7,30.21,South,170,6.5,18.2,70,0.00,,---,0.00,VWS V14.01,2013-04-10 01:45:00,
2013-04-09 21:46:00,74.4,64.0,30.21,ESE,111,6.3,18.2,70,0.00,,---,0.00,VWS V14.01,2013-04-10 01:46:00,
2013-04-09 21:47:00,74.3,63.7,30.21,ESE,122,6.6,18.2,70,0.00,,---,0.00,VWS V14.01,2013-04-10 01:47:00,
2013-04-09 21:48:00,74.4,63.8,30.21,SSE,148,6.8,18.2,70,0.00,,---,0.00,VWS V14.01,2013-04-10 01:48:00,
2013-04-09 21:49:00,74.4,64.0,30.21,SW,218,5.0,18.2,70,0.00,,---,0.00,VWS V14.01,2013-04-10 01:49:00,
2013-04-09 21:50:00,74.3,63.9,30.21,SE,124,6.5,18.2,70,0.00,,---,0.00,VWS V14.01,2013-04-10 01:50:00,
2013-04-09 21:51:00,74.5,64.2,30.21,ESE,112,4.6,18.2,70,0.00,,---,0.00,VWS V14.01,2013-04-10 01:51:00,
2013-04-09 21:52:00,74.4,64.2,30.21,SE,131,5.0,18.2,71,0.00,,---,0.00,VWS V14.01,2013-04-10 01:52:00,
2013-04-09 21:53:00,74.3,64.3,30.21,SSE,160,8.2,18.2,71,0.00,,---,0.00,VWS V14.01,2013-04-10 01:53:00,
2013-04-09 21:54:00,74.5,64.6,30.21,SE,143,4.6,18.2,71,0.00,,---,0.00,VWS V14.01,2013-04-10 01:54:00,
2013-04-09 21:55:00,74.6,64.7,30.20,SE,141,6.3,18.2,71,0.00,,---,0.00,VWS V14.01,2013-04-10 01:55:00,
2013-04-09 21:56:00,74.5,64.7,30.20,South,187,6.4,18.2,71,0.00,,---,0.00,VWS V14.01,2013-04-10 01:56:00,
2013-04-09 21:57:00,74.5,64.7,30.20,SSE,149,7.0,18.2,72,0.00,,---,0.00,VWS V14.01,2013-04-10 01:57:00,
2013-04-09 21:58:00,74.5,64.7,30.20,South,188,9.5,18.2,71,0.00,,---,0.00,VWS V14.01,2013-04-10 01:58:00,
2013-04-09 21:59:00,74.3,64.5,30.20,East,97,8.4,18.2,72,0.00,,---,0.00,VWS V14.01,2013-04-10 01:59:00,
2013-04-09 22:00:00,74.4,64.8,30.20,South,181,9.6,18.2,72,0.00,,---,0.00,VWS V14.01,2013-04-10 02:00:00,
2013-04-09 22:01:00,74.3,64.6,30.19,SSE,148,9.8,18.2,72,0.00,,---,0.00,VWS V14.01,2013-04-10 02:01:00,
2013-04-09 22:02:00,74.3,64.6,30.19,SSE,163,7.0,18.2,72,0.00,,---,0.00,VWS V14.01,2013-04-10 02:02:00,
2013-04-09 22:03:00,74.4,64.7,30.20,SE,135,3.3,18.2,72,0.00,,---,0.00,VWS V14.01,2013-04-10 02:03:00,
2013-04-09 22:04:00,74.5,64.9,30.20,SSE,159,6.3,18.2,72,0.00,,---,0.00,VWS V14.01,2013-04-10 02:04:00,
2013-04-09 22:05:00,74.4,64.8,30.20,SSE,166,3.2,18.2,72,0.00,,---,0.00,VWS V14.01,2013-04-10 02:05:00,
2013-04-09 22:06:00,74.3,64.5,30.20,SE,139,5.6,18.2,72,0.00,,---,0.00,VWS V14.01,2013-04-10 02:06:00,
2013-04-09 22:07:00,74.3,64.4,30.20,SSW,197,6.7,18.2,71,0.00,,---,0.00,VWS V14.01,2013-04-10 02:07:00,
2013-04-09 22:08:00,74.4,64.5,30.20,South,169,4.0,18.2,71,0.00,,---,0.00,VWS V14.01,2013-04-10 02:08:00,
2013-04-09 22:09:00,74.4,64.6,30.20,SE,146,4.2,18.2,72,0.00,,---,0.00,VWS V14.01,2013-04-10 02:09:00,
2013-04-09 22:10:00,74.4,64.7,30.21,SSE,159,7.9,18.2,72,0.00,,---,0.00,VWS V14.01,2013-04-10 02:10:00,
2013-04-09 22:11:00,74.4,64.9,30.21,SE,143,5.9,18.2,72,0.00,,---,0.00,VWS V14.01,2013-04-10 02:11:00,
2013-04-09 22:12:00,74.3,64.9,30.21,SE,128,9.3,18.2,73,0.00,,---,0.00,VWS V14.01,2013-04-10 02:12:00,
2013-04-09 22:13:00,74.3,65.0,30.21,ESE,108,6.1,18.2,73,0.00,,---,0.00,VWS V14.01,2013-04-10 02:13:00,
2013-04-09 22:14:00,74.5,65.2,30.20,ESE,120,7.8,18.2,73,0.00,,---,0.00,VWS V14.01,2013-04-10 02:14:00,
2013-04-09 22:15:00,74.4,65.2,30.20,SSE,162,7.6,18.2,73,0.00,,---,0.00,VWS V14.01,2013-04-10 02:15:00,
2013-04-09 22:16:00,74.6,65.5,30.20,SSE,166,5.4,18.2,73,0.00,,---,0.00,VWS V14.01,2013-04-10 02:16:00,
2013-04-09 22:17:00,74.4,65.4,30.20,SE,138,3.9,18.2,74,0.00,,---,0.00,VWS V14.01,2013-04-10 02:17:00,
2013-04-09 22:18:00,74.7,65.7,30.20,ESE,110,5.4,18.2,74,0.00,,---,0.00,VWS V14.01,2013-04-10 02:18:00,
2013-04-09 22:19:00,74.6,65.8,30.20,SE,131,8.8,18.2,74,0.00,,---,0.00,VWS V14.01,2013-04-10 02:19:00,
2013-04-09 22:20:00,74.6,66.0,30.20,SE,124,6.4,18.2,74,0.00,,---,0.00,VWS V14.01,2013-04-10 02:20:00,
2013-04-09 22:21:00,74.5,65.9,30.20,SE,146,8.5,18.2,75,0.00,,---,0.00,VWS V14.01,2013-04-10 02:21:00,
2013-04-09 22:22:00,74.6,66.0,30.20,SSW,193,4.9,18.2,75,0.00,,---,0.00,VWS V14.01,2013-04-10 02:22:00,
2013-04-09 22:23:00,74.6,66.1,30.20,SE,131,5.0,18.2,75,0.00,,---,0.00,VWS V14.01,2013-04-10 02:23:00,
2013-04-09 22:24:00,74.4,66.0,30.20,SE,141,4.5,18.2,75,0.00,,---,0.00,VWS V14.01,2013-04-10 02:24:00,
2013-04-09 22:25:00,74.4,66.0,30.20,SE,132,5.0,18.2,75,0.00,,---,0.00,VWS V14.01,2013-04-10 02:25:00,
2013-04-09 22:26:00,74.6,66.0,30.20,SE,129,7.0,18.2,75,0.00,,---,0.00,VWS V14.01,2013-04-10 02:26:00,
2013-04-09 22:27:00,74.5,65.8,30.20,SSW,202,7.5,18.2,74,0.00,,---,0.00,VWS V14.01,2013-04-10 02:27:00,
2013-04-09 22:28:00,74.3,65.6,30.20,ESE,120,10.1,18.2,74,0.00,,---,0.00,VWS V14.01,2013-04-10 02:28:00,
2013-04-09 22:29:00,74.3,65.6,30.20,South,187,7.6,18.2,74,0.00,,---,0.00,VWS V14.01,2013-04-10 02:29:00,
2013-04-09 22:30:00,74.2,65.5,30.20,South,170,7.0,18.2,74,0.00,,---,0.00,VWS V14.01,2013-04-10 02:30:00,
2013-04-09 22:31:00,74.2,65.6,30.20,South,188,3.5,18.2,74,0.00,,---,0.00,VWS V14.01,2013-04-10 02:31:00,
2013-04-09 22:32:00,74.3,65.8,30.20,South,176,8.1,18.2,75,0.00,,---,0.00,VWS V14.01,2013-04-10 02:32:00,
2013-04-09 22:33:00,74.2,65.7,30.20,SSE,165,5.2,18.2,75,0.00,,---,0.00,VWS V14.01,2013-04-10 02:33:00,
2013-04-09 22:34:00,74.4,66.0,30.20,SE,127,7.6,18.2,75,0.00,,---,0.00,VWS V14.01,2013-04-10 02:34:00,
2013-04-09 22:35:00,74.4,65.9,30.20,SSE,149,9.2,18.2,75,0.00,,---,0.00,VWS V14.01,2013-04-10 02:35:00,
2013-04-09 22:36:00,74.4,65.9,30.20,South,170,5.8,18.2,75,0.00,,---,0.00,VWS V14.01,2013-04-10 02:36:00,
2013-04-09 22:37:00,74.2,65.8,30.20,South,184,5.7,18.2,75,0.00,,---,0.00,VWS V14.01,2013-04-10 02:37:00,
2013-04-09 22:38:00,74.4,66.0,30.20,South,180,7.2,18.2,75,0.00,,---,0.00,VWS V14.01,2013-04-10 02:38:00,
2013-04-09 22:39:00,74.4,66.0,30.20,South,190,2.4,18.2,75,0.00,,---,0.00,VWS V14.01,2013-04-10 02:39:00,
2013-04-09 22:40:00,74.3,65.9,30.20,South,184,4.2,18.2,75,0.00,,---,0.00,VWS V14.01,2013-04-10 02:40:00,
2013-04-09 22:41:00,74.4,66.0,30.20,SSE,149,10.1,18.2,75,0.00,,---,0.00,VWS V14.01,2013-04-10 02:41:00,
2013-04-09 22:42:00,74.4,66.0,30.20,SE,127,6.5,18.2,75,0.00,,---,0.00,VWS V14.01,2013-04-10 02:42:00,
2013-04-09 22:43:00,74.2,65.8,30.20,SSE,152,4.7,18.2,75,0.00,,---,0.00,VWS V14.01,2013-04-10 02:43:00,
2013-04-09 22:44:00,74.4,66.0,30.20,East,100,3.0,18.2,75,0.00,,---,0.00,VWS V14.01,2013-04-10 02:44:00,
2013-04-09 22:45:00,74.5,66.1,30.20,East,93,5.2,18.2,75,0.00,,---,0.00,VWS V14.01,2013-04-10 02:45:00,
2013-04-09 22:46:00,74.5,66.1,30.21,SE,145,6.9,18.2,75,0.00,,---,0.00,VWS V14.01,2013-04-10 02:46:00,
2013-04-09 22:47:00,74.5,66.1,30.21,South,183,3.2,18.2,75,0.00,,---,0.00,VWS V14.01,2013-04-10 02:47:00,
2013-04-09 22:48:00,74.4,66.0,30.21,South,188,4.5,18.2,75,0.00,,---,0.00,VWS V14.01,2013-04-10 02:48:00,
2013-04-09 22:49:00,74.3,66.0,30.21,SE,141,7.1,18.2,75,0.00,,---,0.00,VWS V14.01,2013-04-10 02:49:00,
2013-04-09 22:50:00,74.5,66.2,30.21,ESE,117,4.0,18.2,75,0.00,,---,0.00,VWS V14.01,2013-04-10 02:50:00,
2013-04-09 22:51:00,74.6,66.3,30.21,SSE,156,5.2,18.2,75,0.00,,---,0.00,VWS V14.01,2013-04-10 02:51:00,
2013-04-09 22:52:00,74.4,66.1,30.21,SE,128,4.4,18.2,75,0.00,,---,0.00,VWS V14.01,2013-04-10 02:52:00,
2013-04-09 22:53:00,74.4,66.1,30.20,SSE,155,7.3,18.2,75,0.00,,---,0.00,VWS V14.01,2013-04-10 02:53:00,
2013-04-09 22:54:00,74.5,66.2,30.21,SE,142,8.0,18.2,75,0.00,,---,0.00,VWS V14.01,2013-04-10 02:54:00,
2013-04-09 22:55:00,74.5,66.2,30.20,SSW,194,3.0,18.2,75,0.00,,---,0.00,VWS V14.01,2013-04-10 02:55:00,
2013-04-09 22:56:00,74.5,66.1,30.20,SSE,159,5.8,18.2,75,0.00,,---,0.00,VWS V14.01,2013-04-10 02:56:00,
2013-04-09 22:57:00,74.5,66.1,30.20,SE,134,7.6,18.2,75,0.00,,---,0.00,VWS V14.01,2013-04-10 02:57:00,
2013-04-09 22:58:00,74.4,66.0,30.20,South,179,7.1,18.2,75,0.00,,---,0.00,VWS V14.01,2013-04-10 02:58:00,
2013-04-09 22:59:00,74.2,65.8,30.20,ESE,118,8.5,18.2,75,0.00,,---,0.00,VWS V14.01,2013-04-10 02:59:00,
2013-04-09 23:00:00,74.3,65.9,30.20,ESE,111,4.1,18.2,75,0.00,,---,0.00,VWS V14.01,2013-04-10 03:00:00,
2013-04-09 23:01:00,74.3,66.0,30.20,SSE,165,5.0,18.2,75,0.00,,---,0.00,VWS V14.01,2013-04-10 03:01:00,
2013-04-09 23:02:00,74.3,65.9,30.20,SE,142,6.9,18.2,75,0.00,,---,0.00,VWS V14.01,2013-04-10 03:02:00,
2013-04-09 23:03:00,74.3,65.9,30.20,SE,143,3.6,18.2,75,0.00,,---,0.00,VWS V14.01,2013-04-10 03:03:00,
2013-04-09 23:04:00,74.4,66.0,30.20,SSE,167,4.3,18.2,75,0.00,,---,0.00,VWS V14.01,2013-04-10 03:04:00,
2013-04-09 23:05:00,74.4,66.0,30.20,SE,139,4.0,18.2,75,0.00,,---,0.00,VWS V14.01,2013-04-10 03:05:00,
2013-04-09 23:06:00,74.6,66.3,30.20,SSE,158,5.0,18.2,75,0.00,,---,0.00,VWS V14.01,2013-04-10 03:06:00,
2013-04-09 23:07:00,74.4,66.2,30.20,SSE,156,4.8,18.2,76,0.00,,---,0.00,VWS V14.01,2013-04-10 03:07:00,
2013-04-09 23:08:00,74.6,66.4,30.20,SE,139,6.8,18.2,76,0.00,,---,0.00,VWS V14.01,2013-04-10 03:08:00,
2013-04-09 23:09:00,74.2,66.2,30.20,South,173,8.0,18.2,76,0.00,,---,0.00,VWS V14.01,2013-04-10 03:09:00,
2013-04-09 23:10:00,74.5,66.4,30.20,SSE,149,4.5,18.2,76,0.00,,---,0.00,VWS V14.01,2013-04-10 03:10:00,
2013-04-09 23:11:00,74.5,66.5,30.20,ESE,120,7.3,18.2,76,0.00,,---,0.00,VWS V14.01,2013-04-10 03:11:00,
2013-04-09 23:12:00,74.4,66.5,30.20,SE,141,4.2,18.2,76,0.00,,---,0.00,VWS V14.01,2013-04-10 03:12:00,
2013-04-09 23:13:00,74.4,66.4,30.20,SSE,156,7.6,18.2,76,0.00,,---,0.00,VWS V14.01,2013-04-10 03:13:00,
2013-04-09 23:14:00,74.4,66.5,30.19,SE,136,8.1,18.2,76,0.00,,---,0.00,VWS V14.01,2013-04-10 03:14:00,
2013-04-09 23:59:00,74.4,66.5,30.19,SSW,202,3.4,18.2,76,0.00,,---,0.00,VWS V14.01,2013-04-10 03:59:00,